<?xml version='1.0' encoding='UTF-8'?><gpx version="1.1" creator="JPX - https://github.com/jenetics/jpx" xmlns="http://www.topografix.com/GPX/1/1"><trk><trkseg><trkpt lat="41.77791616820371" lon="12.605774128767232"><ele>138.0</ele><time>2026-04-26T11:37:57.086Z</time></trkpt><trkpt lat="41.77781346732496" lon="12.605861101360698"><ele>138.0</ele><time>2026-04-26T11:37:58.001Z</time></trkpt><trkpt lat="41.77769224986596" lon="12.605964037978655"><ele>138.0</ele><time>2026-04-26T11:37:59.001Z</time></trkpt><trkpt lat="41.777566198845236" lon="12.60607107658907"><ele>138.0</ele><time>2026-04-26T11:38:00.001Z</time></trkpt><trkpt lat="41.77743987905279" lon="12.606183524712405"><ele>139.0</ele><time>2026-04-26T11:38:01.001Z</time></trkpt><trkpt lat="41.77732277695826" lon="12.606283494664996"><ele>140.0</ele><time>2026-04-26T11:38:02.001Z</time></trkpt><trkpt lat="41.77721191069277" lon="12.606382798820695"><ele>141.0</ele><time>2026-04-26T11:38:03.001Z</time></trkpt><trkpt lat="41.77710627473073" lon="12.60647929831453"><ele>142.0</ele><time>2026-04-26T11:38:04.001Z</time></trkpt><trkpt lat="41.77699868414679" lon="12.606581827320873"><ele>142.0</ele><time>2026-04-26T11:38:05.001Z</time></trkpt><trkpt lat="41.77690000498261" lon="12.60667880490731"><ele>142.0</ele><time>2026-04-26T11:38:06.001Z</time></trkpt><trkpt lat="41.776791228316654" lon="12.60678150679894"><ele>142.0</ele><time>2026-04-26T11:38:07.001Z</time></trkpt><trkpt lat="41.77668212917609" lon="12.606889445655813"><ele>142.0</ele><time>2026-04-26T11:38:08.001Z</time></trkpt><trkpt lat="41.776568029839375" lon="12.606993406095903"><ele>142.25</ele><time>2026-04-26T11:38:09.001Z</time></trkpt><trkpt lat="41.77645789139748" lon="12.607112451878127"><ele>142.5</ele><time>2026-04-26T11:38:10.001Z</time></trkpt><trkpt lat="41.77635456577854" lon="12.607233207693444"><ele>142.75</ele><time>2026-04-26T11:38:11.001Z</time></trkpt><trkpt lat="41.77625282834067" lon="12.607339670173076"><ele>143.0</ele><time>2026-04-26T11:38:12.001Z</time></trkpt><trkpt lat="41.776145665988956" lon="12.607449257142555"><ele>143.0</ele><time>2026-04-26T11:38:13.001Z</time></trkpt><trkpt lat="41.776041446792576" lon="12.607555184274167"><ele>143.0</ele><time>2026-04-26T11:38:14.001Z</time></trkpt><trkpt lat="41.775954934340895" lon="12.607662403005273"><ele>143.0</ele><time>2026-04-26T11:38:15Z</time></trkpt><trkpt lat="41.775858084431896" lon="12.607778377199347"><ele>143.0</ele><time>2026-04-26T11:38:16Z</time></trkpt><trkpt lat="41.77576223559624" lon="12.607872251225524"><ele>143.0</ele><time>2026-04-26T11:38:17Z</time></trkpt><trkpt lat="41.775691256332905" lon="12.607929071385637"><ele>143.0</ele><time>2026-04-26T11:38:18Z</time></trkpt><trkpt lat="41.77561735513188" lon="12.607989266176276"><ele>143.0</ele><time>2026-04-26T11:38:19Z</time></trkpt><trkpt lat="41.77552068318461" lon="12.60810099437821"><ele>143.0</ele><time>2026-04-26T11:38:21Z</time></trkpt><trkpt lat="41.77543716926139" lon="12.608179018806148"><ele>143.0</ele><time>2026-04-26T11:38:23Z</time></trkpt><trkpt lat="41.77538945760124" lon="12.608235054226157"><ele>143.0</ele><time>2026-04-26T11:38:25Z</time></trkpt><trkpt lat="41.77532449340914" lon="12.608253138383988"><ele>143.0</ele><time>2026-04-26T11:39:09.999Z</time></trkpt><trkpt lat="41.77525712832596" lon="12.608326627168346"><ele>143.0</ele><time>2026-04-26T11:39:10.999Z</time></trkpt><trkpt lat="41.77517301153117" lon="12.608413745695112"><ele>143.0</ele><time>2026-04-26T11:39:11.999Z</time></trkpt><trkpt lat="41.775076105305786" lon="12.608505610381807"><ele>143.0</ele><time>2026-04-26T11:39:12.999Z</time></trkpt><trkpt lat="41.7749806265418" lon="12.608602654411891"><ele>143.66666666666666</ele><time>2026-04-26T11:39:13.999Z</time></trkpt><trkpt lat="41.77486284395251" lon="12.608711778839512"><ele>144.33333333333334</ele><time>2026-04-26T11:39:14.999Z</time></trkpt><trkpt lat="41.7747333040231" lon="12.608824527116246"><ele>145.0</ele><time>2026-04-26T11:39:15.999Z</time></trkpt><trkpt lat="41.774606907744115" lon="12.608941109754038"><ele>145.0</ele><time>2026-04-26T11:39:16.999Z</time></trkpt><trkpt lat="41.77447696472146" lon="12.609069121287407"><ele>145.0</ele><time>2026-04-26T11:39:17.999Z</time></trkpt><trkpt lat="41.77433949022589" lon="12.609205061286854"><ele>145.0</ele><time>2026-04-26T11:39:18.999Z</time></trkpt><trkpt lat="41.77420407412087" lon="12.609338402734348"><ele>145.0</ele><time>2026-04-26T11:39:19.999Z</time></trkpt><trkpt lat="41.7740710274665" lon="12.60946304527262"><ele>145.0</ele><time>2026-04-26T11:39:20.999Z</time></trkpt><trkpt lat="41.77393151726509" lon="12.609590185047596"><ele>145.0</ele><time>2026-04-26T11:39:21.999Z</time></trkpt><trkpt lat="41.77380934527344" lon="12.609709174750462"><ele>145.5</ele><time>2026-04-26T11:39:22.999Z</time></trkpt><trkpt lat="41.77370227783494" lon="12.609815517906593"><ele>146.0</ele><time>2026-04-26T11:39:23.999Z</time></trkpt><trkpt lat="41.77360920320228" lon="12.609899286406613"><ele>146.5</ele><time>2026-04-26T11:39:24.999Z</time></trkpt><trkpt lat="41.77352130981859" lon="12.60998479870127"><ele>147.0</ele><time>2026-04-26T11:39:25.999Z</time></trkpt><trkpt lat="41.77344144716503" lon="12.610059282706192"><ele>147.33333333333334</ele><time>2026-04-26T11:39:26.999Z</time></trkpt><trkpt lat="41.77337621688049" lon="12.610119172936457"><ele>147.66666666666666</ele><time>2026-04-26T11:39:27.999Z</time></trkpt><trkpt lat="41.7733170243175" lon="12.610159047432628"><ele>148.0</ele><time>2026-04-26T11:39:28.999Z</time></trkpt><trkpt lat="41.77321028425954" lon="12.61016759568663"><ele>148.33333333333331</ele><time>2026-04-26T11:39:30.999Z</time></trkpt><trkpt lat="41.773222663006095" lon="12.610258725505268"><ele>148.66666666666666</ele><time>2026-04-26T11:39:31.999Z</time></trkpt><trkpt lat="41.77311474450676" lon="12.610192284213452"><ele>149.0</ele><time>2026-04-26T11:39:33.999Z</time></trkpt><trkpt lat="41.773052777396856" lon="12.610237127682666"><ele>149.0</ele><time>2026-04-26T11:39:36.999Z</time></trkpt><trkpt lat="41.77300831446604" lon="12.610335020423205"><ele>149.0</ele><time>2026-04-26T11:43:28.999Z</time></trkpt><trkpt lat="41.772970555226514" lon="12.610409433965053"><ele>149.0</ele><time>2026-04-26T11:43:29.999Z</time></trkpt><trkpt lat="41.77292384770293" lon="12.610561773575904"><ele>149.0</ele><time>2026-04-26T11:43:31.999Z</time></trkpt><trkpt lat="41.77285696611384" lon="12.6106800180592"><ele>149.0</ele><time>2026-04-26T11:43:33.999Z</time></trkpt><trkpt lat="41.772779170161236" lon="12.610744035126302"><ele>149.75</ele><time>2026-04-26T11:43:34.999Z</time></trkpt><trkpt lat="41.772688439653784" lon="12.610822933387334"><ele>150.5</ele><time>2026-04-26T11:43:35.999Z</time></trkpt><trkpt lat="41.77259581016136" lon="12.610909568376325"><ele>151.25</ele><time>2026-04-26T11:43:36.999Z</time></trkpt><trkpt lat="41.77249232435387" lon="12.611002085846827"><ele>152.0</ele><time>2026-04-26T11:43:37.999Z</time></trkpt><trkpt lat="41.772377073220376" lon="12.61111115819162"><ele>151.66666666666666</ele><time>2026-04-26T11:43:38.999Z</time></trkpt><trkpt lat="41.772259399916145" lon="12.611230725870113"><ele>151.33333333333334</ele><time>2026-04-26T11:43:39.999Z</time></trkpt><trkpt lat="41.772125005970665" lon="12.611354619036199"><ele>151.0</ele><time>2026-04-26T11:43:40.999Z</time></trkpt><trkpt lat="41.77198492846567" lon="12.611490083717381"><ele>153.33333333333334</ele><time>2026-04-26T11:43:41.999Z</time></trkpt><trkpt lat="41.77184383038222" lon="12.611627143114001"><ele>155.66666666666666</ele><time>2026-04-26T11:43:42.999Z</time></trkpt><trkpt lat="41.771696339828274" lon="12.611769447687667"><ele>158.0</ele><time>2026-04-26T11:43:43.999Z</time></trkpt><trkpt lat="41.771535439297615" lon="12.611922382373717"><ele>158.33333333333331</ele><time>2026-04-26T11:43:44.999Z</time></trkpt><trkpt lat="41.771373179291146" lon="12.612079174657161"><ele>158.66666666666666</ele><time>2026-04-26T11:43:45.999Z</time></trkpt><trkpt lat="41.77120592561984" lon="12.612238853577875"><ele>159.0</ele><time>2026-04-26T11:43:46.999Z</time></trkpt><trkpt lat="41.77103528708266" lon="12.612408355620499"><ele>161.5</ele><time>2026-04-26T11:43:47.999Z</time></trkpt><trkpt lat="41.77085691932635" lon="12.612584217675218"><ele>164.0</ele><time>2026-04-26T11:43:48.999Z</time></trkpt><trkpt lat="41.770672140814554" lon="12.612766175831716"><ele>164.5</ele><time>2026-04-26T11:43:49.999Z</time></trkpt><trkpt lat="41.77048277873866" lon="12.61294799820335"><ele>165.0</ele><time>2026-04-26T11:43:50.999Z</time></trkpt><trkpt lat="41.77029581570675" lon="12.61312872352187"><ele>167.66666666666666</ele><time>2026-04-26T11:43:51.999Z</time></trkpt><trkpt lat="41.7701182873734" lon="12.61330668742377"><ele>170.33333333333331</ele><time>2026-04-26T11:43:52.999Z</time></trkpt><trkpt lat="41.76993809891515" lon="12.613480786432508"><ele>173.0</ele><time>2026-04-26T11:43:53.999Z</time></trkpt><trkpt lat="41.7697540435973" lon="12.61366004674385"><ele>173.0</ele><time>2026-04-26T11:43:54.999Z</time></trkpt><trkpt lat="41.769566726767785" lon="12.613844072811391"><ele>173.0</ele><time>2026-04-26T11:43:55.999Z</time></trkpt><trkpt lat="41.76937347904394" lon="12.614036658374447"><ele>174.33333333333331</ele><time>2026-04-26T11:43:56.998Z</time></trkpt><trkpt lat="41.769191509231774" lon="12.61421653740602"><ele>175.66666666666666</ele><time>2026-04-26T11:43:57.998Z</time></trkpt><trkpt lat="41.769025060977306" lon="12.614375804454962"><ele>177.0</ele><time>2026-04-26T11:43:58.998Z</time></trkpt><trkpt lat="41.76886737080947" lon="12.614529561876118"><ele>177.33333333333334</ele><time>2026-04-26T11:43:59.998Z</time></trkpt><trkpt lat="41.76870492919256" lon="12.614677299887077"><ele>177.66666666666669</ele><time>2026-04-26T11:44:00.998Z</time></trkpt><trkpt lat="41.76854358554853" lon="12.614840830523647"><ele>178.0</ele><time>2026-04-26T11:44:01.998Z</time></trkpt><trkpt lat="41.768387586933535" lon="12.615016802277486"><ele>178.33333333333334</ele><time>2026-04-26T11:44:02.998Z</time></trkpt><trkpt lat="41.76824169305235" lon="12.615174868229179"><ele>178.66666666666666</ele><time>2026-04-26T11:44:03.998Z</time></trkpt><trkpt lat="41.768083409014146" lon="12.615318416872292"><ele>179.0</ele><time>2026-04-26T11:44:04.998Z</time></trkpt><trkpt lat="41.767917899259636" lon="12.615462235388039"><ele>180.0</ele><time>2026-04-26T11:44:05.998Z</time></trkpt><trkpt lat="41.76777292851167" lon="12.615597930609255"><ele>181.0</ele><time>2026-04-26T11:44:06.998Z</time></trkpt><trkpt lat="41.76764094152494" lon="12.615732648055365"><ele>182.0</ele><time>2026-04-26T11:44:07.998Z</time></trkpt><trkpt lat="41.76751462009934" lon="12.61585185726735"><ele>182.5</ele><time>2026-04-26T11:44:08.998Z</time></trkpt><trkpt lat="41.767393996376306" lon="12.615962568170545"><ele>183.0</ele><time>2026-04-26T11:44:09.998Z</time></trkpt><trkpt lat="41.767280154418245" lon="12.616065548320565"><ele>183.5</ele><time>2026-04-26T11:44:10.998Z</time></trkpt><trkpt lat="41.76715508423787" lon="12.616160665866042"><ele>184.0</ele><time>2026-04-26T11:44:11.998Z</time></trkpt><trkpt lat="41.767038580863115" lon="12.616276818063994"><ele>184.33333333333334</ele><time>2026-04-26T11:44:12.998Z</time></trkpt><trkpt lat="41.76686878502165" lon="12.616270391842395"><ele>184.66666666666666</ele><time>2026-04-26T11:44:13.998Z</time></trkpt><trkpt lat="41.76671372897729" lon="12.61630660233934"><ele>185.0</ele><time>2026-04-26T11:44:15Z</time></trkpt><trkpt lat="41.7665525391269" lon="12.616322465447274"><ele>185.0</ele><time>2026-04-26T11:44:16Z</time></trkpt><trkpt lat="41.766385820758174" lon="12.616318634777913"><ele>185.0</ele><time>2026-04-26T11:44:17Z</time></trkpt><trkpt lat="41.76621063909231" lon="12.616314489901853"><ele>185.0</ele><time>2026-04-26T11:44:18Z</time></trkpt><trkpt lat="41.76603016614997" lon="12.6163129132254"><ele>184.66666666666666</ele><time>2026-04-26T11:44:19Z</time></trkpt><trkpt lat="41.76584571244355" lon="12.616311531821074"><ele>184.33333333333334</ele><time>2026-04-26T11:44:20Z</time></trkpt><trkpt lat="41.76565514025288" lon="12.616305664723168"><ele>184.0</ele><time>2026-04-26T11:44:21Z</time></trkpt><trkpt lat="41.76546583709952" lon="12.616297573247255"><ele>184.0</ele><time>2026-04-26T11:44:22Z</time></trkpt><trkpt lat="41.76528092792357" lon="12.616291202184517"><ele>184.0</ele><time>2026-04-26T11:44:23Z</time></trkpt><trkpt lat="41.76509175086495" lon="12.616285753866954"><ele>184.0</ele><time>2026-04-26T11:44:24Z</time></trkpt><trkpt lat="41.764898784196426" lon="12.616278626606414"><ele>184.0</ele><time>2026-04-26T11:44:25Z</time></trkpt><trkpt lat="41.76470341860983" lon="12.61626713370846"><ele>184.0</ele><time>2026-04-26T11:44:26Z</time></trkpt><trkpt lat="41.76450269560083" lon="12.616255670144009"><ele>184.0</ele><time>2026-04-26T11:44:27Z</time></trkpt><trkpt lat="41.76429641496336" lon="12.616247409172496"><ele>184.66666666666669</ele><time>2026-04-26T11:44:28Z</time></trkpt><trkpt lat="41.76408730710588" lon="12.6162402382382"><ele>185.33333333333334</ele><time>2026-04-26T11:44:29Z</time></trkpt><trkpt lat="41.76387556436505" lon="12.616229105664575"><ele>186.0</ele><time>2026-04-26T11:44:30Z</time></trkpt><trkpt lat="41.763659744762315" lon="12.616215291651805"><ele>187.33333333333334</ele><time>2026-04-26T11:44:31Z</time></trkpt><trkpt lat="41.76344194205405" lon="12.616208068127868"><ele>188.66666666666669</ele><time>2026-04-26T11:44:32Z</time></trkpt><trkpt lat="41.76324397421674" lon="12.616200931163212"><ele>190.0</ele><time>2026-04-26T11:44:33Z</time></trkpt><trkpt lat="41.76304711108663" lon="12.616192123764037"><ele>190.0</ele><time>2026-04-26T11:44:34Z</time></trkpt><trkpt lat="41.762848948323594" lon="12.616181547083345"><ele>190.0</ele><time>2026-04-26T11:44:35Z</time></trkpt><trkpt lat="41.762651085703816" lon="12.616177551587311"><ele>190.0</ele><time>2026-04-26T11:44:36Z</time></trkpt><trkpt lat="41.76246871182714" lon="12.616179546052726"><ele>191.33333333333334</ele><time>2026-04-26T11:44:37Z</time></trkpt><trkpt lat="41.76229386397726" lon="12.61618342829493"><ele>192.66666666666669</ele><time>2026-04-26T11:44:38Z</time></trkpt><trkpt lat="41.76213271262908" lon="12.616182982861199"><ele>194.0</ele><time>2026-04-26T11:44:39Z</time></trkpt><trkpt lat="41.761981392975464" lon="12.616158825589723"><ele>194.33333333333334</ele><time>2026-04-26T11:44:40Z</time></trkpt><trkpt lat="41.761828231773926" lon="12.61615332703183"><ele>194.66666666666669</ele><time>2026-04-26T11:44:41Z</time></trkpt><trkpt lat="41.76167001107658" lon="12.616165691737812"><ele>195.0</ele><time>2026-04-26T11:44:42Z</time></trkpt><trkpt lat="41.761504631179314" lon="12.616158491822906"><ele>195.33333333333331</ele><time>2026-04-26T11:44:43Z</time></trkpt><trkpt lat="41.76133249302827" lon="12.616148700938586"><ele>195.66666666666666</ele><time>2026-04-26T11:44:44Z</time></trkpt><trkpt lat="41.76116989087801" lon="12.61614143397504"><ele>196.0</ele><time>2026-04-26T11:44:45Z</time></trkpt><trkpt lat="41.76100880260486" lon="12.616133292610828"><ele>195.33333333333331</ele><time>2026-04-26T11:44:46Z</time></trkpt><trkpt lat="41.760843003256156" lon="12.616119170671942"><ele>194.66666666666669</ele><time>2026-04-26T11:44:47Z</time></trkpt><trkpt lat="41.76067060950943" lon="12.616109127088698"><ele>194.0</ele><time>2026-04-26T11:44:48Z</time></trkpt><trkpt lat="41.76049176415796" lon="12.616105497078705"><ele>194.0</ele><time>2026-04-26T11:44:49Z</time></trkpt><trkpt lat="41.76030578085193" lon="12.616105270561574"><ele>194.0</ele><time>2026-04-26T11:44:50Z</time></trkpt><trkpt lat="41.76011463041099" lon="12.616103784121874"><ele>194.0</ele><time>2026-04-26T11:44:51Z</time></trkpt><trkpt lat="41.75992265777385" lon="12.61610250870652"><ele>195.0</ele><time>2026-04-26T11:44:52Z</time></trkpt><trkpt lat="41.75974603399064" lon="12.61610322358036"><ele>196.0</ele><time>2026-04-26T11:44:53Z</time></trkpt><trkpt lat="41.75958633830261" lon="12.616079148081047"><ele>197.0</ele><time>2026-04-26T11:44:54Z</time></trkpt><trkpt lat="41.759436196666975" lon="12.616078338498971"><ele>196.8</ele><time>2026-04-26T11:44:55Z</time></trkpt><trkpt lat="41.7593055523917" lon="12.616078253538529"><ele>196.6</ele><time>2026-04-26T11:44:56Z</time></trkpt><trkpt lat="41.75919197662092" lon="12.616078253538573"><ele>196.4</ele><time>2026-04-26T11:44:57Z</time></trkpt><trkpt lat="41.75909457095121" lon="12.616078253538186"><ele>196.20000000000002</ele><time>2026-04-26T11:44:58Z</time></trkpt><trkpt lat="41.759010683290605" lon="12.616078255199207"><ele>196.0</ele><time>2026-04-26T11:44:59Z</time></trkpt><trkpt lat="41.75893875029808" lon="12.616078255198973"><ele>196.0</ele><time>2026-04-26T11:45:00Z</time></trkpt><trkpt lat="41.75884003134559" lon="12.616094239244688"><ele>196.0</ele><time>2026-04-26T11:45:01.999Z</time></trkpt><trkpt lat="41.75878076483954" lon="12.616055255690156"><ele>196.0</ele><time>2026-04-26T11:45:04.999Z</time></trkpt><trkpt lat="41.758664915796146" lon="12.616049820854691"><ele>196.0</ele><time>2026-04-26T11:45:21.999Z</time></trkpt><trkpt lat="41.75858320658043" lon="12.616055238007982"><ele>196.0</ele><time>2026-04-26T11:45:22.999Z</time></trkpt><trkpt lat="41.758481780228294" lon="12.616067370231198"><ele>195.5</ele><time>2026-04-26T11:45:23.999Z</time></trkpt><trkpt lat="41.75836928807436" lon="12.61607727929233"><ele>195.0</ele><time>2026-04-26T11:45:24.999Z</time></trkpt><trkpt lat="41.75824708642492" lon="12.616074839536006"><ele>194.5</ele><time>2026-04-26T11:45:25.999Z</time></trkpt><trkpt lat="41.75811606068694" lon="12.616063177508984"><ele>194.0</ele><time>2026-04-26T11:45:26.999Z</time></trkpt><trkpt lat="41.757970905458684" lon="12.616054791992664"><ele>194.0</ele><time>2026-04-26T11:45:27.999Z</time></trkpt><trkpt lat="41.75783064420458" lon="12.61604653281142"><ele>194.0</ele><time>2026-04-26T11:45:28.999Z</time></trkpt><trkpt lat="41.757677355651346" lon="12.616046276093291"><ele>194.0</ele><time>2026-04-26T11:45:29.999Z</time></trkpt><trkpt lat="41.757511884001" lon="12.616048627824842"><ele>194.0</ele><time>2026-04-26T11:45:30.999Z</time></trkpt><trkpt lat="41.757340054144606" lon="12.616047509359708"><ele>194.0</ele><time>2026-04-26T11:45:31.999Z</time></trkpt><trkpt lat="41.757173863824136" lon="12.616052819232237"><ele>194.0</ele><time>2026-04-26T11:45:32.999Z</time></trkpt><trkpt lat="41.75699984246242" lon="12.616068164957724"><ele>194.33333333333334</ele><time>2026-04-26T11:45:33.999Z</time></trkpt><trkpt lat="41.75682769591703" lon="12.61610762463562"><ele>194.66666666666669</ele><time>2026-04-26T11:45:34.999Z</time></trkpt><trkpt lat="41.75664819687156" lon="12.616162094782357"><ele>195.0</ele><time>2026-04-26T11:45:35.999Z</time></trkpt><trkpt lat="41.75649027577133" lon="12.616235401124012"><ele>195.0</ele><time>2026-04-26T11:45:36.999Z</time></trkpt><trkpt lat="41.756324773785984" lon="12.61631324409313"><ele>195.0</ele><time>2026-04-26T11:45:37.999Z</time></trkpt><trkpt lat="41.756157856110846" lon="12.616385662845436"><ele>195.0</ele><time>2026-04-26T11:45:38.999Z</time></trkpt><trkpt lat="41.75598467293449" lon="12.616457198324978"><ele>195.0</ele><time>2026-04-26T11:45:39.999Z</time></trkpt><trkpt lat="41.75581484277055" lon="12.616546940468712"><ele>195.0</ele><time>2026-04-26T11:45:40.999Z</time></trkpt><trkpt lat="41.755647266514856" lon="12.616658639788072"><ele>195.0</ele><time>2026-04-26T11:45:41.999Z</time></trkpt><trkpt lat="41.755489727439254" lon="12.616789686710392"><ele>195.0</ele><time>2026-04-26T11:45:42.999Z</time></trkpt><trkpt lat="41.755341750101735" lon="12.616931833553606"><ele>195.0</ele><time>2026-04-26T11:45:43.999Z</time></trkpt><trkpt lat="41.75519463000063" lon="12.617087907337272"><ele>195.0</ele><time>2026-04-26T11:45:44.999Z</time></trkpt><trkpt lat="41.755044838142354" lon="12.617251970294733"><ele>195.0</ele><time>2026-04-26T11:45:45.999Z</time></trkpt><trkpt lat="41.754894994917805" lon="12.617415000626192"><ele>195.0</ele><time>2026-04-26T11:45:46.999Z</time></trkpt><trkpt lat="41.754745078898516" lon="12.617573140940479"><ele>195.0</ele><time>2026-04-26T11:45:47.999Z</time></trkpt><trkpt lat="41.75459090002733" lon="12.617736063201914"><ele>195.66666666666669</ele><time>2026-04-26T11:45:48.999Z</time></trkpt><trkpt lat="41.75443756269891" lon="12.617908397020692"><ele>196.33333333333334</ele><time>2026-04-26T11:45:49.999Z</time></trkpt><trkpt lat="41.75429398201115" lon="12.618058302242032"><ele>197.0</ele><time>2026-04-26T11:45:50.999Z</time></trkpt><trkpt lat="41.75415952917522" lon="12.618200045681094"><ele>197.33333333333334</ele><time>2026-04-26T11:45:51.999Z</time></trkpt><trkpt lat="41.75402220389281" lon="12.618334334618588"><ele>197.66666666666669</ele><time>2026-04-26T11:45:52.999Z</time></trkpt><trkpt lat="41.753873287105584" lon="12.618443690210778"><ele>198.0</ele><time>2026-04-26T11:45:53.999Z</time></trkpt><trkpt lat="41.75370656881631" lon="12.618512289044"><ele>198.33333333333331</ele><time>2026-04-26T11:45:54.999Z</time></trkpt><trkpt lat="41.75353333056737" lon="12.618541737632837"><ele>198.66666666666666</ele><time>2026-04-26T11:45:55.999Z</time></trkpt><trkpt lat="41.75333889990305" lon="12.618549574114754"><ele>199.0</ele><time>2026-04-26T11:45:56.999Z</time></trkpt><trkpt lat="41.753143640070014" lon="12.61854494162986"><ele>199.0</ele><time>2026-04-26T11:45:57.999Z</time></trkpt><trkpt lat="41.752950891975345" lon="12.618556768042065"><ele>199.0</ele><time>2026-04-26T11:45:58.999Z</time></trkpt><trkpt lat="41.75275605951965" lon="12.6185701935843"><ele>199.0</ele><time>2026-04-26T11:45:59.999Z</time></trkpt><trkpt lat="41.75255697778364" lon="12.618600625813123"><ele>200.66666666666666</ele><time>2026-04-26T11:46:00.999Z</time></trkpt><trkpt lat="41.75235474404543" lon="12.618659064733365"><ele>202.33333333333331</ele><time>2026-04-26T11:46:01.999Z</time></trkpt><trkpt lat="41.75214594684837" lon="12.618736141873484"><ele>204.0</ele><time>2026-04-26T11:46:02.999Z</time></trkpt><trkpt lat="41.75195696346907" lon="12.618802729259217"><ele>205.0</ele><time>2026-04-26T11:46:03.998Z</time></trkpt><trkpt lat="41.75176901808411" lon="12.618869519229376"><ele>206.0</ele><time>2026-04-26T11:46:04.998Z</time></trkpt><trkpt lat="41.7515851364003" lon="12.61892380606897"><ele>207.0</ele><time>2026-04-26T11:46:05.998Z</time></trkpt><trkpt lat="41.75140939991716" lon="12.618979468973668"><ele>207.0</ele><time>2026-04-26T11:46:06.998Z</time></trkpt><trkpt lat="41.75123360226362" lon="12.61902680405545"><ele>207.0</ele><time>2026-04-26T11:46:07.998Z</time></trkpt><trkpt lat="41.75104735534131" lon="12.619065786637247"><ele>207.0</ele><time>2026-04-26T11:46:08.998Z</time></trkpt><trkpt lat="41.75085629153655" lon="12.619094662751706"><ele>206.66666666666669</ele><time>2026-04-26T11:46:09.998Z</time></trkpt><trkpt lat="41.750661417977845" lon="12.619124209369652"><ele>206.33333333333334</ele><time>2026-04-26T11:46:10.998Z</time></trkpt><trkpt lat="41.75046420995837" lon="12.619145177099352"><ele>206.0</ele><time>2026-04-26T11:46:11.998Z</time></trkpt><trkpt lat="41.75026411755405" lon="12.61914699907177"><ele>206.0</ele><time>2026-04-26T11:46:12.998Z</time></trkpt><trkpt lat="41.750057589438754" lon="12.619112697473476"><ele>206.0</ele><time>2026-04-26T11:46:13.998Z</time></trkpt><trkpt lat="41.749855562886204" lon="12.619065795283856"><ele>206.0</ele><time>2026-04-26T11:46:14.998Z</time></trkpt><trkpt lat="41.74964835650436" lon="12.619013312376236"><ele>206.0</ele><time>2026-04-26T11:46:15.998Z</time></trkpt><trkpt lat="41.74943121341105" lon="12.618972324355635"><ele>206.0</ele><time>2026-04-26T11:46:16.998Z</time></trkpt><trkpt lat="41.74921693284823" lon="12.618929513202895"><ele>206.0</ele><time>2026-04-26T11:46:17.998Z</time></trkpt><trkpt lat="41.749013533746805" lon="12.6188922911115"><ele>205.33333333333334</ele><time>2026-04-26T11:46:18.998Z</time></trkpt><trkpt lat="41.748813566834066" lon="12.618853372730658"><ele>204.66666666666669</ele><time>2026-04-26T11:46:20Z</time></trkpt><trkpt lat="41.74861105920338" lon="12.618815201774263"><ele>204.0</ele><time>2026-04-26T11:46:21Z</time></trkpt><trkpt lat="41.748405938490734" lon="12.618781068250774"><ele>204.0</ele><time>2026-04-26T11:46:22Z</time></trkpt><trkpt lat="41.748202967865744" lon="12.618738784954841"><ele>204.0</ele><time>2026-04-26T11:46:23Z</time></trkpt><trkpt lat="41.74800054568571" lon="12.618692369965826"><ele>204.0</ele><time>2026-04-26T11:46:24Z</time></trkpt><trkpt lat="41.74779938613647" lon="12.618635784918299"><ele>203.0</ele><time>2026-04-26T11:46:25Z</time></trkpt><trkpt lat="41.74759864488412" lon="12.618563601852511"><ele>202.0</ele><time>2026-04-26T11:46:26Z</time></trkpt><trkpt lat="41.747399835699596" lon="12.618487148279538"><ele>201.0</ele><time>2026-04-26T11:46:27Z</time></trkpt><trkpt lat="41.74719801537505" lon="12.618420664427541"><ele>201.0</ele><time>2026-04-26T11:46:28Z</time></trkpt><trkpt lat="41.747001278020704" lon="12.61836884340952"><ele>201.0</ele><time>2026-04-26T11:46:29Z</time></trkpt><trkpt lat="41.746812769398424" lon="12.618332346691314"><ele>201.0</ele><time>2026-04-26T11:46:30Z</time></trkpt><trkpt lat="41.746618035054134" lon="12.618311352407147"><ele>201.33333333333331</ele><time>2026-04-26T11:46:31Z</time></trkpt><trkpt lat="41.74642555422935" lon="12.618296579076517"><ele>201.66666666666666</ele><time>2026-04-26T11:46:32Z</time></trkpt><trkpt lat="41.74624189887735" lon="12.618288596427108"><ele>202.0</ele><time>2026-04-26T11:46:33Z</time></trkpt><trkpt lat="41.74606293572635" lon="12.618278160308321"><ele>201.66666666666666</ele><time>2026-04-26T11:46:34Z</time></trkpt><trkpt lat="41.7458938359184" lon="12.618274669692932"><ele>201.33333333333331</ele><time>2026-04-26T11:46:35Z</time></trkpt><trkpt lat="41.745735630387564" lon="12.618284795664266"><ele>201.0</ele><time>2026-04-26T11:46:36Z</time></trkpt><trkpt lat="41.74557445351181" lon="12.618319695728056"><ele>201.0</ele><time>2026-04-26T11:46:37Z</time></trkpt><trkpt lat="41.74541572650562" lon="12.618386787630683"><ele>201.0</ele><time>2026-04-26T11:46:38Z</time></trkpt><trkpt lat="41.74525824552942" lon="12.61847747837169"><ele>201.0</ele><time>2026-04-26T11:46:39Z</time></trkpt><trkpt lat="41.74511784843476" lon="12.618568454579368"><ele>200.75</ele><time>2026-04-26T11:46:40Z</time></trkpt><trkpt lat="41.744985732966626" lon="12.61864274120211"><ele>200.5</ele><time>2026-04-26T11:46:41Z</time></trkpt><trkpt lat="41.7448483556782" lon="12.618711980668845"><ele>200.25</ele><time>2026-04-26T11:46:42Z</time></trkpt><trkpt lat="41.74470934093976" lon="12.618797790823935"><ele>200.0</ele><time>2026-04-26T11:46:43Z</time></trkpt><trkpt lat="41.74455569769113" lon="12.618877500854023"><ele>200.66666666666669</ele><time>2026-04-26T11:46:44Z</time></trkpt><trkpt lat="41.74438412215298" lon="12.618941763870527"><ele>201.33333333333331</ele><time>2026-04-26T11:46:45Z</time></trkpt><trkpt lat="41.744216544436625" lon="12.618961802945558"><ele>202.0</ele><time>2026-04-26T11:46:46Z</time></trkpt><trkpt lat="41.744042829809615" lon="12.618942039210653"><ele>202.0</ele><time>2026-04-26T11:46:47Z</time></trkpt><trkpt lat="41.74386810723373" lon="12.618887807091962"><ele>202.0</ele><time>2026-04-26T11:46:48Z</time></trkpt><trkpt lat="41.74368559023685" lon="12.618801858556985"><ele>202.0</ele><time>2026-04-26T11:46:49Z</time></trkpt><trkpt lat="41.743504508607494" lon="12.61869378664982"><ele>202.33333333333331</ele><time>2026-04-26T11:46:50Z</time></trkpt><trkpt lat="41.7433078954828" lon="12.618570929347849"><ele>202.66666666666669</ele><time>2026-04-26T11:46:51Z</time></trkpt><trkpt lat="41.743101225871136" lon="12.61845007362176"><ele>203.0</ele><time>2026-04-26T11:46:52Z</time></trkpt><trkpt lat="41.74289584168661" lon="12.618330946973089"><ele>201.5</ele><time>2026-04-26T11:46:53Z</time></trkpt><trkpt lat="41.74268147474176" lon="12.618211842053142"><ele>200.0</ele><time>2026-04-26T11:46:54Z</time></trkpt><trkpt lat="41.74246339959528" lon="12.6180875648728"><ele>200.0</ele><time>2026-04-26T11:46:55Z</time></trkpt><trkpt lat="41.74225731352797" lon="12.617977890367255"><ele>200.0</ele><time>2026-04-26T11:46:56Z</time></trkpt><trkpt lat="41.74205752197933" lon="12.61786920506702"><ele>200.0</ele><time>2026-04-26T11:46:57Z</time></trkpt><trkpt lat="41.74186291967147" lon="12.617760311484007"><ele>198.66666666666669</ele><time>2026-04-26T11:46:58Z</time></trkpt><trkpt lat="41.741660659413284" lon="12.617641720403912"><ele>197.33333333333331</ele><time>2026-04-26T11:46:59Z</time></trkpt><trkpt lat="41.74145359156192" lon="12.617531706828112"><ele>196.0</ele><time>2026-04-26T11:47:00Z</time></trkpt><trkpt lat="41.74124174717421" lon="12.617414579788353"><ele>196.0</ele><time>2026-04-26T11:47:01Z</time></trkpt><trkpt lat="41.74103033524312" lon="12.617298798697899"><ele>196.0</ele><time>2026-04-26T11:47:02Z</time></trkpt><trkpt lat="41.740842277921594" lon="12.617187561001591"><ele>196.0</ele><time>2026-04-26T11:47:03Z</time></trkpt><trkpt lat="41.74066206753438" lon="12.617084426477492"><ele>196.0</ele><time>2026-04-26T11:47:04Z</time></trkpt><trkpt lat="41.74048541841448" lon="12.616996487164045"><ele>196.0</ele><time>2026-04-26T11:47:05Z</time></trkpt><trkpt lat="41.74032069248343" lon="12.61691357605898"><ele>196.0</ele><time>2026-04-26T11:47:06Z</time></trkpt><trkpt lat="41.74017552807994" lon="12.616830287377534"><ele>195.75</ele><time>2026-04-26T11:47:07Z</time></trkpt><trkpt lat="41.74003727600947" lon="12.616760820158142"><ele>195.5</ele><time>2026-04-26T11:47:08Z</time></trkpt><trkpt lat="41.73990748318092" lon="12.616689503864905"><ele>195.25</ele><time>2026-04-26T11:47:09Z</time></trkpt><trkpt lat="41.73977750152779" lon="12.616622978052803"><ele>195.0</ele><time>2026-04-26T11:47:10Z</time></trkpt><trkpt lat="41.73964318868808" lon="12.616558666750961"><ele>195.0</ele><time>2026-04-26T11:47:11Z</time></trkpt><trkpt lat="41.739500350612346" lon="12.616496846550111"><ele>195.0</ele><time>2026-04-26T11:47:12Z</time></trkpt><trkpt lat="41.73936026978759" lon="12.616405741307846"><ele>195.0</ele><time>2026-04-26T11:47:12.999Z</time></trkpt><trkpt lat="41.73923629619075" lon="12.616348715757034"><ele>195.0</ele><time>2026-04-26T11:47:13.999Z</time></trkpt><trkpt lat="41.7391054976913" lon="12.616288460842602"><ele>195.33333333333331</ele><time>2026-04-26T11:47:14.999Z</time></trkpt><trkpt lat="41.738970198401134" lon="12.616226356876522"><ele>195.66666666666666</ele><time>2026-04-26T11:47:15.999Z</time></trkpt><trkpt lat="41.73881242563129" lon="12.616176561546459"><ele>196.0</ele><time>2026-04-26T11:47:16.999Z</time></trkpt><trkpt lat="41.73864963834766" lon="12.616097299200295"><ele>197.33333333333331</ele><time>2026-04-26T11:47:17.999Z</time></trkpt><trkpt lat="41.738498177351616" lon="12.616030593784517"><ele>198.66666666666669</ele><time>2026-04-26T11:47:18.999Z</time></trkpt><trkpt lat="41.73833729164852" lon="12.615977567889146"><ele>200.0</ele><time>2026-04-26T11:47:19.999Z</time></trkpt><trkpt lat="41.73816799860293" lon="12.615928299783334"><ele>200.0</ele><time>2026-04-26T11:47:20.999Z</time></trkpt><trkpt lat="41.7379844306883" lon="12.615890438754045"><ele>200.0</ele><time>2026-04-26T11:47:21.999Z</time></trkpt><trkpt lat="41.737794096918684" lon="12.61585856173523"><ele>200.0</ele><time>2026-04-26T11:47:22.999Z</time></trkpt><trkpt lat="41.737595627158335" lon="12.615832727606712"><ele>200.66666666666669</ele><time>2026-04-26T11:47:23.999Z</time></trkpt><trkpt lat="41.73739070144642" lon="12.615821141646288"><ele>201.33333333333331</ele><time>2026-04-26T11:47:24.999Z</time></trkpt><trkpt lat="41.73718304725287" lon="12.615822661204534"><ele>202.0</ele><time>2026-04-26T11:47:25.999Z</time></trkpt><trkpt lat="41.73699280302133" lon="12.615839845873563"><ele>202.66666666666666</ele><time>2026-04-26T11:47:26.999Z</time></trkpt><trkpt lat="41.73679402072121" lon="12.615870531980034"><ele>203.33333333333331</ele><time>2026-04-26T11:47:27.999Z</time></trkpt><trkpt lat="41.73658983264" lon="12.61591968985488"><ele>204.0</ele><time>2026-04-26T11:47:28.999Z</time></trkpt><trkpt lat="41.736378497611575" lon="12.6159757610439"><ele>204.0</ele><time>2026-04-26T11:47:29.999Z</time></trkpt><trkpt lat="41.736159232138135" lon="12.616041364690364"><ele>204.0</ele><time>2026-04-26T11:47:30.999Z</time></trkpt><trkpt lat="41.73595281606872" lon="12.616098490124804"><ele>204.0</ele><time>2026-04-26T11:47:31.999Z</time></trkpt><trkpt lat="41.73575990012173" lon="12.616147368762288"><ele>203.66666666666669</ele><time>2026-04-26T11:47:32.999Z</time></trkpt><trkpt lat="41.735578241919626" lon="12.616192678252016"><ele>203.33333333333334</ele><time>2026-04-26T11:47:33.999Z</time></trkpt><trkpt lat="41.73540095118669" lon="12.61624039684809"><ele>203.0</ele><time>2026-04-26T11:47:34.999Z</time></trkpt><trkpt lat="41.73522244839663" lon="12.616292069761839"><ele>201.33333333333334</ele><time>2026-04-26T11:47:35.999Z</time></trkpt><trkpt lat="41.73503704708275" lon="12.616340710390404"><ele>199.66666666666669</ele><time>2026-04-26T11:47:36.999Z</time></trkpt><trkpt lat="41.73484924639532" lon="12.616395051645164"><ele>198.0</ele><time>2026-04-26T11:47:37.999Z</time></trkpt><trkpt lat="41.73465127160323" lon="12.616453559661094"><ele>198.0</ele><time>2026-04-26T11:47:38.999Z</time></trkpt><trkpt lat="41.73444331198919" lon="12.61652147276435"><ele>198.0</ele><time>2026-04-26T11:47:39.999Z</time></trkpt><trkpt lat="41.73423021969623" lon="12.616582032335216"><ele>198.0</ele><time>2026-04-26T11:47:40.999Z</time></trkpt><trkpt lat="41.73403690854597" lon="12.616633712807884"><ele>197.66666666666669</ele><time>2026-04-26T11:47:41.999Z</time></trkpt><trkpt lat="41.73384912294903" lon="12.616680826600884"><ele>197.33333333333334</ele><time>2026-04-26T11:47:42.999Z</time></trkpt><trkpt lat="41.73367642889134" lon="12.616730883222559"><ele>197.0</ele><time>2026-04-26T11:47:43.999Z</time></trkpt><trkpt lat="41.73351081192423" lon="12.616776787565646"><ele>197.0</ele><time>2026-04-26T11:47:44.999Z</time></trkpt><trkpt lat="41.7333459528904" lon="12.616818119466194"><ele>197.0</ele><time>2026-04-26T11:47:45.999Z</time></trkpt><trkpt lat="41.73317589721648" lon="12.616860621859137"><ele>197.0</ele><time>2026-04-26T11:47:46.999Z</time></trkpt><trkpt lat="41.73298586384576" lon="12.616840513296268"><ele>197.0</ele><time>2026-04-26T11:47:47.999Z</time></trkpt><trkpt lat="41.73279160732581" lon="12.616803324024794"><ele>197.0</ele><time>2026-04-26T11:47:48.999Z</time></trkpt><trkpt lat="41.7326060367952" lon="12.616742561160244"><ele>197.0</ele><time>2026-04-26T11:47:49.999Z</time></trkpt><trkpt lat="41.73240395389301" lon="12.616698701578308"><ele>196.66666666666669</ele><time>2026-04-26T11:47:50.999Z</time></trkpt><trkpt lat="41.73218997909684" lon="12.616635696813463"><ele>196.33333333333331</ele><time>2026-04-26T11:47:51.999Z</time></trkpt><trkpt lat="41.731973352512625" lon="12.616565019741433"><ele>196.0</ele><time>2026-04-26T11:47:52.999Z</time></trkpt><trkpt lat="41.73175734420196" lon="12.616501480489296"><ele>198.33333333333331</ele><time>2026-04-26T11:47:53.999Z</time></trkpt><trkpt lat="41.73156549663494" lon="12.616447820356589"><ele>200.66666666666669</ele><time>2026-04-26T11:47:54.999Z</time></trkpt><trkpt lat="41.73137246558075" lon="12.616402135519781"><ele>203.0</ele><time>2026-04-26T11:47:55.999Z</time></trkpt><trkpt lat="41.73117549328232" lon="12.616383757712702"><ele>203.33333333333334</ele><time>2026-04-26T11:47:56.999Z</time></trkpt><trkpt lat="41.730975547172335" lon="12.616383112657589"><ele>203.66666666666669</ele><time>2026-04-26T11:47:57.999Z</time></trkpt><trkpt lat="41.73076691297198" lon="12.616408126251187"><ele>204.0</ele><time>2026-04-26T11:47:58.999Z</time></trkpt><trkpt lat="41.73054324952365" lon="12.616452981403148"><ele>204.0</ele><time>2026-04-26T11:47:59.999Z</time></trkpt><trkpt lat="41.73030741773217" lon="12.61646037827214"><ele>204.0</ele><time>2026-04-26T11:48:00.999Z</time></trkpt><trkpt lat="41.730059322999345" lon="12.61648693205636"><ele>202.5</ele><time>2026-04-26T11:48:01.999Z</time></trkpt><trkpt lat="41.72982200813247" lon="12.616507875977335"><ele>201.0</ele><time>2026-04-26T11:48:02.999Z</time></trkpt><trkpt lat="41.72960556000099" lon="12.616543505394796"><ele>199.66666666666669</ele><time>2026-04-26T11:48:03.999Z</time></trkpt><trkpt lat="41.7293851450335" lon="12.616550335654393"><ele>198.33333333333334</ele><time>2026-04-26T11:48:04.999Z</time></trkpt><trkpt lat="41.72916128705573" lon="12.61656896335265"><ele>197.0</ele><time>2026-04-26T11:48:05.999Z</time></trkpt><trkpt lat="41.728934708441386" lon="12.61660453340341"><ele>197.0</ele><time>2026-04-26T11:48:06.999Z</time></trkpt><trkpt lat="41.728720871827214" lon="12.616647837447193"><ele>197.0</ele><time>2026-04-26T11:48:07.999Z</time></trkpt><trkpt lat="41.7285102774855" lon="12.616699595693527"><ele>197.0</ele><time>2026-04-26T11:48:08.999Z</time></trkpt><trkpt lat="41.72829670301549" lon="12.616755832453158"><ele>195.5</ele><time>2026-04-26T11:48:09.999Z</time></trkpt><trkpt lat="41.72807785846169" lon="12.616833672606875"><ele>194.0</ele><time>2026-04-26T11:48:10.999Z</time></trkpt><trkpt lat="41.7278633392818" lon="12.616918867402324"><ele>195.33333333333334</ele><time>2026-04-26T11:48:11.999Z</time></trkpt><trkpt lat="41.72766727680579" lon="12.617000307625764"><ele>196.66666666666669</ele><time>2026-04-26T11:48:12.999Z</time></trkpt><trkpt lat="41.72747862211487" lon="12.617080963436491"><ele>198.0</ele><time>2026-04-26T11:48:13.999Z</time></trkpt><trkpt lat="41.727288762958146" lon="12.617172507037798"><ele>198.0</ele><time>2026-04-26T11:48:14.998Z</time></trkpt><trkpt lat="41.72709571480293" lon="12.617266994624785"><ele>198.0</ele><time>2026-04-26T11:48:15.998Z</time></trkpt><trkpt lat="41.72690154018023" lon="12.61735802158173"><ele>198.0</ele><time>2026-04-26T11:48:16.998Z</time></trkpt><trkpt lat="41.726699827861395" lon="12.61745204229258"><ele>198.66666666666669</ele><time>2026-04-26T11:48:17.998Z</time></trkpt><trkpt lat="41.72651727312993" lon="12.61754217309865"><ele>199.33333333333334</ele><time>2026-04-26T11:48:18.998Z</time></trkpt><trkpt lat="41.72635401964276" lon="12.617621047702485"><ele>200.0</ele><time>2026-04-26T11:48:19.998Z</time></trkpt><trkpt lat="41.72619543778121" lon="12.617692392030655"><ele>199.66666666666669</ele><time>2026-04-26T11:48:20.998Z</time></trkpt><trkpt lat="41.72603266330498" lon="12.617762796543536"><ele>199.33333333333331</ele><time>2026-04-26T11:48:21.998Z</time></trkpt><trkpt lat="41.72586203455334" lon="12.617837524972481"><ele>199.0</ele><time>2026-04-26T11:48:22.998Z</time></trkpt><trkpt lat="41.725688359048426" lon="12.617912715781095"><ele>199.0</ele><time>2026-04-26T11:48:23.998Z</time></trkpt><trkpt lat="41.72551397584065" lon="12.617984232766497"><ele>199.0</ele><time>2026-04-26T11:48:24.998Z</time></trkpt><trkpt lat="41.72534921043469" lon="12.618065637359303"><ele>199.0</ele><time>2026-04-26T11:48:26Z</time></trkpt><trkpt lat="41.72518491290798" lon="12.618153399883866"><ele>199.0</ele><time>2026-04-26T11:48:27Z</time></trkpt><trkpt lat="41.7250163971243" lon="12.618251873758377"><ele>199.0</ele><time>2026-04-26T11:48:28Z</time></trkpt><trkpt lat="41.72483155599542" lon="12.618343506240908"><ele>199.0</ele><time>2026-04-26T11:48:29Z</time></trkpt><trkpt lat="41.72463601836468" lon="12.618433368858424"><ele>199.0</ele><time>2026-04-26T11:48:30Z</time></trkpt><trkpt lat="41.72444726845193" lon="12.618520377769773"><ele>199.0</ele><time>2026-04-26T11:48:31Z</time></trkpt><trkpt lat="41.72427040286526" lon="12.618586679217856"><ele>199.0</ele><time>2026-04-26T11:48:32Z</time></trkpt><trkpt lat="41.72410314618158" lon="12.618658636067156"><ele>201.33333333333331</ele><time>2026-04-26T11:48:33Z</time></trkpt><trkpt lat="41.723946113034316" lon="12.618737144427323"><ele>203.66666666666669</ele><time>2026-04-26T11:48:34Z</time></trkpt><trkpt lat="41.723781555252216" lon="12.618833843080667"><ele>206.0</ele><time>2026-04-26T11:48:35Z</time></trkpt><trkpt lat="41.72361174739823" lon="12.618953765162281"><ele>204.66666666666669</ele><time>2026-04-26T11:48:36Z</time></trkpt><trkpt lat="41.72343304964472" lon="12.619088174211292"><ele>203.33333333333331</ele><time>2026-04-26T11:48:37Z</time></trkpt><trkpt lat="41.723237227571296" lon="12.619220590197513"><ele>202.0</ele><time>2026-04-26T11:48:38Z</time></trkpt><trkpt lat="41.72303931039149" lon="12.619371013409575"><ele>201.5</ele><time>2026-04-26T11:48:39Z</time></trkpt><trkpt lat="41.722839358241295" lon="12.619522983263364"><ele>201.0</ele><time>2026-04-26T11:48:40Z</time></trkpt><trkpt lat="41.72263983132074" lon="12.619707963197259"><ele>200.5</ele><time>2026-04-26T11:48:41Z</time></trkpt><trkpt lat="41.72243872826934" lon="12.619873670337604"><ele>200.0</ele><time>2026-04-26T11:48:42Z</time></trkpt><trkpt lat="41.72225266272484" lon="12.620038081951048"><ele>200.0</ele><time>2026-04-26T11:48:43Z</time></trkpt><trkpt lat="41.722068294449095" lon="12.620196095491565"><ele>200.0</ele><time>2026-04-26T11:48:44Z</time></trkpt><trkpt lat="41.721878156461806" lon="12.620356100612225"><ele>200.0</ele><time>2026-04-26T11:48:45Z</time></trkpt><trkpt lat="41.721683753256436" lon="12.620520412022962"><ele>199.33333333333334</ele><time>2026-04-26T11:48:46Z</time></trkpt><trkpt lat="41.721491638391356" lon="12.620675405694692"><ele>198.66666666666669</ele><time>2026-04-26T11:48:47Z</time></trkpt><trkpt lat="41.7213117619966" lon="12.620824143072852"><ele>198.0</ele><time>2026-04-26T11:48:48Z</time></trkpt><trkpt lat="41.72112902303154" lon="12.620970264549788"><ele>198.0</ele><time>2026-04-26T11:48:49Z</time></trkpt><trkpt lat="41.72094448248568" lon="12.621118362224907"><ele>198.0</ele><time>2026-04-26T11:48:50Z</time></trkpt><trkpt lat="41.720759511874626" lon="12.62126197147663"><ele>198.0</ele><time>2026-04-26T11:48:51Z</time></trkpt><trkpt lat="41.72056229959654" lon="12.621402468053095"><ele>199.5</ele><time>2026-04-26T11:48:52Z</time></trkpt><trkpt lat="41.72035952094887" lon="12.621535456693346"><ele>201.0</ele><time>2026-04-26T11:48:53Z</time></trkpt><trkpt lat="41.720156569718306" lon="12.62166610626102"><ele>201.33333333333331</ele><time>2026-04-26T11:48:54Z</time></trkpt><trkpt lat="41.719970238148434" lon="12.621781374549036"><ele>201.66666666666666</ele><time>2026-04-26T11:48:55Z</time></trkpt><trkpt lat="41.719793399972836" lon="12.62189919559935"><ele>202.0</ele><time>2026-04-26T11:48:56Z</time></trkpt><trkpt lat="41.71961840693396" lon="12.622008136761524"><ele>202.66666666666666</ele><time>2026-04-26T11:48:57Z</time></trkpt><trkpt lat="41.71944292803142" lon="12.622117050571267"><ele>203.33333333333331</ele><time>2026-04-26T11:48:58Z</time></trkpt><trkpt lat="41.71926591089913" lon="12.622231264511415"><ele>204.0</ele><time>2026-04-26T11:48:59Z</time></trkpt><trkpt lat="41.71909341003051" lon="12.622348280076368"><ele>204.0</ele><time>2026-04-26T11:49:00Z</time></trkpt><trkpt lat="41.718933873781985" lon="12.622462706982624"><ele>204.0</ele><time>2026-04-26T11:49:01Z</time></trkpt><trkpt lat="41.71879235864592" lon="12.622584526878375"><ele>204.0</ele><time>2026-04-26T11:49:02Z</time></trkpt><trkpt lat="41.71867532723089" lon="12.622719697096016"><ele>204.0</ele><time>2026-04-26T11:49:03Z</time></trkpt><trkpt lat="41.7185719090457" lon="12.622867451411743"><ele>204.0</ele><time>2026-04-26T11:49:04Z</time></trkpt><trkpt lat="41.71848152258805" lon="12.623006547421683"><ele>204.0</ele><time>2026-04-26T11:49:05Z</time></trkpt><trkpt lat="41.71840094737112" lon="12.623128619066524"><ele>204.0</ele><time>2026-04-26T11:49:06Z</time></trkpt><trkpt lat="41.718326171650325" lon="12.623226425188262"><ele>204.16666666666666</ele><time>2026-04-26T11:49:07Z</time></trkpt><trkpt lat="41.71825410182858" lon="12.623297416658028"><ele>204.33333333333331</ele><time>2026-04-26T11:49:08Z</time></trkpt><trkpt lat="41.7181831616901" lon="12.623320352461873"><ele>204.5</ele><time>2026-04-26T11:49:09Z</time></trkpt><trkpt lat="41.718103654336076" lon="12.623317683655909"><ele>204.66666666666666</ele><time>2026-04-26T11:49:10Z</time></trkpt><trkpt lat="41.71802521676947" lon="12.623320701604097"><ele>204.83333333333331</ele><time>2026-04-26T11:49:11Z</time></trkpt><trkpt lat="41.71795864300503" lon="12.623373959510864"><ele>205.0</ele><time>2026-04-26T11:49:12Z</time></trkpt><trkpt lat="41.717918247860666" lon="12.623471245157358"><ele>205.0</ele><time>2026-04-26T11:49:13Z</time></trkpt><trkpt lat="41.717915806945015" lon="12.62358735734703"><ele>205.0</ele><time>2026-04-26T11:49:14Z</time></trkpt><trkpt lat="41.71794016690008" lon="12.623702890543955"><ele>205.0</ele><time>2026-04-26T11:49:15Z</time></trkpt><trkpt lat="41.71798156153797" lon="12.62381108169197"><ele>205.0</ele><time>2026-04-26T11:49:16Z</time></trkpt><trkpt lat="41.71802303108633" lon="12.623925538575351"><ele>205.0</ele><time>2026-04-26T11:49:17Z</time></trkpt><trkpt lat="41.71803978010463" lon="12.624063394602294"><ele>205.5</ele><time>2026-04-26T11:49:18Z</time></trkpt><trkpt lat="41.718020627148924" lon="12.624222255044335"><ele>206.0</ele><time>2026-04-26T11:49:19Z</time></trkpt><trkpt lat="41.71797125909701" lon="12.624393134144704"><ele>206.5</ele><time>2026-04-26T11:49:19.999Z</time></trkpt><trkpt lat="41.717903104354264" lon="12.624557178951791"><ele>207.0</ele><time>2026-04-26T11:49:20.999Z</time></trkpt><trkpt lat="41.71782081505004" lon="12.62473997352861"><ele>207.33333333333331</ele><time>2026-04-26T11:49:21.999Z</time></trkpt><trkpt lat="41.717741290137056" lon="12.62494545687208"><ele>207.66666666666666</ele><time>2026-04-26T11:49:22.999Z</time></trkpt><trkpt lat="41.71766711179074" lon="12.625146158816948"><ele>208.0</ele><time>2026-04-26T11:49:23.999Z</time></trkpt><trkpt lat="41.71759296567284" lon="12.62535133884598"><ele>209.33333333333331</ele><time>2026-04-26T11:49:24.999Z</time></trkpt><trkpt lat="41.717510265324805" lon="12.6255628032602"><ele>210.66666666666669</ele><time>2026-04-26T11:49:25.999Z</time></trkpt><trkpt lat="41.717421224655766" lon="12.62578924307663"><ele>212.0</ele><time>2026-04-26T11:49:26.999Z</time></trkpt><trkpt lat="41.71732551219319" lon="12.626034172410105"><ele>214.0</ele><time>2026-04-26T11:49:27.999Z</time></trkpt><trkpt lat="41.717233534283594" lon="12.626276094256246"><ele>216.0</ele><time>2026-04-26T11:49:28.999Z</time></trkpt><trkpt lat="41.71715411583172" lon="12.626503201977707"><ele>218.0</ele><time>2026-04-26T11:49:29.999Z</time></trkpt><trkpt lat="41.71706775211091" lon="12.626722363933485"><ele>218.0</ele><time>2026-04-26T11:49:30.999Z</time></trkpt><trkpt lat="41.71698106770821" lon="12.626942890010604"><ele>218.0</ele><time>2026-04-26T11:49:31.999Z</time></trkpt><trkpt lat="41.71689722523267" lon="12.627165601063941"><ele>218.0</ele><time>2026-04-26T11:49:32.999Z</time></trkpt><trkpt lat="41.71681037400024" lon="12.627388259964226"><ele>219.66666666666669</ele><time>2026-04-26T11:49:33.999Z</time></trkpt><trkpt lat="41.71672186381995" lon="12.627608983450598"><ele>221.33333333333331</ele><time>2026-04-26T11:49:34.999Z</time></trkpt><trkpt lat="41.71663476824754" lon="12.627831352008196"><ele>223.0</ele><time>2026-04-26T11:49:35.999Z</time></trkpt><trkpt lat="41.71654842398575" lon="12.628046544162343"><ele>224.33333333333331</ele><time>2026-04-26T11:49:36.999Z</time></trkpt><trkpt lat="41.71646037172485" lon="12.628233302004695"><ele>225.66666666666669</ele><time>2026-04-26T11:49:37.999Z</time></trkpt><trkpt lat="41.71635610345803" lon="12.628419655588477"><ele>227.0</ele><time>2026-04-26T11:49:38.999Z</time></trkpt><trkpt lat="41.71624661475815" lon="12.628593923339857"><ele>227.33333333333334</ele><time>2026-04-26T11:49:39.999Z</time></trkpt><trkpt lat="41.7161456020028" lon="12.62876192113971"><ele>227.66666666666669</ele><time>2026-04-26T11:49:40.999Z</time></trkpt><trkpt lat="41.716040671118535" lon="12.628935219480057"><ele>228.0</ele><time>2026-04-26T11:49:41.999Z</time></trkpt><trkpt lat="41.71593039947661" lon="12.629096097199476"><ele>228.0</ele><time>2026-04-26T11:49:42.999Z</time></trkpt><trkpt lat="41.715827822185545" lon="12.629243816812883"><ele>228.0</ele><time>2026-04-26T11:49:43.999Z</time></trkpt><trkpt lat="41.7157395907594" lon="12.629386277303983"><ele>228.0</ele><time>2026-04-26T11:49:44.999Z</time></trkpt><trkpt lat="41.7156499026932" lon="12.629518334548761"><ele>228.0</ele><time>2026-04-26T11:49:45.999Z</time></trkpt><trkpt lat="41.71556085849082" lon="12.629641971341377"><ele>227.5</ele><time>2026-04-26T11:49:46.999Z</time></trkpt><trkpt lat="41.71547196080696" lon="12.629750854964572"><ele>227.0</ele><time>2026-04-26T11:49:47.999Z</time></trkpt><trkpt lat="41.71537500216503" lon="12.629878222016785"><ele>226.5</ele><time>2026-04-26T11:49:48.999Z</time></trkpt><trkpt lat="41.715285057440035" lon="12.629998284226929"><ele>226.0</ele><time>2026-04-26T11:49:49.999Z</time></trkpt><trkpt lat="41.71521747871845" lon="12.630100536876583"><ele>225.33333333333331</ele><time>2026-04-26T11:49:50.999Z</time></trkpt><trkpt lat="41.71516314734707" lon="12.63018472585753"><ele>224.66666666666666</ele><time>2026-04-26T11:49:51.999Z</time></trkpt><trkpt lat="41.71511512308204" lon="12.630256387336928"><ele>224.0</ele><time>2026-04-26T11:49:52.999Z</time></trkpt><trkpt lat="41.71507048136374" lon="12.630322360266922"><ele>223.33333333333331</ele><time>2026-04-26T11:49:53.999Z</time></trkpt><trkpt lat="41.71497824836627" lon="12.630370339356158"><ele>222.66666666666666</ele><time>2026-04-26T11:49:55.999Z</time></trkpt><trkpt lat="41.71486442291516" lon="12.630383415292505"><ele>222.0</ele><time>2026-04-26T11:49:58.999Z</time></trkpt><trkpt lat="41.71479938243559" lon="12.630417124175434"><ele>221.6</ele><time>2026-04-26T11:49:59.999Z</time></trkpt><trkpt lat="41.71475617021743" lon="12.630492142992887"><ele>221.2</ele><time>2026-04-26T11:50:00.999Z</time></trkpt><trkpt lat="41.71474383277233" lon="12.630607971787468"><ele>220.8</ele><time>2026-04-26T11:50:01.999Z</time></trkpt><trkpt lat="41.714733301753384" lon="12.63073618574951"><ele>220.4</ele><time>2026-04-26T11:50:02.999Z</time></trkpt><trkpt lat="41.714685985319534" lon="12.630869359944754"><ele>220.0</ele><time>2026-04-26T11:50:03.999Z</time></trkpt><trkpt lat="41.71460606770672" lon="12.631006994415952"><ele>220.33333333333331</ele><time>2026-04-26T11:50:04.999Z</time></trkpt><trkpt lat="41.714496268799586" lon="12.631147055644925"><ele>220.66666666666669</ele><time>2026-04-26T11:50:05.999Z</time></trkpt><trkpt lat="41.71438444367375" lon="12.631289478640571"><ele>221.0</ele><time>2026-04-26T11:50:06.999Z</time></trkpt><trkpt lat="41.71426774056372" lon="12.631459180873941"><ele>221.66666666666669</ele><time>2026-04-26T11:50:07.999Z</time></trkpt><trkpt lat="41.714151506732556" lon="12.631638426275957"><ele>222.33333333333331</ele><time>2026-04-26T11:50:08.999Z</time></trkpt><trkpt lat="41.71402897917235" lon="12.631806062412547"><ele>223.0</ele><time>2026-04-26T11:50:09.999Z</time></trkpt><trkpt lat="41.71390014240777" lon="12.631973306109177"><ele>223.0</ele><time>2026-04-26T11:50:10.999Z</time></trkpt><trkpt lat="41.71376217322314" lon="12.632161498634968"><ele>223.0</ele><time>2026-04-26T11:50:11.999Z</time></trkpt><trkpt lat="41.713636551930435" lon="12.63234798333432"><ele>223.0</ele><time>2026-04-26T11:50:12.999Z</time></trkpt><trkpt lat="41.713523180686224" lon="12.632515380980172"><ele>222.5</ele><time>2026-04-26T11:50:13.999Z</time></trkpt><trkpt lat="41.71341958694138" lon="12.632668080198789"><ele>222.0</ele><time>2026-04-26T11:50:14.999Z</time></trkpt><trkpt lat="41.71332454546917" lon="12.632809257341322"><ele>221.5</ele><time>2026-04-26T11:50:15.999Z</time></trkpt><trkpt lat="41.71323173318602" lon="12.632928910101237"><ele>221.0</ele><time>2026-04-26T11:50:16.999Z</time></trkpt><trkpt lat="41.71313650222074" lon="12.633020834464944"><ele>222.25</ele><time>2026-04-26T11:50:17.999Z</time></trkpt><trkpt lat="41.7130454483108" lon="12.633111005021426"><ele>223.5</ele><time>2026-04-26T11:50:18.999Z</time></trkpt><trkpt lat="41.712974670770905" lon="12.633248086923553"><ele>224.75</ele><time>2026-04-26T11:50:19.999Z</time></trkpt><trkpt lat="41.71289933974413" lon="12.633418946950755"><ele>226.0</ele><time>2026-04-26T11:50:20.998Z</time></trkpt><trkpt lat="41.71280948109079" lon="12.63358196416872"><ele>226.66666666666666</ele><time>2026-04-26T11:50:21.998Z</time></trkpt><trkpt lat="41.71269623566307" lon="12.633746693681928"><ele>227.33333333333331</ele><time>2026-04-26T11:50:22.998Z</time></trkpt><trkpt lat="41.71258013377771" lon="12.633918764078608"><ele>228.0</ele><time>2026-04-26T11:50:23.998Z</time></trkpt><trkpt lat="41.712472766464224" lon="12.634083799639859"><ele>228.0</ele><time>2026-04-26T11:50:24.998Z</time></trkpt><trkpt lat="41.71235971478626" lon="12.634252453356003"><ele>228.0</ele><time>2026-04-26T11:50:25.998Z</time></trkpt><trkpt lat="41.71223339111334" lon="12.634422619832858"><ele>228.0</ele><time>2026-04-26T11:50:26.998Z</time></trkpt><trkpt lat="41.71209185599282" lon="12.634587346033241"><ele>229.0</ele><time>2026-04-26T11:50:27.998Z</time></trkpt><trkpt lat="41.71194141912257" lon="12.634751468033627"><ele>230.0</ele><time>2026-04-26T11:50:28.998Z</time></trkpt><trkpt lat="41.71178125438986" lon="12.634932413946027"><ele>231.0</ele><time>2026-04-26T11:50:29.998Z</time></trkpt><trkpt lat="41.71160704540263" lon="12.63509643605219"><ele>231.66666666666669</ele><time>2026-04-26T11:50:31Z</time></trkpt><trkpt lat="41.71145702782304" lon="12.635255023508503"><ele>232.33333333333334</ele><time>2026-04-26T11:50:32Z</time></trkpt><trkpt lat="41.711331455148304" lon="12.635389618811546"><ele>233.0</ele><time>2026-04-26T11:50:33Z</time></trkpt><trkpt lat="41.71125143519376" lon="12.635503090015694"><ele>233.4</ele><time>2026-04-26T11:50:34Z</time></trkpt><trkpt lat="41.71118236157453" lon="12.6355747753255"><ele>233.8</ele><time>2026-04-26T11:50:35Z</time></trkpt><trkpt lat="41.71112035928706" lon="12.63563719671419"><ele>234.2</ele><time>2026-04-26T11:50:36Z</time></trkpt><trkpt lat="41.71105436586839" lon="12.635713806720078"><ele>234.6</ele><time>2026-04-26T11:50:37Z</time></trkpt><trkpt lat="41.71096931684009" lon="12.635809441974658"><ele>235.0</ele><time>2026-04-26T11:50:38Z</time></trkpt><trkpt lat="41.71087267685162" lon="12.635924222219328"><ele>235.0</ele><time>2026-04-26T11:50:39Z</time></trkpt><trkpt lat="41.71076389032831" lon="12.636042188513185"><ele>235.0</ele><time>2026-04-26T11:50:40Z</time></trkpt><trkpt lat="41.71064909621762" lon="12.636174521379532"><ele>235.0</ele><time>2026-04-26T11:50:41Z</time></trkpt><trkpt lat="41.71052542778219" lon="12.636332437476101"><ele>235.33333333333331</ele><time>2026-04-26T11:50:42Z</time></trkpt><trkpt lat="41.71040243512991" lon="12.636494742061153"><ele>235.66666666666669</ele><time>2026-04-26T11:50:43Z</time></trkpt><trkpt lat="41.71028115625948" lon="12.636653565488015"><ele>236.0</ele><time>2026-04-26T11:50:44Z</time></trkpt><trkpt lat="41.710155944388376" lon="12.636819737393282"><ele>236.0</ele><time>2026-04-26T11:50:45Z</time></trkpt><trkpt lat="41.71004048594162" lon="12.636997900117686"><ele>236.0</ele><time>2026-04-26T11:50:46Z</time></trkpt><trkpt lat="41.70994559469696" lon="12.637167530582824"><ele>236.0</ele><time>2026-04-26T11:50:47Z</time></trkpt><trkpt lat="41.70986071251495" lon="12.637337256843967"><ele>236.0</ele><time>2026-04-26T11:50:48Z</time></trkpt><trkpt lat="41.709784214813375" lon="12.637509392365974"><ele>236.0</ele><time>2026-04-26T11:50:49Z</time></trkpt><trkpt lat="41.709714485477875" lon="12.637702097487123"><ele>236.0</ele><time>2026-04-26T11:50:50Z</time></trkpt><trkpt lat="41.709656953794465" lon="12.637917621717651"><ele>236.0</ele><time>2026-04-26T11:50:51Z</time></trkpt><trkpt lat="41.70960278240853" lon="12.63813282770236"><ele>236.0</ele><time>2026-04-26T11:50:52Z</time></trkpt><trkpt lat="41.709554293377494" lon="12.638331035291882"><ele>236.0</ele><time>2026-04-26T11:50:53Z</time></trkpt><trkpt lat="41.70950895737968" lon="12.638516255729066"><ele>236.5</ele><time>2026-04-26T11:50:54Z</time></trkpt><trkpt lat="41.70946647749568" lon="12.638690849943002"><ele>237.0</ele><time>2026-04-26T11:50:55Z</time></trkpt><trkpt lat="41.70942111104898" lon="12.638849935402465"><ele>237.5</ele><time>2026-04-26T11:50:56Z</time></trkpt><trkpt lat="41.70937079615704" lon="12.63897890194176"><ele>238.0</ele><time>2026-04-26T11:50:57Z</time></trkpt><trkpt lat="41.70930780329781" lon="12.63906489617374"><ele>236.60000000000002</ele><time>2026-04-26T11:50:58Z</time></trkpt><trkpt lat="41.70922816325612" lon="12.639112669467254"><ele>235.20000000000002</ele><time>2026-04-26T11:50:59Z</time></trkpt><trkpt lat="41.7091268266515" lon="12.639100828066343"><ele>233.8</ele><time>2026-04-26T11:51:00Z</time></trkpt><trkpt lat="41.70903341859839" lon="12.639082925636684"><ele>232.4</ele><time>2026-04-26T11:51:01Z</time></trkpt><trkpt lat="41.70893998645968" lon="12.639135203154677"><ele>231.0</ele><time>2026-04-26T11:51:02Z</time></trkpt><trkpt lat="41.70886930111807" lon="12.639244775811521"><ele>231.0</ele><time>2026-04-26T11:51:03Z</time></trkpt><trkpt lat="41.70883369197521" lon="12.63937894282116"><ele>231.0</ele><time>2026-04-26T11:51:04Z</time></trkpt><trkpt lat="41.7088490081263" lon="12.639536235943769"><ele>231.0</ele><time>2026-04-26T11:51:05Z</time></trkpt><trkpt lat="41.708774968206114" lon="12.639699469480444"><ele>231.0</ele><time>2026-04-26T11:51:06Z</time></trkpt><trkpt lat="41.70871036438486" lon="12.639861870282072"><ele>232.33333333333331</ele><time>2026-04-26T11:51:07Z</time></trkpt><trkpt lat="41.70861391946874" lon="12.640015255249494"><ele>233.66666666666666</ele><time>2026-04-26T11:51:08Z</time></trkpt><trkpt lat="41.70850033205362" lon="12.640164378012694"><ele>235.0</ele><time>2026-04-26T11:51:09Z</time></trkpt><trkpt lat="41.708358371192915" lon="12.64028303677314"><ele>236.66666666666666</ele><time>2026-04-26T11:51:10Z</time></trkpt><trkpt lat="41.708229553899805" lon="12.640415017932023"><ele>238.33333333333331</ele><time>2026-04-26T11:51:11Z</time></trkpt><trkpt lat="41.708089035988074" lon="12.64055016020905"><ele>240.0</ele><time>2026-04-26T11:51:12Z</time></trkpt><trkpt lat="41.70792577063333" lon="12.640686257448142"><ele>240.0</ele><time>2026-04-26T11:51:13Z</time></trkpt><trkpt lat="41.70777413045221" lon="12.640828108428877"><ele>240.0</ele><time>2026-04-26T11:51:14Z</time></trkpt><trkpt lat="41.70763402612969" lon="12.640956988648473"><ele>240.0</ele><time>2026-04-26T11:51:15Z</time></trkpt><trkpt lat="41.70749854105079" lon="12.64108865930944"><ele>242.0</ele><time>2026-04-26T11:51:16Z</time></trkpt><trkpt lat="41.707373315527185" lon="12.641241909824576"><ele>244.0</ele><time>2026-04-26T11:51:17Z</time></trkpt><trkpt lat="41.70723842259181" lon="12.641386397723622"><ele>246.0</ele><time>2026-04-26T11:51:18Z</time></trkpt><trkpt lat="41.70711442297213" lon="12.641575520721387"><ele>246.0</ele><time>2026-04-26T11:51:19Z</time></trkpt><trkpt lat="41.70697473613641" lon="12.641746819945144"><ele>246.0</ele><time>2026-04-26T11:51:20Z</time></trkpt><trkpt lat="41.70684835687462" lon="12.641914489223437"><ele>246.0</ele><time>2026-04-26T11:51:21Z</time></trkpt><trkpt lat="41.706722792083106" lon="12.642051304119345"><ele>245.66666666666669</ele><time>2026-04-26T11:51:22Z</time></trkpt><trkpt lat="41.706608292983354" lon="12.642184918986954"><ele>245.33333333333334</ele><time>2026-04-26T11:51:23Z</time></trkpt><trkpt lat="41.706458582126395" lon="12.64227419593682"><ele>245.0</ele><time>2026-04-26T11:51:24Z</time></trkpt><trkpt lat="41.70631362124753" lon="12.642393060745395"><ele>245.0</ele><time>2026-04-26T11:51:24.999Z</time></trkpt><trkpt lat="41.70614898567397" lon="12.642484952659359"><ele>245.0</ele><time>2026-04-26T11:51:25.999Z</time></trkpt><trkpt lat="41.70598413624382" lon="12.6425824722237"><ele>245.0</ele><time>2026-04-26T11:51:26.999Z</time></trkpt><trkpt lat="41.70581915333412" lon="12.642696690239069"><ele>246.66666666666669</ele><time>2026-04-26T11:51:27.999Z</time></trkpt><trkpt lat="41.70565272304848" lon="12.642801411575308"><ele>248.33333333333331</ele><time>2026-04-26T11:51:28.999Z</time></trkpt><trkpt lat="41.7055035783051" lon="12.642900115012644"><ele>250.0</ele><time>2026-04-26T11:51:29.999Z</time></trkpt><trkpt lat="41.70535744952361" lon="12.642993474238093"><ele>250.33333333333331</ele><time>2026-04-26T11:51:30.999Z</time></trkpt><trkpt lat="41.70520589302021" lon="12.643090095158245"><ele>250.66666666666669</ele><time>2026-04-26T11:51:31.999Z</time></trkpt><trkpt lat="41.70505895120352" lon="12.643197132575281"><ele>251.0</ele><time>2026-04-26T11:51:32.999Z</time></trkpt><trkpt lat="41.70491624552556" lon="12.643334175095287"><ele>251.0</ele><time>2026-04-26T11:51:33.999Z</time></trkpt><trkpt lat="41.70477636921956" lon="12.643498051130809"><ele>251.0</ele><time>2026-04-26T11:51:34.999Z</time></trkpt><trkpt lat="41.70465678039795" lon="12.643690613643633"><ele>251.0</ele><time>2026-04-26T11:51:35.999Z</time></trkpt><trkpt lat="41.70455440473781" lon="12.643879491819021"><ele>251.0</ele><time>2026-04-26T11:51:36.999Z</time></trkpt><trkpt lat="41.70444798493333" lon="12.644047936121714"><ele>251.0</ele><time>2026-04-26T11:51:37.999Z</time></trkpt><trkpt lat="41.704345422707306" lon="12.644210539402957"><ele>251.0</ele><time>2026-04-26T11:51:38.999Z</time></trkpt><trkpt lat="41.704242854584706" lon="12.644362846782021"><ele>251.25</ele><time>2026-04-26T11:51:39.999Z</time></trkpt><trkpt lat="41.70414087973315" lon="12.64449504955733"><ele>251.5</ele><time>2026-04-26T11:51:40.999Z</time></trkpt><trkpt lat="41.704028937865054" lon="12.644626682626217"><ele>251.75</ele><time>2026-04-26T11:51:41.999Z</time></trkpt><trkpt lat="41.7039073696707" lon="12.644762171829836"><ele>252.0</ele><time>2026-04-26T11:51:42.999Z</time></trkpt><trkpt lat="41.70377484168332" lon="12.644911146198138"><ele>252.0</ele><time>2026-04-26T11:51:43.999Z</time></trkpt><trkpt lat="41.70364338148397" lon="12.645071098883761"><ele>252.0</ele><time>2026-04-26T11:51:44.999Z</time></trkpt><trkpt lat="41.70350574680446" lon="12.645252661864518"><ele>252.0</ele><time>2026-04-26T11:51:45.999Z</time></trkpt><trkpt lat="41.70335963657646" lon="12.64542846759282"><ele>252.0</ele><time>2026-04-26T11:51:46.999Z</time></trkpt><trkpt lat="41.703208201140136" lon="12.645606559344541"><ele>252.0</ele><time>2026-04-26T11:51:47.999Z</time></trkpt><trkpt lat="41.70304845462002" lon="12.64579545723246"><ele>252.0</ele><time>2026-04-26T11:51:48.999Z</time></trkpt><trkpt lat="41.70290426215812" lon="12.645983429153715"><ele>253.0</ele><time>2026-04-26T11:51:49.999Z</time></trkpt><trkpt lat="41.70276931044912" lon="12.646169324683909"><ele>254.0</ele><time>2026-04-26T11:51:50.999Z</time></trkpt><trkpt lat="41.70262953324432" lon="12.646358993848622"><ele>255.0</ele><time>2026-04-26T11:51:51.999Z</time></trkpt><trkpt lat="41.70249204766192" lon="12.646544677998136"><ele>253.66666666666669</ele><time>2026-04-26T11:51:52.999Z</time></trkpt><trkpt lat="41.702350565411685" lon="12.646737320543638"><ele>252.33333333333334</ele><time>2026-04-26T11:51:53.999Z</time></trkpt><trkpt lat="41.702214669857916" lon="12.646920532863398"><ele>251.0</ele><time>2026-04-26T11:51:54.999Z</time></trkpt><trkpt lat="41.702090852309404" lon="12.647084582831065"><ele>251.0</ele><time>2026-04-26T11:51:55.999Z</time></trkpt><trkpt lat="41.70198438862942" lon="12.647218948980923"><ele>251.00000000000003</ele><time>2026-04-26T11:51:56.999Z</time></trkpt><trkpt lat="41.70189232234283" lon="12.64732701354482"><ele>251.00000000000003</ele><time>2026-04-26T11:51:57.999Z</time></trkpt><trkpt lat="41.70181951420141" lon="12.647402517437632"><ele>251.0</ele><time>2026-04-26T11:51:58.999Z</time></trkpt><trkpt lat="41.70175646777812" lon="12.647452973760913"><ele>251.0</ele><time>2026-04-26T11:51:59.999Z</time></trkpt><trkpt lat="41.701660662088244" lon="12.647490839637369"><ele>250.25</ele><time>2026-04-26T11:52:01.999Z</time></trkpt><trkpt lat="41.701543123836885" lon="12.647523117922637"><ele>249.5</ele><time>2026-04-26T11:52:04.999Z</time></trkpt><trkpt lat="41.70143570281249" lon="12.647535090568992"><ele>248.75</ele><time>2026-04-26T11:52:05.999Z</time></trkpt><trkpt lat="41.701305767512835" lon="12.647544041502345"><ele>248.0</ele><time>2026-04-26T11:52:06.999Z</time></trkpt><trkpt lat="41.701175393676415" lon="12.647529687559514"><ele>248.33333333333334</ele><time>2026-04-26T11:52:07.999Z</time></trkpt><trkpt lat="41.70103504973618" lon="12.647481256385657"><ele>248.66666666666669</ele><time>2026-04-26T11:52:08.999Z</time></trkpt><trkpt lat="41.70088462989334" lon="12.647414674230145"><ele>249.0</ele><time>2026-04-26T11:52:09.999Z</time></trkpt><trkpt lat="41.70072053735663" lon="12.647331690615287"><ele>249.0</ele><time>2026-04-26T11:52:10.999Z</time></trkpt><trkpt lat="41.70054444225476" lon="12.647270125362796"><ele>249.0</ele><time>2026-04-26T11:52:11.999Z</time></trkpt><trkpt lat="41.70035880335709" lon="12.647225273514927"><ele>249.0</ele><time>2026-04-26T11:52:12.999Z</time></trkpt><trkpt lat="41.70017475801826" lon="12.647205859220074"><ele>249.33333333333331</ele><time>2026-04-26T11:52:13.999Z</time></trkpt><trkpt lat="41.69999387341095" lon="12.647219602323187"><ele>249.66666666666666</ele><time>2026-04-26T11:52:14.999Z</time></trkpt><trkpt lat="41.69981858764585" lon="12.64724727031883"><ele>250.0</ele><time>2026-04-26T11:52:15.999Z</time></trkpt><trkpt lat="41.69965306331197" lon="12.647290445132803"><ele>250.0</ele><time>2026-04-26T11:52:16.999Z</time></trkpt><trkpt lat="41.699490167604885" lon="12.647338682013515"><ele>250.0</ele><time>2026-04-26T11:52:17.999Z</time></trkpt><trkpt lat="41.69932855041556" lon="12.647397451452438"><ele>250.0</ele><time>2026-04-26T11:52:18.999Z</time></trkpt><trkpt lat="41.69916871220759" lon="12.647472177617091"><ele>249.0</ele><time>2026-04-26T11:52:19.999Z</time></trkpt><trkpt lat="41.69900936062776" lon="12.64755791006297"><ele>248.0</ele><time>2026-04-26T11:52:20.999Z</time></trkpt><trkpt lat="41.69886018372869" lon="12.647662053900168"><ele>247.0</ele><time>2026-04-26T11:52:21.999Z</time></trkpt><trkpt lat="41.69872972239994" lon="12.647782996723654"><ele>248.33333333333331</ele><time>2026-04-26T11:52:22.999Z</time></trkpt><trkpt lat="41.69860126948537" lon="12.647917886786326"><ele>249.66666666666669</ele><time>2026-04-26T11:52:23.998Z</time></trkpt><trkpt lat="41.69846409565759" lon="12.648053884529746"><ele>251.0</ele><time>2026-04-26T11:52:24.998Z</time></trkpt><trkpt lat="41.69833639826157" lon="12.648188454570434"><ele>249.33333333333334</ele><time>2026-04-26T11:52:25.998Z</time></trkpt><trkpt lat="41.69820327836403" lon="12.648345592085693"><ele>247.66666666666669</ele><time>2026-04-26T11:52:26.998Z</time></trkpt><trkpt lat="41.69805729626362" lon="12.648490006213887"><ele>246.0</ele><time>2026-04-26T11:52:27.998Z</time></trkpt><trkpt lat="41.69789796618011" lon="12.648642122526692"><ele>241.0</ele><time>2026-04-26T11:52:28.998Z</time></trkpt><trkpt lat="41.69773611870019" lon="12.648798016992282"><ele>236.0</ele><time>2026-04-26T11:52:29.998Z</time></trkpt><trkpt lat="41.69758451997051" lon="12.648947817419268"><ele>231.0</ele><time>2026-04-26T11:52:30.998Z</time></trkpt><trkpt lat="41.69744097687599" lon="12.649102487543894"><ele>231.0</ele><time>2026-04-26T11:52:31.998Z</time></trkpt><trkpt lat="41.697299388122865" lon="12.64924766505153"><ele>231.0</ele><time>2026-04-26T11:52:32.998Z</time></trkpt><trkpt lat="41.697153816586344" lon="12.649390570775127"><ele>231.0</ele><time>2026-04-26T11:52:33.998Z</time></trkpt><trkpt lat="41.69701342256521" lon="12.649519826275425"><ele>232.0</ele><time>2026-04-26T11:52:34.998Z</time></trkpt><trkpt lat="41.696869117333385" lon="12.649610036666171"><ele>233.0</ele><time>2026-04-26T11:52:35.998Z</time></trkpt><trkpt lat="41.6967154013513" lon="12.649661327249653"><ele>234.0</ele><time>2026-04-26T11:52:37Z</time></trkpt><trkpt lat="41.696561597332845" lon="12.649664660419571"><ele>234.0</ele><time>2026-04-26T11:52:38Z</time></trkpt><trkpt lat="41.69643247537008" lon="12.649639146676382"><ele>233.99999999999997</ele><time>2026-04-26T11:52:39Z</time></trkpt><trkpt lat="41.696332076781864" lon="12.649589830140878"><ele>233.99999999999997</ele><time>2026-04-26T11:52:40Z</time></trkpt><trkpt lat="41.696241783875585" lon="12.64955198145402"><ele>234.0</ele><time>2026-04-26T11:52:41Z</time></trkpt><trkpt lat="41.69616291599025" lon="12.64952247205602"><ele>234.0</ele><time>2026-04-26T11:52:42Z</time></trkpt><trkpt lat="41.696099704211605" lon="12.649489692054354"><ele>233.0</ele><time>2026-04-26T11:52:43Z</time></trkpt><trkpt lat="41.69600180988652" lon="12.649438714336224"><ele>231.99999999999997</ele><time>2026-04-26T11:52:45Z</time></trkpt><trkpt lat="41.69593273095817" lon="12.649408775483726"><ele>230.99999999999997</ele><time>2026-04-26T11:52:46Z</time></trkpt><trkpt lat="41.69584460731946" lon="12.649367208654006"><ele>230.0</ele><time>2026-04-26T11:52:47Z</time></trkpt><trkpt lat="41.695734318134335" lon="12.64931384991939"><ele>229.0</ele><time>2026-04-26T11:52:48Z</time></trkpt><trkpt lat="41.69561000512691" lon="12.649253831608918"><ele>229.0</ele><time>2026-04-26T11:52:49Z</time></trkpt><trkpt lat="41.69550013036187" lon="12.649212403713767"><ele>228.99999999999997</ele><time>2026-04-26T11:52:50Z</time></trkpt><trkpt lat="41.69540168632369" lon="12.64917050422829"><ele>228.99999999999997</ele><time>2026-04-26T11:52:51Z</time></trkpt><trkpt lat="41.69531459892357" lon="12.649116937719599"><ele>229.0</ele><time>2026-04-26T11:52:52Z</time></trkpt><trkpt lat="41.69523787932939" lon="12.649051445444778"><ele>229.0</ele><time>2026-04-26T11:52:53Z</time></trkpt><trkpt lat="41.69515616612864" lon="12.648973019303575"><ele>229.39999999999998</ele><time>2026-04-26T11:52:54Z</time></trkpt><trkpt lat="41.69507134249728" lon="12.648891250170394"><ele>229.79999999999998</ele><time>2026-04-26T11:52:55Z</time></trkpt><trkpt lat="41.69498849078404" lon="12.648809677356486"><ele>230.20000000000002</ele><time>2026-04-26T11:52:56Z</time></trkpt><trkpt lat="41.69490654647435" lon="12.648732151402905"><ele>230.60000000000002</ele><time>2026-04-26T11:52:57Z</time></trkpt><trkpt lat="41.69481937270963" lon="12.648649057632495"><ele>231.0</ele><time>2026-04-26T11:52:58Z</time></trkpt><trkpt lat="41.694724946884094" lon="12.648574491361353"><ele>229.5</ele><time>2026-04-26T11:52:59Z</time></trkpt><trkpt lat="41.69461604884968" lon="12.648513574733418"><ele>228.0</ele><time>2026-04-26T11:53:00Z</time></trkpt><trkpt lat="41.694493371380915" lon="12.648469037078632"><ele>226.5</ele><time>2026-04-26T11:53:01Z</time></trkpt><trkpt lat="41.69434909398589" lon="12.648431272107262"><ele>225.0</ele><time>2026-04-26T11:53:02Z</time></trkpt><trkpt lat="41.69422069670651" lon="12.648395582080784"><ele>224.75</ele><time>2026-04-26T11:53:03Z</time></trkpt><trkpt lat="41.694095825456934" lon="12.64836221895185"><ele>224.5</ele><time>2026-04-26T11:53:04Z</time></trkpt><trkpt lat="41.69396584475175" lon="12.648346046560016"><ele>224.25</ele><time>2026-04-26T11:53:05Z</time></trkpt><trkpt lat="41.69383287457426" lon="12.648296238959176"><ele>224.0</ele><time>2026-04-26T11:53:06Z</time></trkpt><trkpt lat="41.693691166614094" lon="12.648260209192177"><ele>222.75</ele><time>2026-04-26T11:53:07Z</time></trkpt><trkpt lat="41.693560603319334" lon="12.648227054122104"><ele>221.5</ele><time>2026-04-26T11:53:08Z</time></trkpt><trkpt lat="41.693443373206726" lon="12.648196778026339"><ele>220.25</ele><time>2026-04-26T11:53:09Z</time></trkpt><trkpt lat="41.69333439847288" lon="12.648185536994601"><ele>219.0</ele><time>2026-04-26T11:53:10Z</time></trkpt><trkpt lat="41.69321317436381" lon="12.648164270816647"><ele>219.0</ele><time>2026-04-26T11:53:11Z</time></trkpt><trkpt lat="41.69307843175026" lon="12.648160957646008"><ele>219.0</ele><time>2026-04-26T11:53:12Z</time></trkpt><trkpt lat="41.692928973077684" lon="12.648208867420974"><ele>219.0</ele><time>2026-04-26T11:53:13Z</time></trkpt><trkpt lat="41.69278050437977" lon="12.648274653463986"><ele>219.0</ele><time>2026-04-26T11:53:14Z</time></trkpt><trkpt lat="41.69263708880837" lon="12.648338718419438"><ele>218.66666666666669</ele><time>2026-04-26T11:53:15Z</time></trkpt><trkpt lat="41.69248920808783" lon="12.648393284523571"><ele>218.33333333333334</ele><time>2026-04-26T11:53:16Z</time></trkpt><trkpt lat="41.692331175722956" lon="12.648454444114368"><ele>218.0</ele><time>2026-04-26T11:53:17Z</time></trkpt><trkpt lat="41.69218147976419" lon="12.648507434986874"><ele>218.0</ele><time>2026-04-26T11:53:18Z</time></trkpt><trkpt lat="41.69203279385065" lon="12.648547843794859"><ele>218.0</ele><time>2026-04-26T11:53:19Z</time></trkpt><trkpt lat="41.69187404443636" lon="12.648550274548645"><ele>218.0</ele><time>2026-04-26T11:53:20Z</time></trkpt><trkpt lat="41.69170490122022" lon="12.64852910005782"><ele>216.66666666666669</ele><time>2026-04-26T11:53:21Z</time></trkpt><trkpt lat="41.69152881970053" lon="12.648499919337377"><ele>215.33333333333331</ele><time>2026-04-26T11:53:22Z</time></trkpt><trkpt lat="41.69135599846312" lon="12.648470346535852"><ele>214.0</ele><time>2026-04-26T11:53:23Z</time></trkpt><trkpt lat="41.691195584875324" lon="12.648448733425022"><ele>213.33333333333331</ele><time>2026-04-26T11:53:24Z</time></trkpt><trkpt lat="41.69104251403909" lon="12.648423588018824"><ele>212.66666666666669</ele><time>2026-04-26T11:53:25Z</time></trkpt><trkpt lat="41.690887002977796" lon="12.648396660058763"><ele>212.0</ele><time>2026-04-26T11:53:26Z</time></trkpt><trkpt lat="41.690720750459846" lon="12.648369697808466"><ele>212.0</ele><time>2026-04-26T11:53:27Z</time></trkpt><trkpt lat="41.69055894531293" lon="12.648351314784065"><ele>212.0</ele><time>2026-04-26T11:53:27.999Z</time></trkpt><trkpt lat="41.69039201547466" lon="12.648337954019018"><ele>212.0</ele><time>2026-04-26T11:53:28.999Z</time></trkpt><trkpt lat="41.690231400502604" lon="12.648325581704004"><ele>210.33333333333334</ele><time>2026-04-26T11:53:29.999Z</time></trkpt><trkpt lat="41.69007085967354" lon="12.648307389415752"><ele>208.66666666666669</ele><time>2026-04-26T11:53:30.999Z</time></trkpt><trkpt lat="41.68991416108328" lon="12.648291812186953"><ele>207.0</ele><time>2026-04-26T11:53:31.999Z</time></trkpt><trkpt lat="41.689751250172726" lon="12.648280461931305"><ele>207.0</ele><time>2026-04-26T11:53:32.999Z</time></trkpt><trkpt lat="41.689585734036264" lon="12.648271009555897"><ele>207.0</ele><time>2026-04-26T11:53:33.999Z</time></trkpt><trkpt lat="41.68941875850554" lon="12.648256646625683"><ele>207.0</ele><time>2026-04-26T11:53:34.999Z</time></trkpt><trkpt lat="41.68925947167126" lon="12.648243956702686"><ele>206.25</ele><time>2026-04-26T11:53:35.999Z</time></trkpt><trkpt lat="41.68911230125941" lon="12.64824169168908"><ele>205.5</ele><time>2026-04-26T11:53:36.999Z</time></trkpt><trkpt lat="41.68897351582791" lon="12.648246519296297"><ele>204.75</ele><time>2026-04-26T11:53:37.999Z</time></trkpt><trkpt lat="41.68882727789198" lon="12.648245998780954"><ele>204.0</ele><time>2026-04-26T11:53:38.999Z</time></trkpt><trkpt lat="41.688687627626734" lon="12.648238824880822"><ele>203.0</ele><time>2026-04-26T11:53:39.999Z</time></trkpt><trkpt lat="41.688546649596425" lon="12.648234575057856"><ele>202.0</ele><time>2026-04-26T11:53:40.999Z</time></trkpt><trkpt lat="41.688401555177215" lon="12.648239400968615"><ele>201.0</ele><time>2026-04-26T11:53:41.999Z</time></trkpt><trkpt lat="41.68825129310119" lon="12.648256406324366"><ele>200.0</ele><time>2026-04-26T11:53:42.999Z</time></trkpt><trkpt lat="41.68809981344416" lon="12.648275654680816"><ele>200.0</ele><time>2026-04-26T11:53:43.999Z</time></trkpt><trkpt lat="41.68796067080571" lon="12.648278610652593"><ele>200.0</ele><time>2026-04-26T11:53:44.999Z</time></trkpt><trkpt lat="41.68782580740133" lon="12.648279383117746"><ele>200.0</ele><time>2026-04-26T11:53:45.999Z</time></trkpt><trkpt lat="41.68769048136503" lon="12.648285445425435"><ele>200.0</ele><time>2026-04-26T11:53:46.999Z</time></trkpt><trkpt lat="41.68754947013963" lon="12.648296685317433"><ele>199.66666666666669</ele><time>2026-04-26T11:53:47.999Z</time></trkpt><trkpt lat="41.68740842455858" lon="12.648342114311635"><ele>199.33333333333331</ele><time>2026-04-26T11:53:48.999Z</time></trkpt><trkpt lat="41.687263852624994" lon="12.648426020666083"><ele>199.0</ele><time>2026-04-26T11:53:49.999Z</time></trkpt><trkpt lat="41.687109493412855" lon="12.648541641065105"><ele>198.66666666666666</ele><time>2026-04-26T11:53:50.999Z</time></trkpt><trkpt lat="41.68693821362418" lon="12.648658726437937"><ele>198.33333333333331</ele><time>2026-04-26T11:53:51.999Z</time></trkpt><trkpt lat="41.68676977089002" lon="12.648766689814886"><ele>198.0</ele><time>2026-04-26T11:53:52.999Z</time></trkpt><trkpt lat="41.6866097499496" lon="12.648862042943456"><ele>196.33333333333331</ele><time>2026-04-26T11:53:53.999Z</time></trkpt><trkpt lat="41.68646127044928" lon="12.648959620821323"><ele>194.66666666666666</ele><time>2026-04-26T11:53:54.999Z</time></trkpt><trkpt lat="41.68631657810333" lon="12.649058957599964"><ele>193.0</ele><time>2026-04-26T11:53:55.999Z</time></trkpt><trkpt lat="41.68616842575542" lon="12.649152533475453"><ele>192.66666666666666</ele><time>2026-04-26T11:53:56.999Z</time></trkpt><trkpt lat="41.68601766692892" lon="12.649250346356077"><ele>192.33333333333331</ele><time>2026-04-26T11:53:57.999Z</time></trkpt><trkpt lat="41.685867261140274" lon="12.649350227335892"><ele>192.0</ele><time>2026-04-26T11:53:58.999Z</time></trkpt><trkpt lat="41.68572708844832" lon="12.649452219160237"><ele>191.66666666666666</ele><time>2026-04-26T11:53:59.999Z</time></trkpt><trkpt lat="41.68559192707843" lon="12.649568066911172"><ele>191.33333333333331</ele><time>2026-04-26T11:54:00.999Z</time></trkpt><trkpt lat="41.68545755200645" lon="12.649695084685789"><ele>191.0</ele><time>2026-04-26T11:54:01.999Z</time></trkpt><trkpt lat="41.68532533290546" lon="12.649828491157482"><ele>191.5</ele><time>2026-04-26T11:54:02.999Z</time></trkpt><trkpt lat="41.68520762192071" lon="12.64996277035491"><ele>192.0</ele><time>2026-04-26T11:54:03.999Z</time></trkpt><trkpt lat="41.6850984893799" lon="12.650087465947982"><ele>192.5</ele><time>2026-04-26T11:54:04.999Z</time></trkpt><trkpt lat="41.684990483421366" lon="12.650204313241781"><ele>193.0</ele><time>2026-04-26T11:54:05.999Z</time></trkpt><trkpt lat="41.68487895960364" lon="12.650320446961176"><ele>193.0</ele><time>2026-04-26T11:54:06.999Z</time></trkpt><trkpt lat="41.68476287102952" lon="12.650435246744228"><ele>193.0</ele><time>2026-04-26T11:54:07.999Z</time></trkpt><trkpt lat="41.68464431378181" lon="12.65054189700999"><ele>193.0</ele><time>2026-04-26T11:54:08.999Z</time></trkpt><trkpt lat="41.684526147285496" lon="12.650639181769492"><ele>193.0</ele><time>2026-04-26T11:54:09.999Z</time></trkpt><trkpt lat="41.68441238046798" lon="12.65073263563607"><ele>192.75</ele><time>2026-04-26T11:54:10.999Z</time></trkpt><trkpt lat="41.6843005131748" lon="12.650829682620323"><ele>192.5</ele><time>2026-04-26T11:54:11.999Z</time></trkpt><trkpt lat="41.68419322321233" lon="12.650920711855768"><ele>192.25</ele><time>2026-04-26T11:54:12.999Z</time></trkpt><trkpt lat="41.684084124093914" lon="12.65100466086651"><ele>192.0</ele><time>2026-04-26T11:54:13.999Z</time></trkpt><trkpt lat="41.683975604047625" lon="12.65109504236274"><ele>192.25</ele><time>2026-04-26T11:54:14.999Z</time></trkpt><trkpt lat="41.68387050565901" lon="12.65117986776784"><ele>192.5</ele><time>2026-04-26T11:54:15.999Z</time></trkpt><trkpt lat="41.683773727298586" lon="12.651254029926594"><ele>192.75</ele><time>2026-04-26T11:54:16.999Z</time></trkpt><trkpt lat="41.683670521733994" lon="12.651347030810081"><ele>193.0</ele><time>2026-04-26T11:54:17.999Z</time></trkpt><trkpt lat="41.683548730333854" lon="12.651459168400965"><ele>192.0</ele><time>2026-04-26T11:54:18.999Z</time></trkpt><trkpt lat="41.68339855886132" lon="12.651556233716272"><ele>191.0</ele><time>2026-04-26T11:54:19.999Z</time></trkpt><trkpt lat="41.68326005487648" lon="12.65169416826044"><ele>190.0</ele><time>2026-04-26T11:54:20.999Z</time></trkpt><trkpt lat="41.683121278630225" lon="12.651780769654046"><ele>190.0</ele><time>2026-04-26T11:54:21.999Z</time></trkpt><trkpt lat="41.682981228387355" lon="12.651872821480389"><ele>190.0</ele><time>2026-04-26T11:54:22.999Z</time></trkpt><trkpt lat="41.68283665153686" lon="12.651958313562831"><ele>190.0</ele><time>2026-04-26T11:54:23.999Z</time></trkpt><trkpt lat="41.682683068775454" lon="12.652014722811838"><ele>190.33333333333334</ele><time>2026-04-26T11:54:24.998Z</time></trkpt><trkpt lat="41.682534192361466" lon="12.652045879246366"><ele>190.66666666666666</ele><time>2026-04-26T11:54:25.998Z</time></trkpt><trkpt lat="41.68238126985961" lon="12.652048389526879"><ele>191.0</ele><time>2026-04-26T11:54:26.998Z</time></trkpt><trkpt lat="41.68223016020824" lon="12.652027695126554"><ele>191.0</ele><time>2026-04-26T11:54:27.998Z</time></trkpt><trkpt lat="41.68208753654565" lon="12.652009102241733"><ele>191.0</ele><time>2026-04-26T11:54:28.998Z</time></trkpt><trkpt lat="41.681932132071985" lon="12.651999493919686"><ele>191.0</ele><time>2026-04-26T11:54:29.998Z</time></trkpt><trkpt lat="41.681773696177984" lon="12.651979335509708"><ele>190.0</ele><time>2026-04-26T11:54:30.998Z</time></trkpt><trkpt lat="41.68160026792531" lon="12.651950039198875"><ele>189.0</ele><time>2026-04-26T11:54:31.998Z</time></trkpt><trkpt lat="41.68143113171779" lon="12.651921600071754"><ele>188.0</ele><time>2026-04-26T11:54:32.998Z</time></trkpt><trkpt lat="41.68128251897201" lon="12.651892149404214"><ele>188.0</ele><time>2026-04-26T11:54:33.998Z</time></trkpt><trkpt lat="41.68114326729612" lon="12.65186738945846"><ele>188.0</ele><time>2026-04-26T11:54:34.998Z</time></trkpt><trkpt lat="41.6809972771807" lon="12.651847628078581"><ele>188.0</ele><time>2026-04-26T11:54:35.998Z</time></trkpt><trkpt lat="41.68085287439451" lon="12.65182231168924"><ele>188.0</ele><time>2026-04-26T11:54:36.998Z</time></trkpt><trkpt lat="41.68070933858238" lon="12.651797889363674"><ele>188.75</ele><time>2026-04-26T11:54:37.998Z</time></trkpt><trkpt lat="41.68055247964279" lon="12.651774803485074"><ele>189.5</ele><time>2026-04-26T11:54:38.998Z</time></trkpt><trkpt lat="41.68040353320543" lon="12.651755135231182"><ele>190.25</ele><time>2026-04-26T11:54:39.998Z</time></trkpt><trkpt lat="41.68028267854605" lon="12.651728857825907"><ele>191.0</ele><time>2026-04-26T11:54:40.998Z</time></trkpt><trkpt lat="41.68017778192553" lon="12.651699395686528"><ele>192.0</ele><time>2026-04-26T11:54:41.998Z</time></trkpt><trkpt lat="41.68005263970834" lon="12.6516674259204"><ele>193.0</ele><time>2026-04-26T11:54:43Z</time></trkpt><trkpt lat="41.67990580939758" lon="12.651602554714618"><ele>194.0</ele><time>2026-04-26T11:54:44Z</time></trkpt><trkpt lat="41.67973992815838" lon="12.651544204251023"><ele>194.0</ele><time>2026-04-26T11:54:45Z</time></trkpt><trkpt lat="41.679575291638336" lon="12.651485234850398"><ele>194.0</ele><time>2026-04-26T11:54:46Z</time></trkpt><trkpt lat="41.67942722989713" lon="12.65143357447993"><ele>194.0</ele><time>2026-04-26T11:54:47Z</time></trkpt><trkpt lat="41.679297509751784" lon="12.651385613987536"><ele>193.6</ele><time>2026-04-26T11:54:48Z</time></trkpt><trkpt lat="41.679178773869246" lon="12.651338996568258"><ele>193.2</ele><time>2026-04-26T11:54:49Z</time></trkpt><trkpt lat="41.679080590600236" lon="12.651255915963416"><ele>192.79999999999998</ele><time>2026-04-26T11:54:50Z</time></trkpt><trkpt lat="41.6790000878666" lon="12.651160109661573"><ele>192.39999999999998</ele><time>2026-04-26T11:54:51Z</time></trkpt><trkpt lat="41.67893989552569" lon="12.65105702812246"><ele>192.0</ele><time>2026-04-26T11:54:52Z</time></trkpt><trkpt lat="41.678904998509076" lon="12.650940625533487"><ele>191.5</ele><time>2026-04-26T11:54:53Z</time></trkpt><trkpt lat="41.67886982582407" lon="12.650821507315577"><ele>191.0</ele><time>2026-04-26T11:54:54Z</time></trkpt><trkpt lat="41.678811622046446" lon="12.650745237746959"><ele>190.5</ele><time>2026-04-26T11:54:55Z</time></trkpt><trkpt lat="41.6787444901351" lon="12.650703665374555"><ele>190.0</ele><time>2026-04-26T11:54:56Z</time></trkpt><trkpt lat="41.67866495910596" lon="12.650700270005524"><ele>189.5</ele><time>2026-04-26T11:54:57Z</time></trkpt><trkpt lat="41.6785788047062" lon="12.650740048753349"><ele>189.0</ele><time>2026-04-26T11:54:58Z</time></trkpt><trkpt lat="41.67850311196519" lon="12.650815135660226"><ele>189.0</ele><time>2026-04-26T11:54:59Z</time></trkpt><trkpt lat="41.67842784820952" lon="12.650897969772572"><ele>189.0</ele><time>2026-04-26T11:55:00Z</time></trkpt><trkpt lat="41.67832141506174" lon="12.650963915443752"><ele>189.0</ele><time>2026-04-26T11:55:01Z</time></trkpt><trkpt lat="41.67821209406873" lon="12.651025817461784"><ele>189.0</ele><time>2026-04-26T11:55:02Z</time></trkpt><trkpt lat="41.67806195920162" lon="12.65097486024914"><ele>189.0</ele><time>2026-04-26T11:55:03Z</time></trkpt><trkpt lat="41.677933813203296" lon="12.650929824582187"><ele>189.0</ele><time>2026-04-26T11:55:04Z</time></trkpt><trkpt lat="41.67780463178019" lon="12.650877344260321"><ele>189.0</ele><time>2026-04-26T11:55:05Z</time></trkpt><trkpt lat="41.67765832857733" lon="12.650825852353563"><ele>189.0</ele><time>2026-04-26T11:55:06Z</time></trkpt><trkpt lat="41.67748829485785" lon="12.650773570286157"><ele>188.33333333333334</ele><time>2026-04-26T11:55:07Z</time></trkpt><trkpt lat="41.67731177183697" lon="12.650716640325497"><ele>187.66666666666669</ele><time>2026-04-26T11:55:08Z</time></trkpt><trkpt lat="41.67713813677134" lon="12.650651236830893"><ele>187.0</ele><time>2026-04-26T11:55:09Z</time></trkpt><trkpt lat="41.676956028122845" lon="12.65059157315304"><ele>186.66666666666669</ele><time>2026-04-26T11:55:10Z</time></trkpt><trkpt lat="41.676762046611856" lon="12.650551303804091"><ele>186.33333333333334</ele><time>2026-04-26T11:55:11Z</time></trkpt><trkpt lat="41.676554353388326" lon="12.650529229130651"><ele>186.0</ele><time>2026-04-26T11:55:12Z</time></trkpt><trkpt lat="41.676335048408944" lon="12.650501732834599"><ele>186.0</ele><time>2026-04-26T11:55:13Z</time></trkpt><trkpt lat="41.67611950592298" lon="12.650471953748905"><ele>186.0</ele><time>2026-04-26T11:55:14Z</time></trkpt><trkpt lat="41.67591832524702" lon="12.65043840127645"><ele>186.0</ele><time>2026-04-26T11:55:15Z</time></trkpt><trkpt lat="41.6757280894319" lon="12.650414852280546"><ele>184.66666666666666</ele><time>2026-04-26T11:55:16Z</time></trkpt><trkpt lat="41.67552337029552" lon="12.650402825970772"><ele>183.33333333333331</ele><time>2026-04-26T11:55:17Z</time></trkpt><trkpt lat="41.67530989411726" lon="12.65039295513965"><ele>182.0</ele><time>2026-04-26T11:55:18Z</time></trkpt><trkpt lat="41.67508897037838" lon="12.650376948079945"><ele>181.66666666666666</ele><time>2026-04-26T11:55:19Z</time></trkpt><trkpt lat="41.67486832300366" lon="12.650353536550657"><ele>181.33333333333334</ele><time>2026-04-26T11:55:20Z</time></trkpt><trkpt lat="41.674660452861126" lon="12.650336701160604"><ele>181.0</ele><time>2026-04-26T11:55:21Z</time></trkpt><trkpt lat="41.67445508152275" lon="12.650322745030552"><ele>180.66666666666669</ele><time>2026-04-26T11:55:22Z</time></trkpt><trkpt lat="41.674251377645845" lon="12.650313193208556"><ele>180.33333333333334</ele><time>2026-04-26T11:55:23Z</time></trkpt><trkpt lat="41.67404110147945" lon="12.650305723888245"><ele>180.0</ele><time>2026-04-26T11:55:24Z</time></trkpt><trkpt lat="41.673826595182156" lon="12.650294349146012"><ele>180.0</ele><time>2026-04-26T11:55:25Z</time></trkpt><trkpt lat="41.6736129233823" lon="12.650281289895247"><ele>180.0</ele><time>2026-04-26T11:55:25.999Z</time></trkpt><trkpt lat="41.67341009828087" lon="12.650286145756366"><ele>180.0</ele><time>2026-04-26T11:55:26.999Z</time></trkpt><trkpt lat="41.673206605209906" lon="12.650302928248449"><ele>180.0</ele><time>2026-04-26T11:55:27.999Z</time></trkpt><trkpt lat="41.67299807664085" lon="12.650334166371053"><ele>180.0</ele><time>2026-04-26T11:55:28.999Z</time></trkpt><trkpt lat="41.672785526722905" lon="12.650375354116132"><ele>180.0</ele><time>2026-04-26T11:55:29.999Z</time></trkpt><trkpt lat="41.67257085679788" lon="12.650420869686187"><ele>179.33333333333334</ele><time>2026-04-26T11:55:30.999Z</time></trkpt><trkpt lat="41.672364958170554" lon="12.650467419594333"><ele>178.66666666666669</ele><time>2026-04-26T11:55:31.999Z</time></trkpt><trkpt lat="41.67215985236823" lon="12.65051221292069"><ele>178.0</ele><time>2026-04-26T11:55:32.999Z</time></trkpt><trkpt lat="41.67194919863401" lon="12.65055547523462"><ele>177.33333333333334</ele><time>2026-04-26T11:55:33.999Z</time></trkpt><trkpt lat="41.67174092582013" lon="12.650601935444698"><ele>176.66666666666666</ele><time>2026-04-26T11:55:34.999Z</time></trkpt><trkpt lat="41.67154399643764" lon="12.650647700727282"><ele>176.0</ele><time>2026-04-26T11:55:35.999Z</time></trkpt><trkpt lat="41.67134886341541" lon="12.650690989743541"><ele>176.0</ele><time>2026-04-26T11:55:36.999Z</time></trkpt><trkpt lat="41.67116164030183" lon="12.650734393581999"><ele>176.0</ele><time>2026-04-26T11:55:37.999Z</time></trkpt><trkpt lat="41.67097984308791" lon="12.650778164177492"><ele>176.0</ele><time>2026-04-26T11:55:38.999Z</time></trkpt><trkpt lat="41.67079472223704" lon="12.65082669472515"><ele>175.0</ele><time>2026-04-26T11:55:39.999Z</time></trkpt><trkpt lat="41.670608512583335" lon="12.650877175288755"><ele>174.0</ele><time>2026-04-26T11:55:40.999Z</time></trkpt><trkpt lat="41.6704372511214" lon="12.650924313372228"><ele>173.0</ele><time>2026-04-26T11:55:41.999Z</time></trkpt><trkpt lat="41.670272246891486" lon="12.650964289317415"><ele>172.75</ele><time>2026-04-26T11:55:42.999Z</time></trkpt><trkpt lat="41.6701244539615" lon="12.650997545203797"><ele>172.5</ele><time>2026-04-26T11:55:43.999Z</time></trkpt><trkpt lat="41.66998560564577" lon="12.65104139503697"><ele>172.25</ele><time>2026-04-26T11:55:44.999Z</time></trkpt><trkpt lat="41.669852045217404" lon="12.651099022255194"><ele>172.0</ele><time>2026-04-26T11:55:45.999Z</time></trkpt><trkpt lat="41.66972137023471" lon="12.651193098586319"><ele>171.66666666666669</ele><time>2026-04-26T11:55:46.999Z</time></trkpt><trkpt lat="41.66960579308638" lon="12.651321240014823"><ele>171.33333333333334</ele><time>2026-04-26T11:55:47.999Z</time></trkpt><trkpt lat="41.669513082040226" lon="12.651482871222616"><ele>171.0</ele><time>2026-04-26T11:55:48.999Z</time></trkpt><trkpt lat="41.669424003676454" lon="12.651658937306921"><ele>170.75</ele><time>2026-04-26T11:55:49.999Z</time></trkpt><trkpt lat="41.669329341171476" lon="12.6518345178327"><ele>170.5</ele><time>2026-04-26T11:55:50.999Z</time></trkpt><trkpt lat="41.6692413274013" lon="12.651983707716141"><ele>170.25</ele><time>2026-04-26T11:55:51.999Z</time></trkpt><trkpt lat="41.669160849829126" lon="12.652108655774263"><ele>170.0</ele><time>2026-04-26T11:55:52.999Z</time></trkpt><trkpt lat="41.66909134136156" lon="12.652220562201325"><ele>168.75</ele><time>2026-04-26T11:55:53.999Z</time></trkpt><trkpt lat="41.66902707943795" lon="12.652331038064208"><ele>167.5</ele><time>2026-04-26T11:55:54.999Z</time></trkpt><trkpt lat="41.668946524689744" lon="12.652468707306685"><ele>166.25</ele><time>2026-04-26T11:55:55.999Z</time></trkpt><trkpt lat="41.668861686942314" lon="12.652615198012272"><ele>165.0</ele><time>2026-04-26T11:55:56.999Z</time></trkpt><trkpt lat="41.66876292551042" lon="12.652758882128547"><ele>164.25</ele><time>2026-04-26T11:55:57.999Z</time></trkpt><trkpt lat="41.66867216532896" lon="12.652881822704789"><ele>163.5</ele><time>2026-04-26T11:55:58.999Z</time></trkpt><trkpt lat="41.66857129105828" lon="12.652995472527888"><ele>162.75</ele><time>2026-04-26T11:55:59.999Z</time></trkpt><trkpt lat="41.668452318234294" lon="12.65309483509626"><ele>162.0</ele><time>2026-04-26T11:56:00.999Z</time></trkpt><trkpt lat="41.66832103828131" lon="12.653166507708"><ele>161.5</ele><time>2026-04-26T11:56:01.999Z</time></trkpt><trkpt lat="41.66818574476725" lon="12.653208477703496"><ele>161.0</ele><time>2026-04-26T11:56:02.999Z</time></trkpt><trkpt lat="41.66804659867905" lon="12.653235171906307"><ele>160.5</ele><time>2026-04-26T11:56:03.999Z</time></trkpt><trkpt lat="41.66790123669824" lon="12.653252184027815"><ele>160.0</ele><time>2026-04-26T11:56:04.999Z</time></trkpt><trkpt lat="41.66775083430798" lon="12.653262629873737"><ele>159.33333333333334</ele><time>2026-04-26T11:56:05.999Z</time></trkpt><trkpt lat="41.66759098660458" lon="12.653255163078441"><ele>158.66666666666666</ele><time>2026-04-26T11:56:06.999Z</time></trkpt><trkpt lat="41.66743064565789" lon="12.65322104840618"><ele>158.0</ele><time>2026-04-26T11:56:07.999Z</time></trkpt><trkpt lat="41.66726645440857" lon="12.653155430644256"><ele>158.0</ele><time>2026-04-26T11:56:08.999Z</time></trkpt><trkpt lat="41.66711805025606" lon="12.653097450830215"><ele>158.0</ele><time>2026-04-26T11:56:09.999Z</time></trkpt><trkpt lat="41.66698172499787" lon="12.653038668315935"><ele>158.0</ele><time>2026-04-26T11:56:10.999Z</time></trkpt><trkpt lat="41.66684461360262" lon="12.652971928966135"><ele>158.0</ele><time>2026-04-26T11:56:11.999Z</time></trkpt><trkpt lat="41.666694384540335" lon="12.65290741161502"><ele>158.0</ele><time>2026-04-26T11:56:12.999Z</time></trkpt><trkpt lat="41.66654222937265" lon="12.652836853775373"><ele>158.0</ele><time>2026-04-26T11:56:13.999Z</time></trkpt><trkpt lat="41.66637997693609" lon="12.652764378637176"><ele>158.0</ele><time>2026-04-26T11:56:14.999Z</time></trkpt><trkpt lat="41.666216492384464" lon="12.652697739411348"><ele>156.0</ele><time>2026-04-26T11:56:15.999Z</time></trkpt><trkpt lat="41.66603612310318" lon="12.652640490406888"><ele>154.0</ele><time>2026-04-26T11:56:16.999Z</time></trkpt><trkpt lat="41.665836336869866" lon="12.65259013649186"><ele>152.0</ele><time>2026-04-26T11:56:17.999Z</time></trkpt><trkpt lat="41.66561792090401" lon="12.652543216657065"><ele>152.0</ele><time>2026-04-26T11:56:18.999Z</time></trkpt><trkpt lat="41.66540204810051" lon="12.652493628605049"><ele>152.0</ele><time>2026-04-26T11:56:19.999Z</time></trkpt><trkpt lat="41.66521211108904" lon="12.652423214566285"><ele>152.0</ele><time>2026-04-26T11:56:20.998Z</time></trkpt><trkpt lat="41.66503499041518" lon="12.65239236011004"><ele>151.25</ele><time>2026-04-26T11:56:21.998Z</time></trkpt><trkpt lat="41.664876076906744" lon="12.652343427503794"><ele>150.5</ele><time>2026-04-26T11:56:22.998Z</time></trkpt><trkpt lat="41.66472673144234" lon="12.65230240343783"><ele>149.75</ele><time>2026-04-26T11:56:23.998Z</time></trkpt><trkpt lat="41.66459959549302" lon="12.652266836177967"><ele>149.0</ele><time>2026-04-26T11:56:24.998Z</time></trkpt><trkpt lat="41.664483445259926" lon="12.652230484819757"><ele>148.2</ele><time>2026-04-26T11:56:25.998Z</time></trkpt><trkpt lat="41.66437980900649" lon="12.65219907812012"><ele>147.4</ele><time>2026-04-26T11:56:26.998Z</time></trkpt><trkpt lat="41.664292375091144" lon="12.652150601759768"><ele>146.6</ele><time>2026-04-26T11:56:27.998Z</time></trkpt><trkpt lat="41.6642522504026" lon="12.652074486024569"><ele>145.8</ele><time>2026-04-26T11:56:28.998Z</time></trkpt><trkpt lat="41.66420927241945" lon="12.651928659449004"><ele>145.0</ele><time>2026-04-26T11:56:30.998Z</time></trkpt><trkpt lat="41.66422220600633" lon="12.65182034620493"><ele>145.0</ele><time>2026-04-26T11:56:31.998Z</time></trkpt><trkpt lat="41.66419478661015" lon="12.651661897186914"><ele>145.0</ele><time>2026-04-26T11:56:33.998Z</time></trkpt><trkpt lat="41.66417002955949" lon="12.651582233011833"><ele>145.0</ele><time>2026-04-26T11:56:34.998Z</time></trkpt><trkpt lat="41.66412792897159" lon="12.651516156728196"><ele>145.0</ele><time>2026-04-26T11:56:35.998Z</time></trkpt><trkpt lat="41.66406121665145" lon="12.651473890226983"><ele>145.0</ele><time>2026-04-26T11:56:36.998Z</time></trkpt><trkpt lat="41.66398143812735" lon="12.651453461287899"><ele>145.0</ele><time>2026-04-26T11:56:37.998Z</time></trkpt><trkpt lat="41.66389287677347" lon="12.651463691765162"><ele>145.0</ele><time>2026-04-26T11:56:38.998Z</time></trkpt><trkpt lat="41.66382245787662" lon="12.651524025668154"><ele>145.0</ele><time>2026-04-26T11:56:39.998Z</time></trkpt><trkpt lat="41.66377209565824" lon="12.651612809850617"><ele>145.0</ele><time>2026-04-26T11:56:40.998Z</time></trkpt><trkpt lat="41.66374787595275" lon="12.651721198245163"><ele>145.0</ele><time>2026-04-26T11:56:41.998Z</time></trkpt><trkpt lat="41.66375604253604" lon="12.651840427425041"><ele>145.0</ele><time>2026-04-26T11:56:42.998Z</time></trkpt><trkpt lat="41.66375822675216" lon="12.651947382565016"><ele>145.0</ele><time>2026-04-26T11:56:43.998Z</time></trkpt><trkpt lat="41.66371816576825" lon="12.652043624246739"><ele>145.0</ele><time>2026-04-26T11:56:44.998Z</time></trkpt><trkpt lat="41.663648275744784" lon="12.652126842737786"><ele>145.0</ele><time>2026-04-26T11:56:45.998Z</time></trkpt><trkpt lat="41.663539651286904" lon="12.652190499233422"><ele>145.0</ele><time>2026-04-26T11:56:46.998Z</time></trkpt><trkpt lat="41.66340608716129" lon="12.65220763019238"><ele>145.0</ele><time>2026-04-26T11:56:47.998Z</time></trkpt><trkpt lat="41.663250816247015" lon="12.652280140155638"><ele>143.66666666666669</ele><time>2026-04-26T11:56:49Z</time></trkpt><trkpt lat="41.66308494334271" lon="12.652343215979457"><ele>142.33333333333334</ele><time>2026-04-26T11:56:50Z</time></trkpt><trkpt lat="41.66291361991942" lon="12.652446646792704"><ele>141.0</ele><time>2026-04-26T11:56:51Z</time></trkpt><trkpt lat="41.66274532128431" lon="12.652579583254074"><ele>140.66666666666666</ele><time>2026-04-26T11:56:52Z</time></trkpt><trkpt lat="41.66256040389747" lon="12.652711315524643"><ele>140.33333333333331</ele><time>2026-04-26T11:56:53Z</time></trkpt><trkpt lat="41.66237779411545" lon="12.652823651640194"><ele>140.0</ele><time>2026-04-26T11:56:54Z</time></trkpt><trkpt lat="41.66221920663623" lon="12.652919828201844"><ele>140.0</ele><time>2026-04-26T11:56:55Z</time></trkpt><trkpt lat="41.662041676319156" lon="12.653006326522846"><ele>140.0</ele><time>2026-04-26T11:56:56Z</time></trkpt><trkpt lat="41.66184902149438" lon="12.653027579872148"><ele>140.0</ele><time>2026-04-26T11:56:57Z</time></trkpt><trkpt lat="41.661650043181126" lon="12.653065643053997"><ele>140.66666666666666</ele><time>2026-04-26T11:56:58Z</time></trkpt><trkpt lat="41.66144291528528" lon="12.653068113691866"><ele>141.33333333333334</ele><time>2026-04-26T11:56:59Z</time></trkpt><trkpt lat="41.66125340563554" lon="12.653082592457128"><ele>142.0</ele><time>2026-04-26T11:57:00Z</time></trkpt><trkpt lat="41.66106706771419" lon="12.653112304937139"><ele>143.0</ele><time>2026-04-26T11:57:01Z</time></trkpt><trkpt lat="41.66088210519559" lon="12.653142051016193"><ele>144.0</ele><time>2026-04-26T11:57:02Z</time></trkpt><trkpt lat="41.66069500938391" lon="12.653170149505714"><ele>145.0</ele><time>2026-04-26T11:57:03Z</time></trkpt><trkpt lat="41.66049966160828" lon="12.653210566222423"><ele>145.0</ele><time>2026-04-26T11:57:04Z</time></trkpt><trkpt lat="41.66029875133469" lon="12.65328464625243"><ele>145.0</ele><time>2026-04-26T11:57:05Z</time></trkpt><trkpt lat="41.66008942436819" lon="12.653350354342198"><ele>145.0</ele><time>2026-04-26T11:57:06Z</time></trkpt><trkpt lat="41.659871711258745" lon="12.653410801301984"><ele>145.33333333333334</ele><time>2026-04-26T11:57:07Z</time></trkpt><trkpt lat="41.65966678957972" lon="12.653467680661675"><ele>145.66666666666666</ele><time>2026-04-26T11:57:08Z</time></trkpt><trkpt lat="41.659485453091136" lon="12.653513704982604"><ele>146.0</ele><time>2026-04-26T11:57:09Z</time></trkpt><trkpt lat="41.659314867516365" lon="12.653556991342295"><ele>146.66666666666666</ele><time>2026-04-26T11:57:10Z</time></trkpt><trkpt lat="41.65915203530542" lon="12.65358115949511"><ele>147.33333333333334</ele><time>2026-04-26T11:57:11Z</time></trkpt><trkpt lat="41.65898360253331" lon="12.653582485517981"><ele>148.0</ele><time>2026-04-26T11:57:12Z</time></trkpt><trkpt lat="41.6588263405923" lon="12.653566773379074"><ele>148.0</ele><time>2026-04-26T11:57:13Z</time></trkpt><trkpt lat="41.658668709402285" lon="12.653542517295447"><ele>148.0</ele><time>2026-04-26T11:57:14Z</time></trkpt><trkpt lat="41.6585092275236" lon="12.653530117978379"><ele>148.0</ele><time>2026-04-26T11:57:15Z</time></trkpt><trkpt lat="41.65835634109379" lon="12.653528766259749"><ele>147.5</ele><time>2026-04-26T11:57:16Z</time></trkpt><trkpt lat="41.658207570977964" lon="12.653527587863707"><ele>147.0</ele><time>2026-04-26T11:57:17Z</time></trkpt><trkpt lat="41.65806155068766" lon="12.653518021860444"><ele>146.5</ele><time>2026-04-26T11:57:18Z</time></trkpt><trkpt lat="41.657920909101975" lon="12.65350282036111"><ele>146.0</ele><time>2026-04-26T11:57:19Z</time></trkpt><trkpt lat="41.65777556875686" lon="12.653508329625163"><ele>146.0</ele><time>2026-04-26T11:57:20Z</time></trkpt><trkpt lat="41.65762291356441" lon="12.653547360982458"><ele>146.0</ele><time>2026-04-26T11:57:21Z</time></trkpt><trkpt lat="41.65746909743149" lon="12.653602945406398"><ele>146.0</ele><time>2026-04-26T11:57:22Z</time></trkpt><trkpt lat="41.65732069457118" lon="12.653648245803316"><ele>145.33333333333331</ele><time>2026-04-26T11:57:23Z</time></trkpt><trkpt lat="41.65716198024295" lon="12.653686450916767"><ele>144.66666666666666</ele><time>2026-04-26T11:57:24Z</time></trkpt><trkpt lat="41.657002369980034" lon="12.653738009668544"><ele>144.0</ele><time>2026-04-26T11:57:24.999Z</time></trkpt><trkpt lat="41.65684507282697" lon="12.65378378325398"><ele>144.0</ele><time>2026-04-26T11:57:25.999Z</time></trkpt><trkpt lat="41.656687139770426" lon="12.653830686745854"><ele>144.0</ele><time>2026-04-26T11:57:26.999Z</time></trkpt><trkpt lat="41.65651110599269" lon="12.653890438801602"><ele>144.0</ele><time>2026-04-26T11:57:27.999Z</time></trkpt><trkpt lat="41.65633671692635" lon="12.65393850317155"><ele>144.0</ele><time>2026-04-26T11:57:28.999Z</time></trkpt><trkpt lat="41.65616119535507" lon="12.653960722179924"><ele>144.0</ele><time>2026-04-26T11:57:29.999Z</time></trkpt><trkpt lat="41.655960595782304" lon="12.65397841028604"><ele>144.0</ele><time>2026-04-26T11:57:30.999Z</time></trkpt><trkpt lat="41.65576126592981" lon="12.653952785976612"><ele>143.0</ele><time>2026-04-26T11:57:31.999Z</time></trkpt><trkpt lat="41.65554839460806" lon="12.653937086698013"><ele>142.0</ele><time>2026-04-26T11:57:32.999Z</time></trkpt><trkpt lat="41.65532210208264" lon="12.653922715970365"><ele>141.0</ele><time>2026-04-26T11:57:33.999Z</time></trkpt><trkpt lat="41.655090756301554" lon="12.653919789419975"><ele>141.0</ele><time>2026-04-26T11:57:34.999Z</time></trkpt><trkpt lat="41.65487463049817" lon="12.653881984637184"><ele>141.0</ele><time>2026-04-26T11:57:35.999Z</time></trkpt><trkpt lat="41.654675003788604" lon="12.653871091900815"><ele>141.0</ele><time>2026-04-26T11:57:36.999Z</time></trkpt><trkpt lat="41.65447975892617" lon="12.653860015093647"><ele>141.33333333333334</ele><time>2026-04-26T11:57:37.999Z</time></trkpt><trkpt lat="41.654286998954234" lon="12.65384968904275"><ele>141.66666666666669</ele><time>2026-04-26T11:57:38.999Z</time></trkpt><trkpt lat="41.65409436797258" lon="12.653856910798659"><ele>142.0</ele><time>2026-04-26T11:57:39.999Z</time></trkpt><trkpt lat="41.65389683560913" lon="12.653885642123214"><ele>142.0</ele><time>2026-04-26T11:57:40.999Z</time></trkpt><trkpt lat="41.6536926285149" lon="12.653953043958984"><ele>142.0</ele><time>2026-04-26T11:57:41.999Z</time></trkpt><trkpt lat="41.65349480074615" lon="12.654039660641793"><ele>142.0</ele><time>2026-04-26T11:57:42.999Z</time></trkpt><trkpt lat="41.653310999124734" lon="12.654127859040273"><ele>142.0</ele><time>2026-04-26T11:57:43.999Z</time></trkpt><trkpt lat="41.65312151417711" lon="12.654211545717644"><ele>142.0</ele><time>2026-04-26T11:57:44.999Z</time></trkpt><trkpt lat="41.6529231076653" lon="12.65429587178756"><ele>142.0</ele><time>2026-04-26T11:57:45.999Z</time></trkpt><trkpt lat="41.65271919629336" lon="12.654370855587631"><ele>142.0</ele><time>2026-04-26T11:57:46.999Z</time></trkpt><trkpt lat="41.652525997021954" lon="12.654432512961394"><ele>142.0</ele><time>2026-04-26T11:57:47.999Z</time></trkpt><trkpt lat="41.65233652286014" lon="12.65449575183885"><ele>142.0</ele><time>2026-04-26T11:57:48.999Z</time></trkpt><trkpt lat="41.652143653319094" lon="12.654570222900343"><ele>141.66666666666669</ele><time>2026-04-26T11:57:49.999Z</time></trkpt><trkpt lat="41.65194671135319" lon="12.654656629478247"><ele>141.33333333333334</ele><time>2026-04-26T11:57:50.999Z</time></trkpt><trkpt lat="41.65176609877436" lon="12.654751739821485"><ele>141.0</ele><time>2026-04-26T11:57:51.999Z</time></trkpt><trkpt lat="41.65159767754436" lon="12.654865852978304"><ele>141.0</ele><time>2026-04-26T11:57:52.999Z</time></trkpt><trkpt lat="41.651439693133064" lon="12.654988995563127"><ele>141.0</ele><time>2026-04-26T11:57:53.999Z</time></trkpt><trkpt lat="41.651300610556106" lon="12.655118324605859"><ele>141.0</ele><time>2026-04-26T11:57:54.999Z</time></trkpt><trkpt lat="41.65115837977908" lon="12.655253596982597"><ele>141.0</ele><time>2026-04-26T11:57:55.999Z</time></trkpt><trkpt lat="41.65101673202696" lon="12.655396298535555"><ele>141.0</ele><time>2026-04-26T11:57:56.999Z</time></trkpt><trkpt lat="41.6508743146269" lon="12.65556387106961"><ele>141.0</ele><time>2026-04-26T11:57:57.999Z</time></trkpt><trkpt lat="41.65072854988431" lon="12.655734662402795"><ele>141.0</ele><time>2026-04-26T11:57:58.999Z</time></trkpt><trkpt lat="41.650573212979765" lon="12.655901432421516"><ele>141.0</ele><time>2026-04-26T11:57:59.999Z</time></trkpt><trkpt lat="41.65041455817503" lon="12.656054240308295"><ele>141.0</ele><time>2026-04-26T11:58:00.999Z</time></trkpt><trkpt lat="41.65026429823026" lon="12.656191505453217"><ele>140.0</ele><time>2026-04-26T11:58:01.999Z</time></trkpt><trkpt lat="41.65012216318023" lon="12.656313800184666"><ele>139.0</ele><time>2026-04-26T11:58:02.999Z</time></trkpt><trkpt lat="41.6499819528516" lon="12.656425464124705"><ele>138.0</ele><time>2026-04-26T11:58:03.999Z</time></trkpt><trkpt lat="41.649848277734264" lon="12.656496432086577"><ele>138.0</ele><time>2026-04-26T11:58:04.999Z</time></trkpt><trkpt lat="41.649717777823916" lon="12.656544072397036"><ele>138.0</ele><time>2026-04-26T11:58:05.999Z</time></trkpt><trkpt lat="41.64959897670316" lon="12.656584986921162"><ele>138.0</ele><time>2026-04-26T11:58:06.999Z</time></trkpt><trkpt lat="41.6494933253148" lon="12.656621484680937"><ele>138.0</ele><time>2026-04-26T11:58:07.999Z</time></trkpt><trkpt lat="41.64939610194628" lon="12.656664535170385"><ele>138.0</ele><time>2026-04-26T11:58:08.999Z</time></trkpt><trkpt lat="41.64930628977877" lon="12.656703591807325"><ele>138.0</ele><time>2026-04-26T11:58:09.999Z</time></trkpt><trkpt lat="41.64922017207274" lon="12.656712606734205"><ele>138.0</ele><time>2026-04-26T11:58:10.999Z</time></trkpt><trkpt lat="41.64914813764622" lon="12.656677657523753"><ele>138.0</ele><time>2026-04-26T11:58:11.999Z</time></trkpt><trkpt lat="41.64908619989393" lon="12.656617912159803"><ele>138.0</ele><time>2026-04-26T11:58:12.999Z</time></trkpt><trkpt lat="41.64902304301619" lon="12.656588869929925"><ele>138.0</ele><time>2026-04-26T11:58:13.999Z</time></trkpt><trkpt lat="41.64896267955669" lon="12.65661569992433"><ele>138.0</ele><time>2026-04-26T11:58:14.999Z</time></trkpt><trkpt lat="41.648881625940795" lon="12.656727818540684"><ele>138.0</ele><time>2026-04-26T11:58:16.999Z</time></trkpt><trkpt lat="41.6488851077092" lon="12.65690681946997"><ele>138.0</ele><time>2026-04-26T11:58:18.999Z</time></trkpt><trkpt lat="41.64884769450438" lon="12.657006290051022"><ele>138.0</ele><time>2026-04-26T11:58:19.998Z</time></trkpt><trkpt lat="41.64875915114139" lon="12.657096754235882"><ele>138.0</ele><time>2026-04-26T11:58:20.998Z</time></trkpt><trkpt lat="41.6486588100471" lon="12.65715876306724"><ele>137.75</ele><time>2026-04-26T11:58:21.998Z</time></trkpt><trkpt lat="41.648548921270205" lon="12.657238114551902"><ele>137.5</ele><time>2026-04-26T11:58:22.998Z</time></trkpt><trkpt lat="41.64843264418172" lon="12.657350344541847"><ele>137.25</ele><time>2026-04-26T11:58:23.998Z</time></trkpt><trkpt lat="41.648313319019906" lon="12.657466503704208"><ele>137.0</ele><time>2026-04-26T11:58:24.998Z</time></trkpt><trkpt lat="41.648195851275275" lon="12.657581865336441"><ele>137.0</ele><time>2026-04-26T11:58:25.998Z</time></trkpt><trkpt lat="41.648072454180316" lon="12.657714824430851"><ele>137.0</ele><time>2026-04-26T11:58:26.998Z</time></trkpt><trkpt lat="41.64794967556738" lon="12.657836869441436"><ele>137.0</ele><time>2026-04-26T11:58:27.998Z</time></trkpt><trkpt lat="41.6478426906105" lon="12.657956655062348"><ele>137.0</ele><time>2026-04-26T11:58:28.998Z</time></trkpt><trkpt lat="41.64773822979416" lon="12.658077239957588"><ele>137.0</ele><time>2026-04-26T11:58:29.998Z</time></trkpt><trkpt lat="41.64762290443257" lon="12.6581973344881"><ele>137.0</ele><time>2026-04-26T11:58:30.998Z</time></trkpt><trkpt lat="41.64750332792111" lon="12.6583255467258"><ele>137.0</ele><time>2026-04-26T11:58:31.998Z</time></trkpt><trkpt lat="41.647381460231855" lon="12.658477114322423"><ele>137.66666666666666</ele><time>2026-04-26T11:58:32.998Z</time></trkpt><trkpt lat="41.647264580658245" lon="12.658638386360456"><ele>138.33333333333334</ele><time>2026-04-26T11:58:33.998Z</time></trkpt><trkpt lat="41.64715556591412" lon="12.658809068093058"><ele>139.0</ele><time>2026-04-26T11:58:34.998Z</time></trkpt><trkpt lat="41.64704422770085" lon="12.658986301095785"><ele>138.33333333333334</ele><time>2026-04-26T11:58:35.998Z</time></trkpt><trkpt lat="41.64692882729973" lon="12.65915291900503"><ele>137.66666666666666</ele><time>2026-04-26T11:58:36.998Z</time></trkpt><trkpt lat="41.646816571197554" lon="12.659317161148893"><ele>137.0</ele><time>2026-04-26T11:58:37.998Z</time></trkpt><trkpt lat="41.64670678552904" lon="12.659492086415629"><ele>137.0</ele><time>2026-04-26T11:58:38.998Z</time></trkpt><trkpt lat="41.64659832856081" lon="12.659688651086235"><ele>137.0</ele><time>2026-04-26T11:58:39.998Z</time></trkpt><trkpt lat="41.64647910069364" lon="12.659882375598949"><ele>137.0</ele><time>2026-04-26T11:58:40.998Z</time></trkpt><trkpt lat="41.646357353838" lon="12.660068005365163"><ele>137.0</ele><time>2026-04-26T11:58:41.998Z</time></trkpt><trkpt lat="41.64623584589741" lon="12.66022451355216"><ele>137.0</ele><time>2026-04-26T11:58:42.998Z</time></trkpt><trkpt lat="41.64611629123292" lon="12.660367324944628"><ele>137.0</ele><time>2026-04-26T11:58:43.998Z</time></trkpt><trkpt lat="41.64600787582306" lon="12.66050594420214"><ele>136.0</ele><time>2026-04-26T11:58:44.998Z</time></trkpt><trkpt lat="41.645905445465594" lon="12.66064115983915"><ele>135.0</ele><time>2026-04-26T11:58:45.998Z</time></trkpt><trkpt lat="41.64580751565615" lon="12.660772184095386"><ele>134.0</ele><time>2026-04-26T11:58:46.998Z</time></trkpt><trkpt lat="41.64571282137446" lon="12.66089513186027"><ele>133.0</ele><time>2026-04-26T11:58:47.998Z</time></trkpt><trkpt lat="41.645626861238426" lon="12.66100855408805"><ele>133.0</ele><time>2026-04-26T11:58:48.998Z</time></trkpt><trkpt lat="41.64554563296429" lon="12.661111990481157"><ele>133.0</ele><time>2026-04-26T11:58:49.998Z</time></trkpt><trkpt lat="41.64545822900732" lon="12.661188702443528"><ele>133.0</ele><time>2026-04-26T11:58:50.998Z</time></trkpt><trkpt lat="41.64537197650987" lon="12.661244478631435"><ele>133.0</ele><time>2026-04-26T11:58:51.998Z</time></trkpt><trkpt lat="41.645297790505055" lon="12.661330257407005"><ele>133.0</ele><time>2026-04-26T11:58:52.998Z</time></trkpt><trkpt lat="41.645235637187945" lon="12.661473920986753"><ele>132.25</ele><time>2026-04-26T11:58:53.998Z</time></trkpt><trkpt lat="41.64516217988011" lon="12.66164187670185"><ele>131.5</ele><time>2026-04-26T11:58:55Z</time></trkpt><trkpt lat="41.64506942358358" lon="12.661785996006294"><ele>130.75</ele><time>2026-04-26T11:58:56Z</time></trkpt><trkpt lat="41.644957217275625" lon="12.661921073652934"><ele>130.0</ele><time>2026-04-26T11:58:57Z</time></trkpt><trkpt lat="41.64484324516501" lon="12.662069902709506"><ele>130.0</ele><time>2026-04-26T11:58:58Z</time></trkpt><trkpt lat="41.644719503505826" lon="12.662231976011725"><ele>130.0</ele><time>2026-04-26T11:58:59Z</time></trkpt><trkpt lat="41.64459873517184" lon="12.662392955227538"><ele>130.0</ele><time>2026-04-26T11:59:00Z</time></trkpt><trkpt lat="41.644480383378884" lon="12.662558916280089"><ele>129.66666666666669</ele><time>2026-04-26T11:59:01Z</time></trkpt><trkpt lat="41.644353071010606" lon="12.6627306333422"><ele>129.33333333333334</ele><time>2026-04-26T11:59:02Z</time></trkpt><trkpt lat="41.64421013728074" lon="12.662907988382385"><ele>129.0</ele><time>2026-04-26T11:59:03Z</time></trkpt><trkpt lat="41.64407486210543" lon="12.663072582430292"><ele>129.0</ele><time>2026-04-26T11:59:04Z</time></trkpt><trkpt lat="41.6439386273386" lon="12.663250986562376"><ele>129.0</ele><time>2026-04-26T11:59:05Z</time></trkpt><trkpt lat="41.6438131178856" lon="12.66344294479413"><ele>129.0</ele><time>2026-04-26T11:59:06Z</time></trkpt><trkpt lat="41.6436752895275" lon="12.663635815082358"><ele>128.0</ele><time>2026-04-26T11:59:07Z</time></trkpt><trkpt lat="41.64353725020622" lon="12.663826538263844"><ele>127.0</ele><time>2026-04-26T11:59:08Z</time></trkpt><trkpt lat="41.64340118020929" lon="12.664003407416466"><ele>126.0</ele><time>2026-04-26T11:59:09Z</time></trkpt><trkpt lat="41.643268591150445" lon="12.664160762657307"><ele>126.0</ele><time>2026-04-26T11:59:10Z</time></trkpt><trkpt lat="41.64312319110799" lon="12.664296113085866"><ele>126.0</ele><time>2026-04-26T11:59:11Z</time></trkpt><trkpt lat="41.64295163299152" lon="12.664380300614441"><ele>126.0</ele><time>2026-04-26T11:59:12Z</time></trkpt><trkpt lat="41.64276117255301" lon="12.664434369672303"><ele>124.0</ele><time>2026-04-26T11:59:13Z</time></trkpt><trkpt lat="41.642561123793996" lon="12.664476633854319"><ele>122.0</ele><time>2026-04-26T11:59:14Z</time></trkpt><trkpt lat="41.642351576913754" lon="12.66450609207757"><ele>120.0</ele><time>2026-04-26T11:59:15Z</time></trkpt><trkpt lat="41.64215626574828" lon="12.664566607908732"><ele>120.33333333333334</ele><time>2026-04-26T11:59:16Z</time></trkpt><trkpt lat="41.641957173615694" lon="12.664619928167838"><ele>120.66666666666667</ele><time>2026-04-26T11:59:17Z</time></trkpt><trkpt lat="41.64175689173311" lon="12.664674413905743"><ele>121.0</ele><time>2026-04-26T11:59:18Z</time></trkpt><trkpt lat="41.64155328676493" lon="12.664737555752987"><ele>121.0</ele><time>2026-04-26T11:59:19Z</time></trkpt><trkpt lat="41.64134569093633" lon="12.664801892981798"><ele>121.0</ele><time>2026-04-26T11:59:20Z</time></trkpt><trkpt lat="41.64113689661026" lon="12.664855567260092"><ele>121.0</ele><time>2026-04-26T11:59:21Z</time></trkpt><trkpt lat="41.64093789030535" lon="12.664904754696977"><ele>120.0</ele><time>2026-04-26T11:59:22Z</time></trkpt><trkpt lat="41.64074017723708" lon="12.66496194932693"><ele>119.0</ele><time>2026-04-26T11:59:23Z</time></trkpt><trkpt lat="41.64054376354951" lon="12.66501932094165"><ele>118.0</ele><time>2026-04-26T11:59:24Z</time></trkpt><trkpt lat="41.64033782144278" lon="12.665063103860591"><ele>117.33333333333334</ele><time>2026-04-26T11:59:25Z</time></trkpt><trkpt lat="41.640145153904626" lon="12.665101358550766"><ele>116.66666666666666</ele><time>2026-04-26T11:59:26Z</time></trkpt><trkpt lat="41.63996818765415" lon="12.66515085615016"><ele>116.0</ele><time>2026-04-26T11:59:27Z</time></trkpt><trkpt lat="41.639804454847585" lon="12.665211935563223"><ele>116.33333333333333</ele><time>2026-04-26T11:59:27.999Z</time></trkpt><trkpt lat="41.63964859546556" lon="12.665293668271875"><ele>116.66666666666666</ele><time>2026-04-26T11:59:28.999Z</time></trkpt><trkpt lat="41.63950244866603" lon="12.665406963227568"><ele>117.0</ele><time>2026-04-26T11:59:29.999Z</time></trkpt><trkpt lat="41.639369129552485" lon="12.665562597232805"><ele>117.0</ele><time>2026-04-26T11:59:30.999Z</time></trkpt><trkpt lat="41.63925939521105" lon="12.665746886254187"><ele>117.0</ele><time>2026-04-26T11:59:31.999Z</time></trkpt><trkpt lat="41.63916985575807" lon="12.665978086427115"><ele>117.0</ele><time>2026-04-26T11:59:32.999Z</time></trkpt><trkpt lat="41.63910181858816" lon="12.66623075432836"><ele>116.0</ele><time>2026-04-26T11:59:33.999Z</time></trkpt><trkpt lat="41.63903751636158" lon="12.666452916683529"><ele>115.0</ele><time>2026-04-26T11:59:34.999Z</time></trkpt><trkpt lat="41.63897053410478" lon="12.666658239375966"><ele>114.0</ele><time>2026-04-26T11:59:35.999Z</time></trkpt><trkpt lat="41.638904079387714" lon="12.666849243148535"><ele>113.66666666666666</ele><time>2026-04-26T11:59:36.999Z</time></trkpt><trkpt lat="41.63883433259135" lon="12.667032661250055"><ele>113.33333333333333</ele><time>2026-04-26T11:59:37.999Z</time></trkpt><trkpt lat="41.63873989396915" lon="12.667197868197857"><ele>113.0</ele><time>2026-04-26T11:59:38.999Z</time></trkpt><trkpt lat="41.63860599859476" lon="12.667306740165518"><ele>112.66666666666666</ele><time>2026-04-26T11:59:39.999Z</time></trkpt><trkpt lat="41.63846249641507" lon="12.667380248340486"><ele>112.33333333333334</ele><time>2026-04-26T11:59:40.999Z</time></trkpt><trkpt lat="41.63830516778067" lon="12.667402134717541"><ele>112.0</ele><time>2026-04-26T11:59:41.999Z</time></trkpt><trkpt lat="41.63814693198115" lon="12.667451087900131"><ele>112.0</ele><time>2026-04-26T11:59:42.999Z</time></trkpt><trkpt lat="41.63797136809344" lon="12.667476718830875"><ele>112.0</ele><time>2026-04-26T11:59:43.999Z</time></trkpt><trkpt lat="41.63779025439552" lon="12.667522401015907"><ele>112.0</ele><time>2026-04-26T11:59:44.999Z</time></trkpt><trkpt lat="41.63759434959275" lon="12.667567307456952"><ele>111.0</ele><time>2026-04-26T11:59:45.999Z</time></trkpt><trkpt lat="41.63739332417058" lon="12.66760696262199"><ele>110.0</ele><time>2026-04-26T11:59:46.999Z</time></trkpt><trkpt lat="41.63721101326881" lon="12.667634352993334"><ele>109.0</ele><time>2026-04-26T11:59:47.999Z</time></trkpt><trkpt lat="41.63703347751941" lon="12.667666459517557"><ele>109.33333333333334</ele><time>2026-04-26T11:59:48.999Z</time></trkpt><trkpt lat="41.6368551707571" lon="12.667702211004627"><ele>109.66666666666666</ele><time>2026-04-26T11:59:49.999Z</time></trkpt><trkpt lat="41.6366728544378" lon="12.667743474496271"><ele>110.0</ele><time>2026-04-26T11:59:50.999Z</time></trkpt><trkpt lat="41.63649352125179" lon="12.66777571895195"><ele>110.0</ele><time>2026-04-26T11:59:51.999Z</time></trkpt><trkpt lat="41.6363214106239" lon="12.667813031012832"><ele>110.0</ele><time>2026-04-26T11:59:52.999Z</time></trkpt><trkpt lat="41.63615273107669" lon="12.667878363652614"><ele>110.0</ele><time>2026-04-26T11:59:53.999Z</time></trkpt><trkpt lat="41.63598333771422" lon="12.667965521694766"><ele>110.33333333333333</ele><time>2026-04-26T11:59:54.999Z</time></trkpt><trkpt lat="41.635821016233436" lon="12.668076072353996"><ele>110.66666666666666</ele><time>2026-04-26T11:59:55.999Z</time></trkpt><trkpt lat="41.63565808768353" lon="12.668210938174944"><ele>111.0</ele><time>2026-04-26T11:59:56.999Z</time></trkpt><trkpt lat="41.635493734915045" lon="12.668364103515863"><ele>111.0</ele><time>2026-04-26T11:59:57.999Z</time></trkpt><trkpt lat="41.63533633476494" lon="12.668520329164698"><ele>111.0</ele><time>2026-04-26T11:59:58.999Z</time></trkpt><trkpt lat="41.63517725679079" lon="12.668674043011606"><ele>111.0</ele><time>2026-04-26T11:59:59.999Z</time></trkpt><trkpt lat="41.63500992455659" lon="12.668844553439884"><ele>109.66666666666666</ele><time>2026-04-26T12:00:00.999Z</time></trkpt><trkpt lat="41.63483962391122" lon="12.669014153085433"><ele>108.33333333333333</ele><time>2026-04-26T12:00:01.999Z</time></trkpt><trkpt lat="41.634664995159184" lon="12.669183286347367"><ele>107.0</ele><time>2026-04-26T12:00:02.999Z</time></trkpt><trkpt lat="41.634490770608494" lon="12.669353382128534"><ele>106.0</ele><time>2026-04-26T12:00:03.999Z</time></trkpt><trkpt lat="41.63431846002035" lon="12.669532278545553"><ele>105.0</ele><time>2026-04-26T12:00:04.999Z</time></trkpt><trkpt lat="41.63414386800227" lon="12.669711222018647"><ele>104.0</ele><time>2026-04-26T12:00:05.999Z</time></trkpt><trkpt lat="41.633964828352404" lon="12.669888373632189"><ele>104.0</ele><time>2026-04-26T12:00:06.999Z</time></trkpt><trkpt lat="41.63378366550181" lon="12.670069934704912"><ele>104.0</ele><time>2026-04-26T12:00:07.999Z</time></trkpt><trkpt lat="41.63360246804607" lon="12.670248710185966"><ele>103.66666666666666</ele><time>2026-04-26T12:00:08.999Z</time></trkpt><trkpt lat="41.633422512346634" lon="12.670425460120402"><ele>103.33333333333334</ele><time>2026-04-26T12:00:09.999Z</time></trkpt><trkpt lat="41.63325122331022" lon="12.670585931128969"><ele>103.0</ele><time>2026-04-26T12:00:10.999Z</time></trkpt><trkpt lat="41.63307716356558" lon="12.67073743238557"><ele>103.0</ele><time>2026-04-26T12:00:11.999Z</time></trkpt><trkpt lat="41.6328936481418" lon="12.670884905168476"><ele>103.0</ele><time>2026-04-26T12:00:12.999Z</time></trkpt><trkpt lat="41.632697051580045" lon="12.671019740937377"><ele>103.0</ele><time>2026-04-26T12:00:13.999Z</time></trkpt><trkpt lat="41.63249630954431" lon="12.671152964651641"><ele>102.0</ele><time>2026-04-26T12:00:14.999Z</time></trkpt><trkpt lat="41.63229433773329" lon="12.67127950357412"><ele>101.0</ele><time>2026-04-26T12:00:15.999Z</time></trkpt><trkpt lat="41.63208582534582" lon="12.671415383920365"><ele>99.5</ele><time>2026-04-26T12:00:16.999Z</time></trkpt><trkpt lat="41.631876068728374" lon="12.67154631001645"><ele>98.0</ele><time>2026-04-26T12:00:17.999Z</time></trkpt><trkpt lat="41.63166253228052" lon="12.671684736976472"><ele>98.0</ele><time>2026-04-26T12:00:18.999Z</time></trkpt><trkpt lat="41.631447275956646" lon="12.671824906251778"><ele>98.0</ele><time>2026-04-26T12:00:19.999Z</time></trkpt><trkpt lat="41.63123707411089" lon="12.671957806475897"><ele>96.0</ele><time>2026-04-26T12:00:20.999Z</time></trkpt><trkpt lat="41.63103188699668" lon="12.67208670299467"><ele>94.0</ele><time>2026-04-26T12:00:21.998Z</time></trkpt><trkpt lat="41.630826773391036" lon="12.67221127366264"><ele>94.0</ele><time>2026-04-26T12:00:22.998Z</time></trkpt><trkpt lat="41.630621627249134" lon="12.672338420197336"><ele>94.0</ele><time>2026-04-26T12:00:23.998Z</time></trkpt><trkpt lat="41.63041911936766" lon="12.672463956920401"><ele>94.0</ele><time>2026-04-26T12:00:24.998Z</time></trkpt><trkpt lat="41.63021694436251" lon="12.672588472817853"><ele>94.33333333333333</ele><time>2026-04-26T12:00:25.998Z</time></trkpt><trkpt lat="41.630012900791456" lon="12.672715173266115"><ele>94.66666666666667</ele><time>2026-04-26T12:00:26.998Z</time></trkpt><trkpt lat="41.629811847771734" lon="12.672837419876569"><ele>95.0</ele><time>2026-04-26T12:00:27.998Z</time></trkpt><trkpt lat="41.62961980821881" lon="12.67296090546197"><ele>95.33333333333334</ele><time>2026-04-26T12:00:28.998Z</time></trkpt><trkpt lat="41.62942816007026" lon="12.673087868564647"><ele>95.66666666666667</ele><time>2026-04-26T12:00:29.998Z</time></trkpt><trkpt lat="41.629229773180164" lon="12.673222729810904"><ele>96.0</ele><time>2026-04-26T12:00:30.998Z</time></trkpt><trkpt lat="41.62902621798346" lon="12.673344423488961"><ele>96.0</ele><time>2026-04-26T12:00:31.998Z</time></trkpt><trkpt lat="41.62881533239476" lon="12.673467788698556"><ele>96.0</ele><time>2026-04-26T12:00:32.998Z</time></trkpt><trkpt lat="41.62860443869659" lon="12.67359721897046"><ele>93.0</ele><time>2026-04-26T12:00:33.998Z</time></trkpt><trkpt lat="41.62839132535866" lon="12.673736903775307"><ele>90.0</ele><time>2026-04-26T12:00:34.998Z</time></trkpt><trkpt lat="41.62817447766177" lon="12.673876381535536"><ele>90.0</ele><time>2026-04-26T12:00:35.998Z</time></trkpt><trkpt lat="41.627955039845986" lon="12.674011485122858"><ele>90.0</ele><time>2026-04-26T12:00:36.998Z</time></trkpt><trkpt lat="41.627731383707804" lon="12.674152864204991"><ele>91.0</ele><time>2026-04-26T12:00:37.998Z</time></trkpt><trkpt lat="41.6275120011638" lon="12.674290837438432"><ele>92.0</ele><time>2026-04-26T12:00:38.998Z</time></trkpt><trkpt lat="41.62729156567454" lon="12.674426717402339"><ele>92.0</ele><time>2026-04-26T12:00:39.998Z</time></trkpt><trkpt lat="41.62708163593266" lon="12.674553238482323"><ele>92.0</ele><time>2026-04-26T12:00:40.998Z</time></trkpt><trkpt lat="41.62687953935448" lon="12.674674340371098"><ele>92.0</ele><time>2026-04-26T12:00:41.998Z</time></trkpt><trkpt lat="41.62667564924657" lon="12.674804435934801"><ele>92.0</ele><time>2026-04-26T12:00:42.998Z</time></trkpt><trkpt lat="41.62646705447458" lon="12.674936646117516"><ele>92.0</ele><time>2026-04-26T12:00:43.998Z</time></trkpt><trkpt lat="41.6262550112324" lon="12.675068832737704"><ele>92.0</ele><time>2026-04-26T12:00:44.998Z</time></trkpt><trkpt lat="41.626041248509274" lon="12.675199561165387"><ele>91.5</ele><time>2026-04-26T12:00:45.998Z</time></trkpt><trkpt lat="41.62582589779051" lon="12.675330344259674"><ele>91.0</ele><time>2026-04-26T12:00:46.998Z</time></trkpt><trkpt lat="41.625608219883645" lon="12.675466669122684"><ele>91.0</ele><time>2026-04-26T12:00:47.998Z</time></trkpt><trkpt lat="41.62539159555491" lon="12.675604002088214"><ele>91.0</ele><time>2026-04-26T12:00:48.998Z</time></trkpt><trkpt lat="41.62518539835686" lon="12.675736220270277"><ele>89.66666666666666</ele><time>2026-04-26T12:00:49.998Z</time></trkpt><trkpt lat="41.62499929942973" lon="12.675853794770108"><ele>88.33333333333333</ele><time>2026-04-26T12:00:50.998Z</time></trkpt><trkpt lat="41.624825181429074" lon="12.675966736112173"><ele>87.0</ele><time>2026-04-26T12:00:51.998Z</time></trkpt><trkpt lat="41.62467053738667" lon="12.676061493178736"><ele>87.66666666666667</ele><time>2026-04-26T12:00:52.998Z</time></trkpt><trkpt lat="41.624513818716025" lon="12.676154159490478"><ele>88.33333333333334</ele><time>2026-04-26T12:00:53.998Z</time></trkpt><trkpt lat="41.62434548785733" lon="12.676219870426138"><ele>89.0</ele><time>2026-04-26T12:00:54.998Z</time></trkpt><trkpt lat="41.62417100622814" lon="12.676275573495431"><ele>89.0</ele><time>2026-04-26T12:00:55.998Z</time></trkpt><trkpt lat="41.623990192789535" lon="12.6763266457478"><ele>89.0</ele><time>2026-04-26T12:00:56.998Z</time></trkpt><trkpt lat="41.62380649427052" lon="12.676385393850222"><ele>89.0</ele><time>2026-04-26T12:00:57.998Z</time></trkpt><trkpt lat="41.62362067296856" lon="12.676452074916696"><ele>89.66666666666667</ele><time>2026-04-26T12:00:58.998Z</time></trkpt><trkpt lat="41.623428932946" lon="12.676515669205118"><ele>90.33333333333333</ele><time>2026-04-26T12:00:59.998Z</time></trkpt><trkpt lat="41.62323278111577" lon="12.67657909129124"><ele>91.0</ele><time>2026-04-26T12:01:01Z</time></trkpt><trkpt lat="41.62304085170357" lon="12.676644293452123"><ele>91.0</ele><time>2026-04-26T12:01:02Z</time></trkpt><trkpt lat="41.622846839881284" lon="12.676707195284004"><ele>91.0</ele><time>2026-04-26T12:01:03Z</time></trkpt><trkpt lat="41.62264710909395" lon="12.676763561758655"><ele>91.0</ele><time>2026-04-26T12:01:04Z</time></trkpt><trkpt lat="41.62244933067238" lon="12.676836196743677"><ele>89.66666666666666</ele><time>2026-04-26T12:01:05Z</time></trkpt><trkpt lat="41.62224842174628" lon="12.676909672373622"><ele>88.33333333333333</ele><time>2026-04-26T12:01:06Z</time></trkpt><trkpt lat="41.62204246554021" lon="12.676988643815845"><ele>87.0</ele><time>2026-04-26T12:01:07Z</time></trkpt><trkpt lat="41.62184018128672" lon="12.677057369706064"><ele>86.66666666666667</ele><time>2026-04-26T12:01:08Z</time></trkpt><trkpt lat="41.621656370193435" lon="12.677122590869814"><ele>86.33333333333334</ele><time>2026-04-26T12:01:09Z</time></trkpt><trkpt lat="41.62148166512992" lon="12.677173253766863"><ele>86.0</ele><time>2026-04-26T12:01:10Z</time></trkpt><trkpt lat="41.621307944924375" lon="12.677205232314279"><ele>86.0</ele><time>2026-04-26T12:01:11Z</time></trkpt><trkpt lat="41.62112606455345" lon="12.67720855504334"><ele>86.0</ele><time>2026-04-26T12:01:12Z</time></trkpt><trkpt lat="41.620951352276066" lon="12.677181666582992"><ele>86.0</ele><time>2026-04-26T12:01:13Z</time></trkpt><trkpt lat="41.62075026096088" lon="12.677153395946217"><ele>86.0</ele><time>2026-04-26T12:01:14Z</time></trkpt><trkpt lat="41.62055165371423" lon="12.677129209875465"><ele>86.0</ele><time>2026-04-26T12:01:15Z</time></trkpt><trkpt lat="41.62034691547878" lon="12.677118671357102"><ele>86.0</ele><time>2026-04-26T12:01:16Z</time></trkpt><trkpt lat="41.62013675463059" lon="12.677104342600947"><ele>85.66666666666667</ele><time>2026-04-26T12:01:17Z</time></trkpt><trkpt lat="41.61992080128115" lon="12.67708856242065"><ele>85.33333333333333</ele><time>2026-04-26T12:01:18Z</time></trkpt><trkpt lat="41.619702880401626" lon="12.67707080011438"><ele>85.0</ele><time>2026-04-26T12:01:19Z</time></trkpt><trkpt lat="41.61947322065646" lon="12.677051863365094"><ele>84.5</ele><time>2026-04-26T12:01:20Z</time></trkpt><trkpt lat="41.61923974253822" lon="12.677036413474573"><ele>84.0</ele><time>2026-04-26T12:01:21Z</time></trkpt><trkpt lat="41.619024327189386" lon="12.677016869714155"><ele>84.0</ele><time>2026-04-26T12:01:22Z</time></trkpt><trkpt lat="41.61881407111637" lon="12.676996141171346"><ele>84.0</ele><time>2026-04-26T12:01:23Z</time></trkpt><trkpt lat="41.61859915105415" lon="12.676978413394366"><ele>84.0</ele><time>2026-04-26T12:01:24Z</time></trkpt><trkpt lat="41.61838038431024" lon="12.676967992349251"><ele>83.66666666666667</ele><time>2026-04-26T12:01:25Z</time></trkpt><trkpt lat="41.618162333022106" lon="12.676953621087188"><ele>83.33333333333334</ele><time>2026-04-26T12:01:26Z</time></trkpt><trkpt lat="41.61794386793935" lon="12.676938980099594"><ele>83.0</ele><time>2026-04-26T12:01:27Z</time></trkpt><trkpt lat="41.61772705547561" lon="12.676926397564232"><ele>84.0</ele><time>2026-04-26T12:01:28Z</time></trkpt><trkpt lat="41.617506446902816" lon="12.676914646270493"><ele>85.0</ele><time>2026-04-26T12:01:28.999Z</time></trkpt><trkpt lat="41.617287830528944" lon="12.676891345261657"><ele>86.0</ele><time>2026-04-26T12:01:29.999Z</time></trkpt><trkpt lat="41.617068054062706" lon="12.676862998181363"><ele>85.0</ele><time>2026-04-26T12:01:30.999Z</time></trkpt><trkpt lat="41.61684380517756" lon="12.676843811836967"><ele>84.0</ele><time>2026-04-26T12:01:31.999Z</time></trkpt><trkpt lat="41.61661863859084" lon="12.676830936772799"><ele>84.0</ele><time>2026-04-26T12:01:32.999Z</time></trkpt><trkpt lat="41.61639259483996" lon="12.676822492717626"><ele>84.0</ele><time>2026-04-26T12:01:33.999Z</time></trkpt><trkpt lat="41.61617621610305" lon="12.676812881924016"><ele>84.0</ele><time>2026-04-26T12:01:34.999Z</time></trkpt><trkpt lat="41.6159744417748" lon="12.676800399526886"><ele>83.33333333333333</ele><time>2026-04-26T12:01:35.999Z</time></trkpt><trkpt lat="41.61577572072961" lon="12.67678433846245"><ele>82.66666666666666</ele><time>2026-04-26T12:01:36.999Z</time></trkpt><trkpt lat="41.615568136097494" lon="12.676767672573426"><ele>82.0</ele><time>2026-04-26T12:01:37.999Z</time></trkpt><trkpt lat="41.61535532013268" lon="12.676754576178777"><ele>81.0</ele><time>2026-04-26T12:01:38.999Z</time></trkpt><trkpt lat="41.615156295564184" lon="12.676740910011244"><ele>80.0</ele><time>2026-04-26T12:01:39.999Z</time></trkpt><trkpt lat="41.614969253800886" lon="12.676727635010105"><ele>79.0</ele><time>2026-04-26T12:01:40.999Z</time></trkpt><trkpt lat="41.61479094383244" lon="12.676714641689282"><ele>79.0</ele><time>2026-04-26T12:01:41.999Z</time></trkpt><trkpt lat="41.61461287853651" lon="12.676701432846935"><ele>79.0</ele><time>2026-04-26T12:01:42.999Z</time></trkpt><trkpt lat="41.614433511052376" lon="12.67669171346107"><ele>79.0</ele><time>2026-04-26T12:01:43.999Z</time></trkpt><trkpt lat="41.61425440657133" lon="12.676674606294185"><ele>79.0</ele><time>2026-04-26T12:01:44.999Z</time></trkpt><trkpt lat="41.614070659594084" lon="12.67667089023453"><ele>79.0</ele><time>2026-04-26T12:01:45.999Z</time></trkpt><trkpt lat="41.6138847405916" lon="12.676659397911118"><ele>79.0</ele><time>2026-04-26T12:01:46.999Z</time></trkpt><trkpt lat="41.61369347322855" lon="12.676606516540888"><ele>78.66666666666666</ele><time>2026-04-26T12:01:47.999Z</time></trkpt><trkpt lat="41.61350447548656" lon="12.676591818689202"><ele>78.33333333333333</ele><time>2026-04-26T12:01:48.999Z</time></trkpt><trkpt lat="41.61332698405317" lon="12.676579065946168"><ele>78.0</ele><time>2026-04-26T12:01:49.999Z</time></trkpt><trkpt lat="41.613140430818966" lon="12.676566266011166"><ele>78.0</ele><time>2026-04-26T12:01:50.999Z</time></trkpt><trkpt lat="41.61297055743713" lon="12.676554603598488"><ele>78.0</ele><time>2026-04-26T12:01:51.999Z</time></trkpt><trkpt lat="41.61281096846932" lon="12.67654304871635"><ele>78.0</ele><time>2026-04-26T12:01:52.999Z</time></trkpt><trkpt lat="41.61266501723647" lon="12.676532481257546"><ele>78.25</ele><time>2026-04-26T12:01:53.999Z</time></trkpt><trkpt lat="41.612525000822856" lon="12.67652383162092"><ele>78.5</ele><time>2026-04-26T12:01:54.999Z</time></trkpt><trkpt lat="41.61238665881564" lon="12.676534935451265"><ele>78.75</ele><time>2026-04-26T12:01:55.999Z</time></trkpt><trkpt lat="41.61224157254872" lon="12.676540537612604"><ele>79.0</ele><time>2026-04-26T12:01:56.999Z</time></trkpt><trkpt lat="41.61208596740975" lon="12.676564191803426"><ele>78.66666666666666</ele><time>2026-04-26T12:01:57.999Z</time></trkpt><trkpt lat="41.61191716459621" lon="12.676614008896632"><ele>78.33333333333333</ele><time>2026-04-26T12:01:58.999Z</time></trkpt><trkpt lat="41.611744561110974" lon="12.676692015250062"><ele>78.0</ele><time>2026-04-26T12:01:59.999Z</time></trkpt><trkpt lat="41.61156910642258" lon="12.67676929195436"><ele>78.0</ele><time>2026-04-26T12:02:00.999Z</time></trkpt><trkpt lat="41.61140607826175" lon="12.676839437956065"><ele>78.0</ele><time>2026-04-26T12:02:01.999Z</time></trkpt><trkpt lat="41.61123099274113" lon="12.67691551504375"><ele>78.0</ele><time>2026-04-26T12:02:02.999Z</time></trkpt><trkpt lat="41.611056032696226" lon="12.676989413250586"><ele>77.33333333333333</ele><time>2026-04-26T12:02:03.999Z</time></trkpt><trkpt lat="41.61087687915338" lon="12.677056378265156"><ele>76.66666666666666</ele><time>2026-04-26T12:02:04.999Z</time></trkpt><trkpt lat="41.610694883786415" lon="12.677129465002322"><ele>76.0</ele><time>2026-04-26T12:02:05.999Z</time></trkpt><trkpt lat="41.61050337872133" lon="12.67720823931271"><ele>75.0</ele><time>2026-04-26T12:02:06.999Z</time></trkpt><trkpt lat="41.61032316462488" lon="12.677274058571053"><ele>74.0</ele><time>2026-04-26T12:02:07.999Z</time></trkpt><trkpt lat="41.61013355323208" lon="12.677343334965945"><ele>73.0</ele><time>2026-04-26T12:02:08.999Z</time></trkpt><trkpt lat="41.60993828379082" lon="12.677414566039717"><ele>73.0</ele><time>2026-04-26T12:02:09.999Z</time></trkpt><trkpt lat="41.609725859506106" lon="12.6774857790504"><ele>73.0</ele><time>2026-04-26T12:02:10.999Z</time></trkpt><trkpt lat="41.609499895838226" lon="12.677572784905031"><ele>74.33333333333333</ele><time>2026-04-26T12:02:11.999Z</time></trkpt><trkpt lat="41.60928388480265" lon="12.677665587027414"><ele>75.66666666666667</ele><time>2026-04-26T12:02:12.999Z</time></trkpt><trkpt lat="41.6090777064616" lon="12.677745785783646"><ele>77.0</ele><time>2026-04-26T12:02:13.999Z</time></trkpt><trkpt lat="41.6088698748405" lon="12.677826709080971"><ele>76.0</ele><time>2026-04-26T12:02:14.999Z</time></trkpt><trkpt lat="41.60865840169909" lon="12.67791486076096"><ele>75.0</ele><time>2026-04-26T12:02:15.999Z</time></trkpt><trkpt lat="41.60844701118247" lon="12.678010888527643"><ele>74.0</ele><time>2026-04-26T12:02:16.999Z</time></trkpt><trkpt lat="41.60823540669939" lon="12.678097904716953"><ele>74.0</ele><time>2026-04-26T12:02:17.999Z</time></trkpt><trkpt lat="41.60802246579067" lon="12.6781823742832"><ele>74.0</ele><time>2026-04-26T12:02:18.999Z</time></trkpt><trkpt lat="41.60780400086646" lon="12.67825954252858"><ele>74.0</ele><time>2026-04-26T12:02:19.999Z</time></trkpt><trkpt lat="41.60758090947825" lon="12.6783377240307"><ele>74.0</ele><time>2026-04-26T12:02:20.999Z</time></trkpt><trkpt lat="41.607375974067615" lon="12.678402948237732"><ele>74.0</ele><time>2026-04-26T12:02:21.998Z</time></trkpt><trkpt lat="41.60718257652875" lon="12.678482210325434"><ele>74.0</ele><time>2026-04-26T12:02:22.998Z</time></trkpt><trkpt lat="41.606987459984786" lon="12.678552001548162"><ele>73.33333333333334</ele><time>2026-04-26T12:02:23.998Z</time></trkpt><trkpt lat="41.60679344100662" lon="12.67862230129999"><ele>72.66666666666667</ele><time>2026-04-26T12:02:24.998Z</time></trkpt><trkpt lat="41.6065942250426" lon="12.678697112070532"><ele>72.0</ele><time>2026-04-26T12:02:25.998Z</time></trkpt><trkpt lat="41.606399311851995" lon="12.678773945985883"><ele>72.0</ele><time>2026-04-26T12:02:26.998Z</time></trkpt><trkpt lat="41.60621298654736" lon="12.67884703501654"><ele>72.0</ele><time>2026-04-26T12:02:27.998Z</time></trkpt><trkpt lat="41.606017350968095" lon="12.678898466290885"><ele>72.0</ele><time>2026-04-26T12:02:28.998Z</time></trkpt><trkpt lat="41.60582593211823" lon="12.67897526670409"><ele>72.0</ele><time>2026-04-26T12:02:29.998Z</time></trkpt><trkpt lat="41.60566524894362" lon="12.679075715475996"><ele>72.0</ele><time>2026-04-26T12:02:30.998Z</time></trkpt><trkpt lat="41.60551598966841" lon="12.679166446544658"><ele>72.0</ele><time>2026-04-26T12:02:31.998Z</time></trkpt><trkpt lat="41.60538335535585" lon="12.679270139354731"><ele>72.0</ele><time>2026-04-26T12:02:32.998Z</time></trkpt><trkpt lat="41.60524679776157" lon="12.67939703587341"><ele>72.0</ele><time>2026-04-26T12:02:33.998Z</time></trkpt><trkpt lat="41.60510886547603" lon="12.67951580201971"><ele>72.0</ele><time>2026-04-26T12:02:34.998Z</time></trkpt><trkpt lat="41.6049612951404" lon="12.679614778526913"><ele>72.0</ele><time>2026-04-26T12:02:35.998Z</time></trkpt><trkpt lat="41.604815874721695" lon="12.679733441946157"><ele>72.0</ele><time>2026-04-26T12:02:36.998Z</time></trkpt><trkpt lat="41.6046622331029" lon="12.67985757388142"><ele>72.0</ele><time>2026-04-26T12:02:37.998Z</time></trkpt><trkpt lat="41.60450602100727" lon="12.679983781212735"><ele>72.0</ele><time>2026-04-26T12:02:38.998Z</time></trkpt><trkpt lat="41.60435306365066" lon="12.680131500799977"><ele>72.0</ele><time>2026-04-26T12:02:39.998Z</time></trkpt><trkpt lat="41.60419784080926" lon="12.680250209394725"><ele>72.0</ele><time>2026-04-26T12:02:40.998Z</time></trkpt><trkpt lat="41.60404610719201" lon="12.680362391656866"><ele>72.0</ele><time>2026-04-26T12:02:41.998Z</time></trkpt><trkpt lat="41.60389301975985" lon="12.68048076716671"><ele>72.0</ele><time>2026-04-26T12:02:42.998Z</time></trkpt><trkpt lat="41.60374295979259" lon="12.680600665588095"><ele>72.0</ele><time>2026-04-26T12:02:43.998Z</time></trkpt><trkpt lat="41.60360176133488" lon="12.68070881236252"><ele>72.0</ele><time>2026-04-26T12:02:44.998Z</time></trkpt><trkpt lat="41.603463263696305" lon="12.680820604668444"><ele>72.0</ele><time>2026-04-26T12:02:45.998Z</time></trkpt><trkpt lat="41.60332584225434" lon="12.680934509554847"><ele>72.0</ele><time>2026-04-26T12:02:46.998Z</time></trkpt><trkpt lat="41.603195620692006" lon="12.68104305488392"><ele>72.0</ele><time>2026-04-26T12:02:47.998Z</time></trkpt><trkpt lat="41.60306399249613" lon="12.681140648577305"><ele>72.0</ele><time>2026-04-26T12:02:48.998Z</time></trkpt><trkpt lat="41.60292427658033" lon="12.681242803749019"><ele>72.0</ele><time>2026-04-26T12:02:49.998Z</time></trkpt><trkpt lat="41.60278738665882" lon="12.681358117337687"><ele>72.0</ele><time>2026-04-26T12:02:50.998Z</time></trkpt><trkpt lat="41.602640229601484" lon="12.681462790798513"><ele>72.0</ele><time>2026-04-26T12:02:51.998Z</time></trkpt><trkpt lat="41.60249632887104" lon="12.681577799514056"><ele>72.0</ele><time>2026-04-26T12:02:52.998Z</time></trkpt><trkpt lat="41.60234021049178" lon="12.68170250389407"><ele>72.0</ele><time>2026-04-26T12:02:53.998Z</time></trkpt><trkpt lat="41.60218004625638" lon="12.681830546243646"><ele>72.0</ele><time>2026-04-26T12:02:54.998Z</time></trkpt><trkpt lat="41.60201064012847" lon="12.681966003721168"><ele>72.0</ele><time>2026-04-26T12:02:55.998Z</time></trkpt><trkpt lat="41.60183905663738" lon="12.682103124964382"><ele>71.33333333333333</ele><time>2026-04-26T12:02:56.998Z</time></trkpt><trkpt lat="41.60166274046049" lon="12.682245290328794"><ele>70.66666666666666</ele><time>2026-04-26T12:02:57.998Z</time></trkpt><trkpt lat="41.60148488479933" lon="12.682388696633705"><ele>70.0</ele><time>2026-04-26T12:02:58.998Z</time></trkpt><trkpt lat="41.60131779040197" lon="12.682522376362964"><ele>70.0</ele><time>2026-04-26T12:02:59.998Z</time></trkpt><trkpt lat="41.6011712808818" lon="12.682662935776603"><ele>70.0</ele><time>2026-04-26T12:03:00.998Z</time></trkpt><trkpt lat="41.60101943299741" lon="12.682757520835443"><ele>70.0</ele><time>2026-04-26T12:03:01.998Z</time></trkpt><trkpt lat="41.60088253425084" lon="12.68286541492006"><ele>69.0</ele><time>2026-04-26T12:03:02.998Z</time></trkpt><trkpt lat="41.60074102146531" lon="12.68297694557785"><ele>68.0</ele><time>2026-04-26T12:03:03.998Z</time></trkpt><trkpt lat="41.60059594871821" lon="12.683097788578822"><ele>67.0</ele><time>2026-04-26T12:03:04.998Z</time></trkpt><trkpt lat="41.60046726431527" lon="12.683225805311933"><ele>67.0</ele><time>2026-04-26T12:03:05.998Z</time></trkpt><trkpt lat="41.600333380814696" lon="12.683301963437913"><ele>67.0</ele><time>2026-04-26T12:03:07Z</time></trkpt><trkpt lat="41.600212923228135" lon="12.683386387677201"><ele>67.0</ele><time>2026-04-26T12:03:08Z</time></trkpt><trkpt lat="41.600103417988635" lon="12.683479563283797"><ele>67.0</ele><time>2026-04-26T12:03:09Z</time></trkpt><trkpt lat="41.599974420111664" lon="12.683559985164473"><ele>67.33333333333333</ele><time>2026-04-26T12:03:10Z</time></trkpt><trkpt lat="41.599834750297155" lon="12.683667595095706"><ele>67.66666666666667</ele><time>2026-04-26T12:03:11Z</time></trkpt><trkpt lat="41.59969140056023" lon="12.68378898305303"><ele>68.0</ele><time>2026-04-26T12:03:12Z</time></trkpt><trkpt lat="41.59953414087929" lon="12.683926505698189"><ele>67.66666666666667</ele><time>2026-04-26T12:03:13Z</time></trkpt><trkpt lat="41.599369168986975" lon="12.684056382920746"><ele>67.33333333333333</ele><time>2026-04-26T12:03:14Z</time></trkpt><trkpt lat="41.5992118394956" lon="12.684177800650694"><ele>67.0</ele><time>2026-04-26T12:03:15Z</time></trkpt><trkpt lat="41.5990422923546" lon="12.684318338030785"><ele>66.66666666666666</ele><time>2026-04-26T12:03:16Z</time></trkpt><trkpt lat="41.59886593318861" lon="12.684455233728565"><ele>66.33333333333333</ele><time>2026-04-26T12:03:17Z</time></trkpt><trkpt lat="41.598682812440444" lon="12.684596975865672"><ele>66.0</ele><time>2026-04-26T12:03:18Z</time></trkpt><trkpt lat="41.598494315348866" lon="12.68474898638341"><ele>65.66666666666667</ele><time>2026-04-26T12:03:19Z</time></trkpt><trkpt lat="41.5983093165601" lon="12.68490514706865"><ele>65.33333333333334</ele><time>2026-04-26T12:03:20Z</time></trkpt><trkpt lat="41.598137945466874" lon="12.685036579679668"><ele>65.0</ele><time>2026-04-26T12:03:21Z</time></trkpt><trkpt lat="41.59796177430888" lon="12.685171125931982"><ele>65.33333333333334</ele><time>2026-04-26T12:03:22Z</time></trkpt><trkpt lat="41.59778452489484" lon="12.685309216542883"><ele>65.66666666666667</ele><time>2026-04-26T12:03:23Z</time></trkpt><trkpt lat="41.59760533766383" lon="12.685448781018225"><ele>66.0</ele><time>2026-04-26T12:03:24Z</time></trkpt><trkpt lat="41.59742491094253" lon="12.68559216823698"><ele>66.0</ele><time>2026-04-26T12:03:25Z</time></trkpt><trkpt lat="41.59724210056909" lon="12.685734981038816"><ele>66.0</ele><time>2026-04-26T12:03:26Z</time></trkpt><trkpt lat="41.597061996295665" lon="12.685875332421016"><ele>66.0</ele><time>2026-04-26T12:03:27Z</time></trkpt><trkpt lat="41.596894360217966" lon="12.686018503624837"><ele>65.66666666666667</ele><time>2026-04-26T12:03:28Z</time></trkpt><trkpt lat="41.59673078499143" lon="12.68618097917784"><ele>65.33333333333334</ele><time>2026-04-26T12:03:29Z</time></trkpt><trkpt lat="41.596575797480334" lon="12.686365997228977"><ele>65.0</ele><time>2026-04-26T12:03:30Z</time></trkpt><trkpt lat="41.59642651486584" lon="12.68656699297705"><ele>65.0</ele><time>2026-04-26T12:03:31Z</time></trkpt><trkpt lat="41.59628544208889" lon="12.686785919856518"><ele>65.0</ele><time>2026-04-26T12:03:32Z</time></trkpt><trkpt lat="41.59615143553792" lon="12.687016050268195"><ele>65.0</ele><time>2026-04-26T12:03:33Z</time></trkpt><trkpt lat="41.596019018673005" lon="12.687256073464447"><ele>64.5</ele><time>2026-04-26T12:03:33.999Z</time></trkpt><trkpt lat="41.59588270286627" lon="12.687496646581518"><ele>64.0</ele><time>2026-04-26T12:03:34.999Z</time></trkpt><trkpt lat="41.59574685506268" lon="12.687742985437989"><ele>64.33333333333333</ele><time>2026-04-26T12:03:35.999Z</time></trkpt><trkpt lat="41.59560785914667" lon="12.687994973154096"><ele>64.66666666666667</ele><time>2026-04-26T12:03:36.999Z</time></trkpt><trkpt lat="41.595483481232556" lon="12.688227923145142"><ele>65.0</ele><time>2026-04-26T12:03:37.999Z</time></trkpt><trkpt lat="41.59535814456086" lon="12.688466807016589"><ele>64.66666666666667</ele><time>2026-04-26T12:03:38.999Z</time></trkpt><trkpt lat="41.59523873393669" lon="12.688711361623657"><ele>64.33333333333333</ele><time>2026-04-26T12:03:39.999Z</time></trkpt><trkpt lat="41.59512292977917" lon="12.688969197629067"><ele>64.0</ele><time>2026-04-26T12:03:40.999Z</time></trkpt><trkpt lat="41.59500740868305" lon="12.68923021661699"><ele>64.0</ele><time>2026-04-26T12:03:41.999Z</time></trkpt><trkpt lat="41.59489180440921" lon="12.689493573578945"><ele>64.0</ele><time>2026-04-26T12:03:42.999Z</time></trkpt><trkpt lat="41.59477453909586" lon="12.68975989906624"><ele>64.0</ele><time>2026-04-26T12:03:43.999Z</time></trkpt><trkpt lat="41.59466119577017" lon="12.690026090025594"><ele>64.0</ele><time>2026-04-26T12:03:44.999Z</time></trkpt><trkpt lat="41.594556497634514" lon="12.69027019950236"><ele>64.0</ele><time>2026-04-26T12:03:45.999Z</time></trkpt><trkpt lat="41.594447487493284" lon="12.69051064065464"><ele>64.0</ele><time>2026-04-26T12:03:46.999Z</time></trkpt><trkpt lat="41.594334866161574" lon="12.690746592460568"><ele>64.0</ele><time>2026-04-26T12:03:47.999Z</time></trkpt><trkpt lat="41.59422490063491" lon="12.690986545615054"><ele>64.0</ele><time>2026-04-26T12:03:48.999Z</time></trkpt><trkpt lat="41.59411710705456" lon="12.691232616132494"><ele>63.666666666666664</ele><time>2026-04-26T12:03:49.999Z</time></trkpt><trkpt lat="41.59400791751506" lon="12.691482971492613"><ele>63.33333333333333</ele><time>2026-04-26T12:03:50.999Z</time></trkpt><trkpt lat="41.59389727350198" lon="12.691739828302294"><ele>63.0</ele><time>2026-04-26T12:03:51.999Z</time></trkpt><trkpt lat="41.59378408843731" lon="12.69199882162336"><ele>63.0</ele><time>2026-04-26T12:03:52.999Z</time></trkpt><trkpt lat="41.59367466881711" lon="12.692253995698607"><ele>63.0</ele><time>2026-04-26T12:03:53.999Z</time></trkpt><trkpt lat="41.59356912105674" lon="12.692487580133172"><ele>63.0</ele><time>2026-04-26T12:03:54.999Z</time></trkpt><trkpt lat="41.59346045603424" lon="12.692731870086956"><ele>63.33333333333333</ele><time>2026-04-26T12:03:55.999Z</time></trkpt><trkpt lat="41.59335078175568" lon="12.692978953145436"><ele>63.666666666666664</ele><time>2026-04-26T12:03:56.999Z</time></trkpt><trkpt lat="41.593239186022046" lon="12.693232690202146"><ele>64.0</ele><time>2026-04-26T12:03:57.999Z</time></trkpt><trkpt lat="41.59312454528441" lon="12.693489959866682"><ele>64.0</ele><time>2026-04-26T12:03:58.999Z</time></trkpt><trkpt lat="41.59301432987461" lon="12.693729805517107"><ele>64.0</ele><time>2026-04-26T12:03:59.999Z</time></trkpt><trkpt lat="41.59290664021419" lon="12.693975471711711"><ele>64.0</ele><time>2026-04-26T12:04:00.999Z</time></trkpt><trkpt lat="41.59280045328036" lon="12.694223973594706"><ele>63.666666666666664</ele><time>2026-04-26T12:04:01.999Z</time></trkpt><trkpt lat="41.5926937037255" lon="12.694476085603702"><ele>63.33333333333333</ele><time>2026-04-26T12:04:02.999Z</time></trkpt><trkpt lat="41.59258030645129" lon="12.694724408773844"><ele>63.0</ele><time>2026-04-26T12:04:03.999Z</time></trkpt><trkpt lat="41.59245972867298" lon="12.694969787063084"><ele>63.0</ele><time>2026-04-26T12:04:04.999Z</time></trkpt><trkpt lat="41.59233367014639" lon="12.6952129347719"><ele>63.0</ele><time>2026-04-26T12:04:05.999Z</time></trkpt><trkpt lat="41.59220457731808" lon="12.695452040640065"><ele>63.0</ele><time>2026-04-26T12:04:06.999Z</time></trkpt><trkpt lat="41.592071737882115" lon="12.695703619274052"><ele>62.33333333333333</ele><time>2026-04-26T12:04:07.999Z</time></trkpt><trkpt lat="41.591943827585915" lon="12.695938862713707"><ele>61.666666666666664</ele><time>2026-04-26T12:04:08.999Z</time></trkpt><trkpt lat="41.59181177925075" lon="12.696155326068647"><ele>61.0</ele><time>2026-04-26T12:04:09.999Z</time></trkpt><trkpt lat="41.59167074777527" lon="12.69637028297505"><ele>61.0</ele><time>2026-04-26T12:04:10.999Z</time></trkpt><trkpt lat="41.59152392257571" lon="12.696584360244046"><ele>61.0</ele><time>2026-04-26T12:04:11.999Z</time></trkpt><trkpt lat="41.59137362290639" lon="12.696794524610386"><ele>61.0</ele><time>2026-04-26T12:04:12.999Z</time></trkpt><trkpt lat="41.591232251853576" lon="12.69698141889859"><ele>61.0</ele><time>2026-04-26T12:04:13.999Z</time></trkpt><trkpt lat="41.591096002631744" lon="12.697156461014302"><ele>61.0</ele><time>2026-04-26T12:04:14.999Z</time></trkpt><trkpt lat="41.59097087332945" lon="12.69732175027987"><ele>61.0</ele><time>2026-04-26T12:04:15.999Z</time></trkpt><trkpt lat="41.590851009668384" lon="12.69747493187245"><ele>61.0</ele><time>2026-04-26T12:04:16.999Z</time></trkpt><trkpt lat="41.590738143495734" lon="12.697606442033035"><ele>61.0</ele><time>2026-04-26T12:04:17.999Z</time></trkpt><trkpt lat="41.59061696537372" lon="12.697738412557063"><ele>61.0</ele><time>2026-04-26T12:04:18.999Z</time></trkpt><trkpt lat="41.59048762633204" lon="12.697859271669993"><ele>60.666666666666664</ele><time>2026-04-26T12:04:19.999Z</time></trkpt><trkpt lat="41.590353370121925" lon="12.697965559065825"><ele>60.33333333333333</ele><time>2026-04-26T12:04:20.999Z</time></trkpt><trkpt lat="41.59022655271793" lon="12.698091413379585"><ele>60.0</ele><time>2026-04-26T12:04:21.999Z</time></trkpt><trkpt lat="41.590122897608225" lon="12.698261823541502"><ele>59.66666666666667</ele><time>2026-04-26T12:04:22.999Z</time></trkpt><trkpt lat="41.59002538986109" lon="12.698468367824667"><ele>59.333333333333336</ele><time>2026-04-26T12:04:23.999Z</time></trkpt><trkpt lat="41.589908874605854" lon="12.698662429330952"><ele>59.0</ele><time>2026-04-26T12:04:24.999Z</time></trkpt><trkpt lat="41.589797275756816" lon="12.698837166510097"><ele>59.0</ele><time>2026-04-26T12:04:25.999Z</time></trkpt><trkpt lat="41.5896848318654" lon="12.699015391052699"><ele>59.0</ele><time>2026-04-26T12:04:26.998Z</time></trkpt><trkpt lat="41.58957477419913" lon="12.69919916927063"><ele>59.0</ele><time>2026-04-26T12:04:27.998Z</time></trkpt><trkpt lat="41.58947474209155" lon="12.699387460904665"><ele>59.25</ele><time>2026-04-26T12:04:28.998Z</time></trkpt><trkpt lat="41.58938513288063" lon="12.69956353014494"><ele>59.5</ele><time>2026-04-26T12:04:29.998Z</time></trkpt><trkpt lat="41.58930680611037" lon="12.699734118026168"><ele>59.75</ele><time>2026-04-26T12:04:30.998Z</time></trkpt><trkpt lat="41.589241699583596" lon="12.69987012773231"><ele>60.0</ele><time>2026-04-26T12:04:31.998Z</time></trkpt><trkpt lat="41.589183107265676" lon="12.69997997318655"><ele>60.0</ele><time>2026-04-26T12:04:32.998Z</time></trkpt><trkpt lat="41.58912955707224" lon="12.700091776090403"><ele>60.0</ele><time>2026-04-26T12:04:33.998Z</time></trkpt><trkpt lat="41.58908974738338" lon="12.700200916224178"><ele>60.0</ele><time>2026-04-26T12:04:34.998Z</time></trkpt><trkpt lat="41.58905401621979" lon="12.700289758795442"><ele>60.0</ele><time>2026-04-26T12:04:35.998Z</time></trkpt><trkpt lat="41.589001792286176" lon="12.700364499615175"><ele>60.0</ele><time>2026-04-26T12:04:37.998Z</time></trkpt><trkpt lat="41.58891819296007" lon="12.700451955578492"><ele>60.0</ele><time>2026-04-26T12:04:40.998Z</time></trkpt><trkpt lat="41.58885241894253" lon="12.700581497508367"><ele>59.8</ele><time>2026-04-26T12:04:42.998Z</time></trkpt><trkpt lat="41.58884508847097" lon="12.70068138838098"><ele>59.6</ele><time>2026-04-26T12:04:43.998Z</time></trkpt><trkpt lat="41.58884300827677" lon="12.700806613549933"><ele>59.400000000000006</ele><time>2026-04-26T12:04:44.998Z</time></trkpt><trkpt lat="41.58881226610492" lon="12.700955187157701"><ele>59.2</ele><time>2026-04-26T12:04:45.998Z</time></trkpt><trkpt lat="41.58874313132046" lon="12.701120781917945"><ele>59.0</ele><time>2026-04-26T12:04:46.998Z</time></trkpt><trkpt lat="41.58865473730057" lon="12.701304370000285"><ele>58.66666666666667</ele><time>2026-04-26T12:04:47.998Z</time></trkpt><trkpt lat="41.58856391618984" lon="12.701513824250735"><ele>58.33333333333333</ele><time>2026-04-26T12:04:48.998Z</time></trkpt><trkpt lat="41.58846324722278" lon="12.70174004137298"><ele>58.0</ele><time>2026-04-26T12:04:49.998Z</time></trkpt><trkpt lat="41.588356764615725" lon="12.701975961200713"><ele>58.0</ele><time>2026-04-26T12:04:50.998Z</time></trkpt><trkpt lat="41.588248688570154" lon="12.702219326308104"><ele>58.0</ele><time>2026-04-26T12:04:51.998Z</time></trkpt><trkpt lat="41.5881408128672" lon="12.70247423124351"><ele>58.0</ele><time>2026-04-26T12:04:52.998Z</time></trkpt><trkpt lat="41.5880263003765" lon="12.702735285454706"><ele>58.0</ele><time>2026-04-26T12:04:53.998Z</time></trkpt><trkpt lat="41.587912317417576" lon="12.703008730855432"><ele>58.0</ele><time>2026-04-26T12:04:54.998Z</time></trkpt><trkpt lat="41.5877978210004" lon="12.703290048379236"><ele>58.0</ele><time>2026-04-26T12:04:55.998Z</time></trkpt><trkpt lat="41.58767961200338" lon="12.703559092555945"><ele>58.0</ele><time>2026-04-26T12:04:56.998Z</time></trkpt><trkpt lat="41.58756182984805" lon="12.703833690244215"><ele>58.0</ele><time>2026-04-26T12:04:57.998Z</time></trkpt><trkpt lat="41.587444371352476" lon="12.704114266009615"><ele>58.0</ele><time>2026-04-26T12:04:58.998Z</time></trkpt><trkpt lat="41.58732497433471" lon="12.704398087524956"><ele>58.5</ele><time>2026-04-26T12:04:59.998Z</time></trkpt><trkpt lat="41.587204299486835" lon="12.704686012958089"><ele>59.0</ele><time>2026-04-26T12:05:00.998Z</time></trkpt><trkpt lat="41.587080957362275" lon="12.704972425489895"><ele>58.0</ele><time>2026-04-26T12:05:01.998Z</time></trkpt><trkpt lat="41.58695580130525" lon="12.705267646739582"><ele>57.0</ele><time>2026-04-26T12:05:02.998Z</time></trkpt><trkpt lat="41.58682593800795" lon="12.705564066629858"><ele>57.0</ele><time>2026-04-26T12:05:03.998Z</time></trkpt><trkpt lat="41.586697813187065" lon="12.705866926325331"><ele>57.0</ele><time>2026-04-26T12:05:04.998Z</time></trkpt><trkpt lat="41.586582306099324" lon="12.706150795204142"><ele>57.5</ele><time>2026-04-26T12:05:05.998Z</time></trkpt><trkpt lat="41.586467811244326" lon="12.70642960642205"><ele>58.0</ele><time>2026-04-26T12:05:06.998Z</time></trkpt><trkpt lat="41.5863510451893" lon="12.706701921368882"><ele>58.0</ele><time>2026-04-26T12:05:07.998Z</time></trkpt><trkpt lat="41.58623225679355" lon="12.706979399046828"><ele>58.0</ele><time>2026-04-26T12:05:08.998Z</time></trkpt><trkpt lat="41.58612205569137" lon="12.707257229862186"><ele>58.0</ele><time>2026-04-26T12:05:09.998Z</time></trkpt><trkpt lat="41.586003397289346" lon="12.707533183652314"><ele>58.0</ele><time>2026-04-26T12:05:10.998Z</time></trkpt><trkpt lat="41.585882354361125" lon="12.707807546835102"><ele>58.0</ele><time>2026-04-26T12:05:11.998Z</time></trkpt><trkpt lat="41.58576220306239" lon="12.708085508222089"><ele>58.0</ele><time>2026-04-26T12:05:13Z</time></trkpt><trkpt lat="41.58564381685301" lon="12.708362913035957"><ele>58.0</ele><time>2026-04-26T12:05:14Z</time></trkpt><trkpt lat="41.58552731839281" lon="12.708645670999207"><ele>58.0</ele><time>2026-04-26T12:05:15Z</time></trkpt><trkpt lat="41.5854107012659" lon="12.708925158186329"><ele>57.5</ele><time>2026-04-26T12:05:16Z</time></trkpt><trkpt lat="41.585293833535204" lon="12.709206569597999"><ele>57.0</ele><time>2026-04-26T12:05:17Z</time></trkpt><trkpt lat="41.58517347351003" lon="12.709487631968294"><ele>57.0</ele><time>2026-04-26T12:05:18Z</time></trkpt><trkpt lat="41.5850543458688" lon="12.709771815679998"><ele>57.0</ele><time>2026-04-26T12:05:19Z</time></trkpt><trkpt lat="41.5849373570415" lon="12.71005701623328"><ele>57.0</ele><time>2026-04-26T12:05:20Z</time></trkpt><trkpt lat="41.58482328510003" lon="12.710323850671301"><ele>57.0</ele><time>2026-04-26T12:05:21Z</time></trkpt><trkpt lat="41.58471478486607" lon="12.71058173420648"><ele>57.0</ele><time>2026-04-26T12:05:22Z</time></trkpt><trkpt lat="41.58460372738772" lon="12.710840393353644"><ele>57.0</ele><time>2026-04-26T12:05:23Z</time></trkpt><trkpt lat="41.58449089045792" lon="12.711098637562943"><ele>57.0</ele><time>2026-04-26T12:05:24Z</time></trkpt><trkpt lat="41.58437977760629" lon="12.711356924852842"><ele>57.0</ele><time>2026-04-26T12:05:25Z</time></trkpt><trkpt lat="41.58426959499758" lon="12.711617252471262"><ele>57.0</ele><time>2026-04-26T12:05:26Z</time></trkpt><trkpt lat="41.58416163511236" lon="12.711878042659746"><ele>57.0</ele><time>2026-04-26T12:05:27Z</time></trkpt><trkpt lat="41.58405295234356" lon="12.712137104442828"><ele>57.0</ele><time>2026-04-26T12:05:28Z</time></trkpt><trkpt lat="41.58394323037963" lon="12.71239588043156"><ele>57.0</ele><time>2026-04-26T12:05:29Z</time></trkpt><trkpt lat="41.58383197802649" lon="12.712655596109379"><ele>57.0</ele><time>2026-04-26T12:05:30Z</time></trkpt><trkpt lat="41.583726939799426" lon="12.71289672360311"><ele>57.33333333333333</ele><time>2026-04-26T12:05:31Z</time></trkpt><trkpt lat="41.58362155167383" lon="12.713138136625505"><ele>57.666666666666664</ele><time>2026-04-26T12:05:32Z</time></trkpt><trkpt lat="41.58351519290884" lon="12.713383248595532"><ele>58.0</ele><time>2026-04-26T12:05:33Z</time></trkpt><trkpt lat="41.58340821763988" lon="12.713629444061677"><ele>57.33333333333333</ele><time>2026-04-26T12:05:34Z</time></trkpt><trkpt lat="41.58330185596379" lon="12.713879403588791"><ele>56.66666666666667</ele><time>2026-04-26T12:05:34.999Z</time></trkpt><trkpt lat="41.58319880458794" lon="12.714129443963209"><ele>56.0</ele><time>2026-04-26T12:05:35.999Z</time></trkpt><trkpt lat="41.58309891727215" lon="12.714380298096462"><ele>55.66666666666667</ele><time>2026-04-26T12:05:36.999Z</time></trkpt><trkpt lat="41.58299343869098" lon="12.714627652063331"><ele>55.33333333333333</ele><time>2026-04-26T12:05:37.999Z</time></trkpt><trkpt lat="41.58288545621538" lon="12.714878119419877"><ele>55.0</ele><time>2026-04-26T12:05:38.999Z</time></trkpt><trkpt lat="41.58277439368453" lon="12.71513356895703"><ele>55.0</ele><time>2026-04-26T12:05:39.999Z</time></trkpt><trkpt lat="41.58266349334704" lon="12.715385300893711"><ele>55.0</ele><time>2026-04-26T12:05:40.999Z</time></trkpt><trkpt lat="41.58256504035297" lon="12.715622160486959"><ele>55.0</ele><time>2026-04-26T12:05:41.999Z</time></trkpt><trkpt lat="41.58245393858353" lon="12.71584715091791"><ele>55.33333333333333</ele><time>2026-04-26T12:05:42.999Z</time></trkpt><trkpt lat="41.58235340712104" lon="12.7160822424557"><ele>55.66666666666667</ele><time>2026-04-26T12:05:43.999Z</time></trkpt><trkpt lat="41.58225193664472" lon="12.716322132689399"><ele>56.0</ele><time>2026-04-26T12:05:44.999Z</time></trkpt><trkpt lat="41.58215113643449" lon="12.716560438333186"><ele>56.0</ele><time>2026-04-26T12:05:45.999Z</time></trkpt><trkpt lat="41.582049134714715" lon="12.71680158451078"><ele>56.0</ele><time>2026-04-26T12:05:46.999Z</time></trkpt><trkpt lat="41.58195592230424" lon="12.717059257996196"><ele>56.0</ele><time>2026-04-26T12:05:47.999Z</time></trkpt><trkpt lat="41.5818532913617" lon="12.71729407688066"><ele>55.66666666666667</ele><time>2026-04-26T12:05:48.999Z</time></trkpt><trkpt lat="41.581757552520315" lon="12.71751584630879"><ele>55.33333333333333</ele><time>2026-04-26T12:05:49.999Z</time></trkpt><trkpt lat="41.581666294155696" lon="12.717732186503412"><ele>55.0</ele><time>2026-04-26T12:05:50.999Z</time></trkpt><trkpt lat="41.581575395701336" lon="12.717950234910584"><ele>54.666666666666664</ele><time>2026-04-26T12:05:51.999Z</time></trkpt><trkpt lat="41.58148508278228" lon="12.718167949687926"><ele>54.33333333333333</ele><time>2026-04-26T12:05:52.999Z</time></trkpt><trkpt lat="41.58139294636333" lon="12.718387465747767"><ele>54.0</ele><time>2026-04-26T12:05:53.999Z</time></trkpt><trkpt lat="41.581298414277526" lon="12.718603496485686"><ele>54.0</ele><time>2026-04-26T12:05:54.999Z</time></trkpt><trkpt lat="41.5812107693092" lon="12.718808939342471"><ele>54.0</ele><time>2026-04-26T12:05:55.999Z</time></trkpt><trkpt lat="41.5811227699348" lon="12.71901720529472"><ele>54.0</ele><time>2026-04-26T12:05:56.999Z</time></trkpt><trkpt lat="41.58101842135135" lon="12.719227358776024"><ele>54.0</ele><time>2026-04-26T12:05:57.999Z</time></trkpt><trkpt lat="41.580922202503345" lon="12.719452035308423"><ele>54.0</ele><time>2026-04-26T12:05:58.999Z</time></trkpt><trkpt lat="41.58082320855598" lon="12.719683191894985"><ele>54.0</ele><time>2026-04-26T12:05:59.999Z</time></trkpt><trkpt lat="41.58071903288567" lon="12.719926448103546"><ele>54.0</ele><time>2026-04-26T12:06:00.999Z</time></trkpt><trkpt lat="41.58061133540826" lon="12.72017792790112"><ele>54.0</ele><time>2026-04-26T12:06:01.999Z</time></trkpt><trkpt lat="41.58049869235" lon="12.720440954405559"><ele>54.0</ele><time>2026-04-26T12:06:02.999Z</time></trkpt><trkpt lat="41.5803806129108" lon="12.720716675034607"><ele>53.5</ele><time>2026-04-26T12:06:03.999Z</time></trkpt><trkpt lat="41.58028449793614" lon="12.721020768949431"><ele>53.0</ele><time>2026-04-26T12:06:04.999Z</time></trkpt><trkpt lat="41.580169383117486" lon="12.721292521705962"><ele>53.0</ele><time>2026-04-26T12:06:05.999Z</time></trkpt><trkpt lat="41.580057460592776" lon="12.721546560885715"><ele>53.0</ele><time>2026-04-26T12:06:06.999Z</time></trkpt><trkpt lat="41.57994584930321" lon="12.72177201059857"><ele>53.0</ele><time>2026-04-26T12:06:07.999Z</time></trkpt><trkpt lat="41.579835022453885" lon="12.721986534917745"><ele>53.0</ele><time>2026-04-26T12:06:08.999Z</time></trkpt><trkpt lat="41.57973841761393" lon="12.722194562772104"><ele>53.0</ele><time>2026-04-26T12:06:09.999Z</time></trkpt><trkpt lat="41.57963060784506" lon="12.72239911390218"><ele>53.0</ele><time>2026-04-26T12:06:10.999Z</time></trkpt><trkpt lat="41.579500703300596" lon="12.722594481003481"><ele>53.0</ele><time>2026-04-26T12:06:11.999Z</time></trkpt><trkpt lat="41.57935569513264" lon="12.72278207342896"><ele>53.0</ele><time>2026-04-26T12:06:12.999Z</time></trkpt><trkpt lat="41.57920413615059" lon="12.722965348834556"><ele>53.0</ele><time>2026-04-26T12:06:13.999Z</time></trkpt><trkpt lat="41.57904617485198" lon="12.72314116617278"><ele>53.0</ele><time>2026-04-26T12:06:14.999Z</time></trkpt><trkpt lat="41.578880862150015" lon="12.723316220223321"><ele>53.0</ele><time>2026-04-26T12:06:15.999Z</time></trkpt><trkpt lat="41.578709262098265" lon="12.723489006854702"><ele>53.0</ele><time>2026-04-26T12:06:16.999Z</time></trkpt><trkpt lat="41.578540074876884" lon="12.723646413550352"><ele>53.0</ele><time>2026-04-26T12:06:17.999Z</time></trkpt><trkpt lat="41.57838514170518" lon="12.723788580665888"><ele>53.0</ele><time>2026-04-26T12:06:18.999Z</time></trkpt><trkpt lat="41.578242198212145" lon="12.723919210906288"><ele>53.0</ele><time>2026-04-26T12:06:19.999Z</time></trkpt><trkpt lat="41.578105790919416" lon="12.724049244310025"><ele>53.0</ele><time>2026-04-26T12:06:20.999Z</time></trkpt><trkpt lat="41.57797787526614" lon="12.724169565875496"><ele>53.0</ele><time>2026-04-26T12:06:21.999Z</time></trkpt><trkpt lat="41.57785158258424" lon="12.724284813648417"><ele>53.0</ele><time>2026-04-26T12:06:22.998Z</time></trkpt><trkpt lat="41.57771416459849" lon="12.724404663414196"><ele>53.0</ele><time>2026-04-26T12:06:23.998Z</time></trkpt><trkpt lat="41.57757223047353" lon="12.724530365849589"><ele>53.0</ele><time>2026-04-26T12:06:24.998Z</time></trkpt><trkpt lat="41.57742993426967" lon="12.724655888424268"><ele>53.0</ele><time>2026-04-26T12:06:25.998Z</time></trkpt><trkpt lat="41.57729011546893" lon="12.724780748034828"><ele>53.0</ele><time>2026-04-26T12:06:26.998Z</time></trkpt><trkpt lat="41.57716697947218" lon="12.724888843082164"><ele>53.0</ele><time>2026-04-26T12:06:27.998Z</time></trkpt><trkpt lat="41.57704274801861" lon="12.72500787896326"><ele>53.0</ele><time>2026-04-26T12:06:28.998Z</time></trkpt><trkpt lat="41.57691705561023" lon="12.725129398328688"><ele>53.66666666666667</ele><time>2026-04-26T12:06:29.998Z</time></trkpt><trkpt lat="41.57678894627815" lon="12.725245555698688"><ele>54.33333333333333</ele><time>2026-04-26T12:06:30.998Z</time></trkpt><trkpt lat="41.576661858335264" lon="12.725365734380613"><ele>55.0</ele><time>2026-04-26T12:06:31.998Z</time></trkpt><trkpt lat="41.576539404035756" lon="12.72550037591918"><ele>55.0</ele><time>2026-04-26T12:06:32.998Z</time></trkpt><trkpt lat="41.57641647607336" lon="12.725644441457138"><ele>55.0</ele><time>2026-04-26T12:06:33.998Z</time></trkpt><trkpt lat="41.57630233087733" lon="12.725782963789577"><ele>55.0</ele><time>2026-04-26T12:06:34.998Z</time></trkpt><trkpt lat="41.57619060329771" lon="12.725915225077253"><ele>54.666666666666664</ele><time>2026-04-26T12:06:35.998Z</time></trkpt><trkpt lat="41.576077680360406" lon="12.726051203782898"><ele>54.33333333333333</ele><time>2026-04-26T12:06:36.998Z</time></trkpt><trkpt lat="41.5759644931348" lon="12.726194576876043"><ele>54.0</ele><time>2026-04-26T12:06:37.998Z</time></trkpt><trkpt lat="41.57584707030785" lon="12.726342489955337"><ele>53.66666666666667</ele><time>2026-04-26T12:06:38.998Z</time></trkpt><trkpt lat="41.57572126109068" lon="12.726493803327084"><ele>53.333333333333336</ele><time>2026-04-26T12:06:39.998Z</time></trkpt><trkpt lat="41.57558296469528" lon="12.72664838713057"><ele>53.0</ele><time>2026-04-26T12:06:40.998Z</time></trkpt><trkpt lat="41.575448685229766" lon="12.726791581552426"><ele>53.0</ele><time>2026-04-26T12:06:41.998Z</time></trkpt><trkpt lat="41.57531412804925" lon="12.72693119712303"><ele>53.0</ele><time>2026-04-26T12:06:42.998Z</time></trkpt><trkpt lat="41.575181425194515" lon="12.727076434825712"><ele>53.0</ele><time>2026-04-26T12:06:43.998Z</time></trkpt><trkpt lat="41.57507220697695" lon="12.727208582388126"><ele>53.0</ele><time>2026-04-26T12:06:44.998Z</time></trkpt><trkpt lat="41.57495537251864" lon="12.727337091046723"><ele>53.0</ele><time>2026-04-26T12:06:45.998Z</time></trkpt><trkpt lat="41.574832726846324" lon="12.727472180418397"><ele>53.0</ele><time>2026-04-26T12:06:46.998Z</time></trkpt><trkpt lat="41.574708459818794" lon="12.727608666781771"><ele>52.66666666666667</ele><time>2026-04-26T12:06:47.998Z</time></trkpt><trkpt lat="41.57458367701406" lon="12.727747043771185"><ele>52.33333333333333</ele><time>2026-04-26T12:06:48.998Z</time></trkpt><trkpt lat="41.57445604386909" lon="12.727892433899301"><ele>52.0</ele><time>2026-04-26T12:06:49.998Z</time></trkpt><trkpt lat="41.57432945367934" lon="12.728036618040099"><ele>51.33333333333333</ele><time>2026-04-26T12:06:50.998Z</time></trkpt><trkpt lat="41.574197626006736" lon="12.728187233927862"><ele>50.66666666666667</ele><time>2026-04-26T12:06:51.998Z</time></trkpt><trkpt lat="41.57406166145538" lon="12.728341391890767"><ele>50.0</ele><time>2026-04-26T12:06:52.998Z</time></trkpt><trkpt lat="41.573920058027774" lon="12.728492191835878"><ele>50.66666666666667</ele><time>2026-04-26T12:06:53.998Z</time></trkpt><trkpt lat="41.57377492911491" lon="12.72864803403027"><ele>51.33333333333333</ele><time>2026-04-26T12:06:54.998Z</time></trkpt><trkpt lat="41.57362953935936" lon="12.728806948260992"><ele>52.0</ele><time>2026-04-26T12:06:55.998Z</time></trkpt><trkpt lat="41.57347984306329" lon="12.72897320312595"><ele>52.0</ele><time>2026-04-26T12:06:56.998Z</time></trkpt><trkpt lat="41.5733254343498" lon="12.729145834483509"><ele>52.0</ele><time>2026-04-26T12:06:57.998Z</time></trkpt><trkpt lat="41.57316921647225" lon="12.72932405205064"><ele>52.0</ele><time>2026-04-26T12:06:58.998Z</time></trkpt><trkpt lat="41.57301156895378" lon="12.72949902600459"><ele>52.33333333333333</ele><time>2026-04-26T12:06:59.998Z</time></trkpt><trkpt lat="41.57286948330879" lon="12.729661915213764"><ele>52.66666666666667</ele><time>2026-04-26T12:07:00.998Z</time></trkpt><trkpt lat="41.57273120539015" lon="12.729813896391658"><ele>53.0</ele><time>2026-04-26T12:07:01.998Z</time></trkpt><trkpt lat="41.5725890805036" lon="12.729976210065422"><ele>53.0</ele><time>2026-04-26T12:07:02.998Z</time></trkpt><trkpt lat="41.57244901163041" lon="12.730144891857481"><ele>53.0</ele><time>2026-04-26T12:07:03.998Z</time></trkpt><trkpt lat="41.572305884042684" lon="12.73030437005415"><ele>53.0</ele><time>2026-04-26T12:07:04.998Z</time></trkpt><trkpt lat="41.572149605672045" lon="12.730468607709387"><ele>53.0</ele><time>2026-04-26T12:07:05.998Z</time></trkpt><trkpt lat="41.571989753035105" lon="12.730643442280133"><ele>53.0</ele><time>2026-04-26T12:07:06.998Z</time></trkpt><trkpt lat="41.57183197571209" lon="12.73081158580291"><ele>53.0</ele><time>2026-04-26T12:07:07.998Z</time></trkpt><trkpt lat="41.57166295043752" lon="12.730998577373441"><ele>52.5</ele><time>2026-04-26T12:07:08.998Z</time></trkpt><trkpt lat="41.57148591432053" lon="12.731196268423838"><ele>52.0</ele><time>2026-04-26T12:07:09.998Z</time></trkpt><trkpt lat="41.571303378300776" lon="12.731400131949417"><ele>51.0</ele><time>2026-04-26T12:07:10.998Z</time></trkpt><trkpt lat="41.571113299411984" lon="12.731609658969326"><ele>50.0</ele><time>2026-04-26T12:07:11.998Z</time></trkpt><trkpt lat="41.570926879562116" lon="12.731809005026824"><ele>50.5</ele><time>2026-04-26T12:07:12.998Z</time></trkpt><trkpt lat="41.5707513901623" lon="12.731997767100749"><ele>51.0</ele><time>2026-04-26T12:07:13.998Z</time></trkpt><trkpt lat="41.57057699088934" lon="12.732188341359308"><ele>51.0</ele><time>2026-04-26T12:07:14.998Z</time></trkpt><trkpt lat="41.570402206885326" lon="12.732380960836158"><ele>51.0</ele><time>2026-04-26T12:07:15.997Z</time></trkpt><trkpt lat="41.5702236687302" lon="12.732580055417921"><ele>51.0</ele><time>2026-04-26T12:07:16.997Z</time></trkpt><trkpt lat="41.570040520465604" lon="12.732781767308769"><ele>51.0</ele><time>2026-04-26T12:07:17.997Z</time></trkpt><trkpt lat="41.56985915110755" lon="12.732990958889019"><ele>51.0</ele><time>2026-04-26T12:07:19Z</time></trkpt><trkpt lat="41.56968450510285" lon="12.733201313874675"><ele>51.0</ele><time>2026-04-26T12:07:20Z</time></trkpt><trkpt lat="41.569521925705345" lon="12.733396080405747"><ele>51.0</ele><time>2026-04-26T12:07:21Z</time></trkpt><trkpt lat="41.56935802707678" lon="12.73358658792489"><ele>51.0</ele><time>2026-04-26T12:07:22Z</time></trkpt><trkpt lat="41.5691919282485" lon="12.73378193962509"><ele>51.0</ele><time>2026-04-26T12:07:23Z</time></trkpt><trkpt lat="41.56902786621764" lon="12.733979760232758"><ele>51.0</ele><time>2026-04-26T12:07:24Z</time></trkpt><trkpt lat="41.56886511890744" lon="12.734179502092488"><ele>51.0</ele><time>2026-04-26T12:07:25Z</time></trkpt><trkpt lat="41.5686952557529" lon="12.73438171708152"><ele>51.0</ele><time>2026-04-26T12:07:26Z</time></trkpt><trkpt lat="41.56852463737113" lon="12.73458024659179"><ele>51.0</ele><time>2026-04-26T12:07:27Z</time></trkpt><trkpt lat="41.568363866554186" lon="12.734765891486022"><ele>51.0</ele><time>2026-04-26T12:07:28Z</time></trkpt><trkpt lat="41.5682013281236" lon="12.73495356941046"><ele>51.0</ele><time>2026-04-26T12:07:29Z</time></trkpt><trkpt lat="41.56803426935654" lon="12.735146044415764"><ele>51.0</ele><time>2026-04-26T12:07:30Z</time></trkpt><trkpt lat="41.567865379324935" lon="12.735339016297898"><ele>51.0</ele><time>2026-04-26T12:07:31Z</time></trkpt><trkpt lat="41.56769531124796" lon="12.735533978958653"><ele>51.0</ele><time>2026-04-26T12:07:32Z</time></trkpt><trkpt lat="41.56752535279533" lon="12.735727265144844"><ele>51.33333333333333</ele><time>2026-04-26T12:07:33Z</time></trkpt><trkpt lat="41.56736854013008" lon="12.735903562113252"><ele>51.666666666666664</ele><time>2026-04-26T12:07:34Z</time></trkpt><trkpt lat="41.56720956121654" lon="12.736084326305843"><ele>52.0</ele><time>2026-04-26T12:07:35Z</time></trkpt><trkpt lat="41.56704969586404" lon="12.736268873801812"><ele>52.0</ele><time>2026-04-26T12:07:36Z</time></trkpt><trkpt lat="41.566889444582394" lon="12.736454100895427"><ele>52.0</ele><time>2026-04-26T12:07:37Z</time></trkpt><trkpt lat="41.56672877500482" lon="12.736642546121507"><ele>52.0</ele><time>2026-04-26T12:07:38Z</time></trkpt><trkpt lat="41.566564839221634" lon="12.73682636758365"><ele>51.33333333333333</ele><time>2026-04-26T12:07:39Z</time></trkpt><trkpt lat="41.5663987846197" lon="12.737013305523908"><ele>50.66666666666667</ele><time>2026-04-26T12:07:40Z</time></trkpt><trkpt lat="41.566239990022225" lon="12.7371983842733"><ele>50.0</ele><time>2026-04-26T12:07:41Z</time></trkpt><trkpt lat="41.56608691906408" lon="12.737372839242305"><ele>50.0</ele><time>2026-04-26T12:07:42Z</time></trkpt><trkpt lat="41.56593248655637" lon="12.737553718208863"><ele>50.0</ele><time>2026-04-26T12:07:43Z</time></trkpt><trkpt lat="41.56577291085939" lon="12.737740812991253"><ele>50.0</ele><time>2026-04-26T12:07:44Z</time></trkpt><trkpt lat="41.56560900103904" lon="12.737937257736734"><ele>49.5</ele><time>2026-04-26T12:07:45Z</time></trkpt><trkpt lat="41.56543564611166" lon="12.738134969811572"><ele>49.0</ele><time>2026-04-26T12:07:46Z</time></trkpt><trkpt lat="41.5652656047828" lon="12.738325233290649"><ele>49.666666666666664</ele><time>2026-04-26T12:07:47Z</time></trkpt><trkpt lat="41.565111807794494" lon="12.738505381501755"><ele>50.33333333333333</ele><time>2026-04-26T12:07:48Z</time></trkpt><trkpt lat="41.56496174927009" lon="12.738678976865605"><ele>51.0</ele><time>2026-04-26T12:07:49Z</time></trkpt><trkpt lat="41.56481881060937" lon="12.738848601100127"><ele>51.0</ele><time>2026-04-26T12:07:50Z</time></trkpt><trkpt lat="41.56468678489696" lon="12.739009525360794"><ele>51.0</ele><time>2026-04-26T12:07:51Z</time></trkpt><trkpt lat="41.56455567247383" lon="12.739167306975235"><ele>51.0</ele><time>2026-04-26T12:07:52Z</time></trkpt><trkpt lat="41.56441752875005" lon="12.739322637344872"><ele>50.66666666666667</ele><time>2026-04-26T12:07:53Z</time></trkpt><trkpt lat="41.56428209384797" lon="12.73947538445593"><ele>50.333333333333336</ele><time>2026-04-26T12:07:54Z</time></trkpt><trkpt lat="41.56414682476903" lon="12.739628178890541"><ele>50.0</ele><time>2026-04-26T12:07:55Z</time></trkpt><trkpt lat="41.56402187699689" lon="12.739770320300076"><ele>50.0</ele><time>2026-04-26T12:07:56Z</time></trkpt><trkpt lat="41.56390460384461" lon="12.739898653665758"><ele>50.0</ele><time>2026-04-26T12:07:57Z</time></trkpt><trkpt lat="41.56379789992041" lon="12.74002360029575"><ele>50.0</ele><time>2026-04-26T12:07:58Z</time></trkpt><trkpt lat="41.56370188799725" lon="12.740136606767836"><ele>50.0</ele><time>2026-04-26T12:07:59Z</time></trkpt><trkpt lat="41.56361151187912" lon="12.740227500994504"><ele>49.6</ele><time>2026-04-26T12:08:00Z</time></trkpt><trkpt lat="41.56352298775528" lon="12.740299076377966"><ele>49.2</ele><time>2026-04-26T12:08:01Z</time></trkpt><trkpt lat="41.56343447082014" lon="12.740350428136143"><ele>48.8</ele><time>2026-04-26T12:08:02Z</time></trkpt><trkpt lat="41.56334937242969" lon="12.740368245458052"><ele>48.4</ele><time>2026-04-26T12:08:03Z</time></trkpt><trkpt lat="41.56325207355166" lon="12.740383549605205"><ele>48.0</ele><time>2026-04-26T12:08:04Z</time></trkpt><trkpt lat="41.56314028621969" lon="12.740374754862145"><ele>48.0</ele><time>2026-04-26T12:08:05Z</time></trkpt><trkpt lat="41.56302223256668" lon="12.740329569391205"><ele>48.0</ele><time>2026-04-26T12:08:06Z</time></trkpt><trkpt lat="41.56288432159791" lon="12.740297000823713"><ele>48.0</ele><time>2026-04-26T12:08:07Z</time></trkpt><trkpt lat="41.56273676184843" lon="12.74023180793876"><ele>48.0</ele><time>2026-04-26T12:08:08Z</time></trkpt><trkpt lat="41.562579081620356" lon="12.740158115277529"><ele>48.0</ele><time>2026-04-26T12:08:09Z</time></trkpt><trkpt lat="41.562423465247605" lon="12.740089664246536"><ele>48.0</ele><time>2026-04-26T12:08:10Z</time></trkpt><trkpt lat="41.562260839955876" lon="12.74001605255164"><ele>48.0</ele><time>2026-04-26T12:08:11Z</time></trkpt><trkpt lat="41.56208910700235" lon="12.739938537204223"><ele>48.0</ele><time>2026-04-26T12:08:12Z</time></trkpt><trkpt lat="41.561913295116284" lon="12.739862818986786"><ele>48.0</ele><time>2026-04-26T12:08:13Z</time></trkpt><trkpt lat="41.5617278869941" lon="12.739781833186374"><ele>48.0</ele><time>2026-04-26T12:08:14Z</time></trkpt><trkpt lat="41.56155375746419" lon="12.739698667708952"><ele>48.0</ele><time>2026-04-26T12:08:15Z</time></trkpt><trkpt lat="41.561392164896006" lon="12.739629390162651"><ele>48.0</ele><time>2026-04-26T12:08:16Z</time></trkpt><trkpt lat="41.561241444778304" lon="12.7395594900924"><ele>48.0</ele><time>2026-04-26T12:08:17Z</time></trkpt><trkpt lat="41.56109389102952" lon="12.739493646977055"><ele>48.33333333333333</ele><time>2026-04-26T12:08:18Z</time></trkpt><trkpt lat="41.56094577756833" lon="12.739412818191322"><ele>48.666666666666664</ele><time>2026-04-26T12:08:19Z</time></trkpt><trkpt lat="41.56080639464044" lon="12.739298807234306"><ele>49.0</ele><time>2026-04-26T12:08:20Z</time></trkpt><trkpt lat="41.56067520188251" lon="12.739159099343938"><ele>49.0</ele><time>2026-04-26T12:08:21Z</time></trkpt><trkpt lat="41.56055125828342" lon="12.739003250213376"><ele>49.0</ele><time>2026-04-26T12:08:22Z</time></trkpt><trkpt lat="41.56043095396487" lon="12.738835909249076"><ele>49.0</ele><time>2026-04-26T12:08:23Z</time></trkpt><trkpt lat="41.560305755449185" lon="12.738671249960657"><ele>49.0</ele><time>2026-04-26T12:08:24Z</time></trkpt><trkpt lat="41.5601793703929" lon="12.738504877840347"><ele>49.0</ele><time>2026-04-26T12:08:24.999Z</time></trkpt><trkpt lat="41.56005240243061" lon="12.738332306972366"><ele>49.0</ele><time>2026-04-26T12:08:25.999Z</time></trkpt><trkpt lat="41.55991738893952" lon="12.738156640290985"><ele>49.0</ele><time>2026-04-26T12:08:26.999Z</time></trkpt><trkpt lat="41.559771248546156" lon="12.737972841857564"><ele>49.0</ele><time>2026-04-26T12:08:27.999Z</time></trkpt><trkpt lat="41.559632983813444" lon="12.737789504081135"><ele>49.0</ele><time>2026-04-26T12:08:28.999Z</time></trkpt><trkpt lat="41.55950157606453" lon="12.737616607766885"><ele>47.666666666666664</ele><time>2026-04-26T12:08:29.999Z</time></trkpt><trkpt lat="41.559354469970835" lon="12.737431565250294"><ele>46.33333333333333</ele><time>2026-04-26T12:08:30.999Z</time></trkpt><trkpt lat="41.559216658278714" lon="12.737251370250277"><ele>45.0</ele><time>2026-04-26T12:08:31.999Z</time></trkpt><trkpt lat="41.55907458895819" lon="12.73706892496379"><ele>45.0</ele><time>2026-04-26T12:08:32.999Z</time></trkpt><trkpt lat="41.558929568035865" lon="12.736883145313076"><ele>45.0</ele><time>2026-04-26T12:08:33.999Z</time></trkpt><trkpt lat="41.558781872814066" lon="12.73668691645436"><ele>45.0</ele><time>2026-04-26T12:08:34.999Z</time></trkpt><trkpt lat="41.558629351549214" lon="12.736485690468092"><ele>45.333333333333336</ele><time>2026-04-26T12:08:35.999Z</time></trkpt><trkpt lat="41.55847437229771" lon="12.736283368707644"><ele>45.66666666666667</ele><time>2026-04-26T12:08:36.999Z</time></trkpt><trkpt lat="41.55831898417406" lon="12.736080161038867"><ele>46.0</ele><time>2026-04-26T12:08:37.999Z</time></trkpt><trkpt lat="41.55816189512375" lon="12.735874395987015"><ele>45.5</ele><time>2026-04-26T12:08:38.999Z</time></trkpt><trkpt lat="41.55800069961259" lon="12.735661848322158"><ele>45.0</ele><time>2026-04-26T12:08:39.999Z</time></trkpt><trkpt lat="41.55783803492669" lon="12.735442726418409"><ele>45.0</ele><time>2026-04-26T12:08:40.999Z</time></trkpt><trkpt lat="41.557674783604924" lon="12.735221333654255"><ele>45.0</ele><time>2026-04-26T12:08:41.999Z</time></trkpt><trkpt lat="41.55752023012892" lon="12.735014822319842"><ele>44.333333333333336</ele><time>2026-04-26T12:08:42.999Z</time></trkpt><trkpt lat="41.55737643557035" lon="12.734826245194153"><ele>43.66666666666667</ele><time>2026-04-26T12:08:43.999Z</time></trkpt><trkpt lat="41.55724367077477" lon="12.73464750468404"><ele>43.0</ele><time>2026-04-26T12:08:44.999Z</time></trkpt><trkpt lat="41.55711474822881" lon="12.734467514711096"><ele>43.0</ele><time>2026-04-26T12:08:45.999Z</time></trkpt><trkpt lat="41.55698646792091" lon="12.73428167459707"><ele>43.0</ele><time>2026-04-26T12:08:46.999Z</time></trkpt><trkpt lat="41.55684623884434" lon="12.734098219121488"><ele>43.0</ele><time>2026-04-26T12:08:47.999Z</time></trkpt><trkpt lat="41.55670582136009" lon="12.73391980736761"><ele>43.0</ele><time>2026-04-26T12:08:48.999Z</time></trkpt><trkpt lat="41.556565564291866" lon="12.733735011984898"><ele>43.0</ele><time>2026-04-26T12:08:49.999Z</time></trkpt><trkpt lat="41.55641833411575" lon="12.733545238525084"><ele>43.0</ele><time>2026-04-26T12:08:50.999Z</time></trkpt><trkpt lat="41.556264833814936" lon="12.733348842929363"><ele>43.66666666666667</ele><time>2026-04-26T12:08:51.999Z</time></trkpt><trkpt lat="41.556108451501935" lon="12.73314544968951"><ele>44.333333333333336</ele><time>2026-04-26T12:08:52.999Z</time></trkpt><trkpt lat="41.55595646913775" lon="12.732943549745242"><ele>45.0</ele><time>2026-04-26T12:08:53.999Z</time></trkpt><trkpt lat="41.55581405817301" lon="12.732749273758166"><ele>45.0</ele><time>2026-04-26T12:08:54.999Z</time></trkpt><trkpt lat="41.55567128673272" lon="12.732560801368907"><ele>45.0</ele><time>2026-04-26T12:08:55.999Z</time></trkpt><trkpt lat="41.55551473398454" lon="12.73237972615516"><ele>45.0</ele><time>2026-04-26T12:08:56.999Z</time></trkpt><trkpt lat="41.555344859757014" lon="12.732206473966924"><ele>44.333333333333336</ele><time>2026-04-26T12:08:57.999Z</time></trkpt><trkpt lat="41.55517036947695" lon="12.732038033057579"><ele>43.66666666666667</ele><time>2026-04-26T12:08:58.999Z</time></trkpt><trkpt lat="41.55500623535858" lon="12.731886357153948"><ele>43.0</ele><time>2026-04-26T12:08:59.999Z</time></trkpt><trkpt lat="41.55485635566785" lon="12.731746996103425"><ele>43.0</ele><time>2026-04-26T12:09:00.999Z</time></trkpt><trkpt lat="41.554717415828414" lon="12.73161739177449"><ele>43.0</ele><time>2026-04-26T12:09:01.999Z</time></trkpt><trkpt lat="41.554569142878194" lon="12.731499390061934"><ele>43.0</ele><time>2026-04-26T12:09:02.999Z</time></trkpt><trkpt lat="41.554404432415716" lon="12.731406903030102"><ele>43.0</ele><time>2026-04-26T12:09:03.999Z</time></trkpt><trkpt lat="41.55422581711039" lon="12.731333565916268"><ele>43.0</ele><time>2026-04-26T12:09:04.999Z</time></trkpt><trkpt lat="41.55403687281695" lon="12.731283708761199"><ele>43.0</ele><time>2026-04-26T12:09:05.999Z</time></trkpt><trkpt lat="41.553843934156944" lon="12.731245226439489"><ele>42.0</ele><time>2026-04-26T12:09:06.999Z</time></trkpt><trkpt lat="41.553638462864484" lon="12.73120502213836"><ele>41.0</ele><time>2026-04-26T12:09:07.999Z</time></trkpt><trkpt lat="41.553423890609764" lon="12.731160366846666"><ele>40.0</ele><time>2026-04-26T12:09:08.999Z</time></trkpt><trkpt lat="41.55322981092732" lon="12.731114538617275"><ele>39.66666666666667</ele><time>2026-04-26T12:09:09.999Z</time></trkpt><trkpt lat="41.553029451385065" lon="12.731051942346975"><ele>39.333333333333336</ele><time>2026-04-26T12:09:10.999Z</time></trkpt><trkpt lat="41.55283447342338" lon="12.730959844408853"><ele>39.0</ele><time>2026-04-26T12:09:11.999Z</time></trkpt><trkpt lat="41.55264019746732" lon="12.730860416508342"><ele>39.0</ele><time>2026-04-26T12:09:12.999Z</time></trkpt><trkpt lat="41.5524448918155" lon="12.730750484812818"><ele>39.0</ele><time>2026-04-26T12:09:13.999Z</time></trkpt><trkpt lat="41.552244659974875" lon="12.73065475888926"><ele>39.0</ele><time>2026-04-26T12:09:14.999Z</time></trkpt><trkpt lat="41.552044382342" lon="12.730539876803366"><ele>39.333333333333336</ele><time>2026-04-26T12:09:15.999Z</time></trkpt><trkpt lat="41.55184474234142" lon="12.730425481449227"><ele>39.66666666666667</ele><time>2026-04-26T12:09:16.999Z</time></trkpt><trkpt lat="41.551645649929675" lon="12.730310074977153"><ele>40.0</ele><time>2026-04-26T12:09:17.998Z</time></trkpt><trkpt lat="41.55144275883337" lon="12.73020239714776"><ele>40.0</ele><time>2026-04-26T12:09:18.998Z</time></trkpt><trkpt lat="41.5512282844217" lon="12.730106282505849"><ele>40.0</ele><time>2026-04-26T12:09:19.998Z</time></trkpt><trkpt lat="41.551006610538714" lon="12.730022975955952"><ele>40.0</ele><time>2026-04-26T12:09:20.998Z</time></trkpt><trkpt lat="41.55079879221842" lon="12.729956295583802"><ele>40.0</ele><time>2026-04-26T12:09:21.998Z</time></trkpt><trkpt lat="41.55060888123745" lon="12.729881780497715"><ele>40.0</ele><time>2026-04-26T12:09:22.998Z</time></trkpt><trkpt lat="41.550429541846675" lon="12.729816748824984"><ele>40.333333333333336</ele><time>2026-04-26T12:09:23.998Z</time></trkpt><trkpt lat="41.55024774659927" lon="12.729755067351253"><ele>40.666666666666664</ele><time>2026-04-26T12:09:25Z</time></trkpt><trkpt lat="41.5500655562991" lon="12.729703547394395"><ele>41.0</ele><time>2026-04-26T12:09:26Z</time></trkpt><trkpt lat="41.54987658799523" lon="12.729680121133825"><ele>41.0</ele><time>2026-04-26T12:09:27Z</time></trkpt><trkpt lat="41.54967807332812" lon="12.729667765372309"><ele>41.0</ele><time>2026-04-26T12:09:28Z</time></trkpt><trkpt lat="41.54947343701586" lon="12.72967460581537"><ele>41.0</ele><time>2026-04-26T12:09:29Z</time></trkpt><trkpt lat="41.54926207936431" lon="12.729694240522665"><ele>41.0</ele><time>2026-04-26T12:09:30Z</time></trkpt><trkpt lat="41.549044087075856" lon="12.729729278816318"><ele>41.0</ele><time>2026-04-26T12:09:31Z</time></trkpt><trkpt lat="41.5488210934437" lon="12.729769884658477"><ele>41.0</ele><time>2026-04-26T12:09:32Z</time></trkpt><trkpt lat="41.54859426272465" lon="12.729807741702256"><ele>41.0</ele><time>2026-04-26T12:09:33Z</time></trkpt><trkpt lat="41.54838247155434" lon="12.72983580102438"><ele>41.0</ele><time>2026-04-26T12:09:34Z</time></trkpt><trkpt lat="41.548170147952916" lon="12.729868607191868"><ele>41.0</ele><time>2026-04-26T12:09:35Z</time></trkpt><trkpt lat="41.54796044601228" lon="12.729903046249328"><ele>40.33333333333333</ele><time>2026-04-26T12:09:36Z</time></trkpt><trkpt lat="41.54776973915028" lon="12.729930086451978"><ele>39.666666666666664</ele><time>2026-04-26T12:09:37Z</time></trkpt><trkpt lat="41.54758530867288" lon="12.72996128660897"><ele>39.0</ele><time>2026-04-26T12:09:38Z</time></trkpt><trkpt lat="41.54740459454584" lon="12.73001378674337"><ele>39.0</ele><time>2026-04-26T12:09:39Z</time></trkpt><trkpt lat="41.5472198076157" lon="12.730090725143855"><ele>39.0</ele><time>2026-04-26T12:09:40Z</time></trkpt><trkpt lat="41.54703274128508" lon="12.73017743495131"><ele>39.0</ele><time>2026-04-26T12:09:41Z</time></trkpt><trkpt lat="41.54683829741542" lon="12.73026520410307"><ele>38.666666666666664</ele><time>2026-04-26T12:09:42Z</time></trkpt><trkpt lat="41.54663476971641" lon="12.730359011174173"><ele>38.33333333333333</ele><time>2026-04-26T12:09:43Z</time></trkpt><trkpt lat="41.546422933662434" lon="12.73045395440098"><ele>38.0</ele><time>2026-04-26T12:09:44Z</time></trkpt><trkpt lat="41.54620633170219" lon="12.730549050605257"><ele>38.0</ele><time>2026-04-26T12:09:45Z</time></trkpt><trkpt lat="41.54599787709204" lon="12.730642052161976"><ele>38.0</ele><time>2026-04-26T12:09:46Z</time></trkpt><trkpt lat="41.54579820251692" lon="12.730723948029187"><ele>38.0</ele><time>2026-04-26T12:09:47Z</time></trkpt><trkpt lat="41.54559349526748" lon="12.730807414398152"><ele>38.0</ele><time>2026-04-26T12:09:48Z</time></trkpt><trkpt lat="41.545388123137194" lon="12.730886528010629"><ele>38.0</ele><time>2026-04-26T12:09:49Z</time></trkpt><trkpt lat="41.545182599708966" lon="12.73096206802065"><ele>38.0</ele><time>2026-04-26T12:09:50Z</time></trkpt><trkpt lat="41.54497718610735" lon="12.731020264066917"><ele>37.666666666666664</ele><time>2026-04-26T12:09:51Z</time></trkpt><trkpt lat="41.54478220785638" lon="12.731054014496175"><ele>37.333333333333336</ele><time>2026-04-26T12:09:52Z</time></trkpt><trkpt lat="41.544598869378156" lon="12.731056408953775"><ele>37.0</ele><time>2026-04-26T12:09:53Z</time></trkpt><trkpt lat="41.54441066716401" lon="12.731049477175972"><ele>36.66666666666667</ele><time>2026-04-26T12:09:54Z</time></trkpt><trkpt lat="41.544219862189365" lon="12.731038655321356"><ele>36.333333333333336</ele><time>2026-04-26T12:09:55Z</time></trkpt><trkpt lat="41.54402532018073" lon="12.731028437159853"><ele>36.0</ele><time>2026-04-26T12:09:56Z</time></trkpt><trkpt lat="41.543829374891594" lon="12.731008679047767"><ele>36.333333333333336</ele><time>2026-04-26T12:09:57Z</time></trkpt><trkpt lat="41.543630876909674" lon="12.730971609036505"><ele>36.66666666666667</ele><time>2026-04-26T12:09:58Z</time></trkpt><trkpt lat="41.54343129131276" lon="12.730925623992107"><ele>37.0</ele><time>2026-04-26T12:09:59Z</time></trkpt><trkpt lat="41.54324802831108" lon="12.730876033489272"><ele>37.0</ele><time>2026-04-26T12:10:00Z</time></trkpt><trkpt lat="41.543071372857035" lon="12.730826988124896"><ele>37.0</ele><time>2026-04-26T12:10:01Z</time></trkpt><trkpt lat="41.542894287448966" lon="12.730777312450504"><ele>37.0</ele><time>2026-04-26T12:10:02Z</time></trkpt><trkpt lat="41.54271990241651" lon="12.730728481119872"><ele>37.333333333333336</ele><time>2026-04-26T12:10:03Z</time></trkpt><trkpt lat="41.542547343829426" lon="12.730683016318073"><ele>37.666666666666664</ele><time>2026-04-26T12:10:04Z</time></trkpt><trkpt lat="41.54238443256445" lon="12.730645850430756"><ele>38.0</ele><time>2026-04-26T12:10:05Z</time></trkpt><trkpt lat="41.54223507025673" lon="12.730609825044526"><ele>38.0</ele><time>2026-04-26T12:10:06Z</time></trkpt><trkpt lat="41.542092118834084" lon="12.730569525131655"><ele>38.0</ele><time>2026-04-26T12:10:07Z</time></trkpt><trkpt lat="41.54195583739886" lon="12.730527364465202"><ele>38.0</ele><time>2026-04-26T12:10:08Z</time></trkpt><trkpt lat="41.54181411274237" lon="12.73049089155543"><ele>38.0</ele><time>2026-04-26T12:10:09Z</time></trkpt><trkpt lat="41.54167266770191" lon="12.730454281106052"><ele>38.0</ele><time>2026-04-26T12:10:10Z</time></trkpt><trkpt lat="41.54153077977729" lon="12.730416581359407"><ele>38.0</ele><time>2026-04-26T12:10:11Z</time></trkpt><trkpt lat="41.54138992813134" lon="12.730376844410237"><ele>38.0</ele><time>2026-04-26T12:10:12Z</time></trkpt><trkpt lat="41.54124492033015" lon="12.73034087366411"><ele>38.0</ele><time>2026-04-26T12:10:13Z</time></trkpt><trkpt lat="41.541095162059435" lon="12.730305029728523"><ele>38.0</ele><time>2026-04-26T12:10:14Z</time></trkpt><trkpt lat="41.54094129341543" lon="12.730266352692544"><ele>38.0</ele><time>2026-04-26T12:10:15Z</time></trkpt><trkpt lat="41.540783592617615" lon="12.730223899619206"><ele>38.0</ele><time>2026-04-26T12:10:16Z</time></trkpt><trkpt lat="41.54061935711404" lon="12.730179012214554"><ele>38.0</ele><time>2026-04-26T12:10:17Z</time></trkpt><trkpt lat="41.54044449929474" lon="12.730138387781015"><ele>38.0</ele><time>2026-04-26T12:10:18Z</time></trkpt><trkpt lat="41.54028548391244" lon="12.730098135524386"><ele>38.0</ele><time>2026-04-26T12:10:19Z</time></trkpt><trkpt lat="41.54014035730073" lon="12.730054885697285"><ele>38.25</ele><time>2026-04-26T12:10:20Z</time></trkpt><trkpt lat="41.54000681116696" lon="12.730015519386347"><ele>38.5</ele><time>2026-04-26T12:10:21Z</time></trkpt><trkpt lat="41.539882324824354" lon="12.729987024248578"><ele>38.75</ele><time>2026-04-26T12:10:22Z</time></trkpt><trkpt lat="41.539773503969215" lon="12.729963797950486"><ele>39.0</ele><time>2026-04-26T12:10:23Z</time></trkpt><trkpt lat="41.53968085791539" lon="12.7299473721507"><ele>39.0</ele><time>2026-04-26T12:10:24Z</time></trkpt><trkpt lat="41.53959650970079" lon="12.729931353741582"><ele>39.0</ele><time>2026-04-26T12:10:25Z</time></trkpt><trkpt lat="41.53951631568588" lon="12.729915608618851"><ele>39.0</ele><time>2026-04-26T12:10:26Z</time></trkpt><trkpt lat="41.53944232468878" lon="12.729892329335684"><ele>39.0</ele><time>2026-04-26T12:10:27Z</time></trkpt><trkpt lat="41.539358104196786" lon="12.729853152981715"><ele>39.0</ele><time>2026-04-26T12:10:28Z</time></trkpt><trkpt lat="41.53929267683051" lon="12.72977329898183"><ele>39.0</ele><time>2026-04-26T12:10:28.999Z</time></trkpt><trkpt lat="41.5392663391525" lon="12.729671314343236"><ele>39.0</ele><time>2026-04-26T12:10:29.999Z</time></trkpt><trkpt lat="41.53927794070094" lon="12.7295464022437"><ele>39.0</ele><time>2026-04-26T12:10:30.999Z</time></trkpt><trkpt lat="41.5393047484197" lon="12.72941236702383"><ele>39.0</ele><time>2026-04-26T12:10:31.999Z</time></trkpt><trkpt lat="41.539336307157186" lon="12.729247620062196"><ele>39.0</ele><time>2026-04-26T12:10:32.999Z</time></trkpt><trkpt lat="41.539366319448725" lon="12.729055937952007"><ele>39.0</ele><time>2026-04-26T12:10:33.999Z</time></trkpt><trkpt lat="41.539394048748356" lon="12.728871521577522"><ele>39.0</ele><time>2026-04-26T12:10:34.999Z</time></trkpt><trkpt lat="41.53941735446084" lon="12.728670924616358"><ele>39.0</ele><time>2026-04-26T12:10:35.999Z</time></trkpt><trkpt lat="41.53944257527096" lon="12.728472030547751"><ele>39.0</ele><time>2026-04-26T12:10:36.999Z</time></trkpt><trkpt lat="41.5394683015225" lon="12.728289403018108"><ele>38.5</ele><time>2026-04-26T12:10:37.999Z</time></trkpt><trkpt lat="41.539487609029294" lon="12.72812494049456"><ele>38.0</ele><time>2026-04-26T12:10:38.999Z</time></trkpt><trkpt lat="41.53950587705985" lon="12.72797423236373"><ele>37.5</ele><time>2026-04-26T12:10:39.999Z</time></trkpt><trkpt lat="41.539521534546715" lon="12.72783198636892"><ele>37.0</ele><time>2026-04-26T12:10:40.999Z</time></trkpt><trkpt lat="41.539536219191966" lon="12.7276891232475"><ele>37.4</ele><time>2026-04-26T12:10:41.999Z</time></trkpt><trkpt lat="41.539551875013736" lon="12.727548011165807"><ele>37.800000000000004</ele><time>2026-04-26T12:10:42.999Z</time></trkpt><trkpt lat="41.539568692691425" lon="12.72740348376331"><ele>38.2</ele><time>2026-04-26T12:10:43.999Z</time></trkpt><trkpt lat="41.53958808212507" lon="12.72725824212107"><ele>38.6</ele><time>2026-04-26T12:10:44.999Z</time></trkpt><trkpt lat="41.539608207986134" lon="12.727100984733347"><ele>39.0</ele><time>2026-04-26T12:10:45.999Z</time></trkpt><trkpt lat="41.53963022886858" lon="12.726929396787344"><ele>39.0</ele><time>2026-04-26T12:10:46.999Z</time></trkpt><trkpt lat="41.53965492331125" lon="12.726744176946525"><ele>39.0</ele><time>2026-04-26T12:10:47.999Z</time></trkpt><trkpt lat="41.5396799380059" lon="12.726545458347458"><ele>39.0</ele><time>2026-04-26T12:10:48.999Z</time></trkpt><trkpt lat="41.53970976516806" lon="12.726342396554688"><ele>39.0</ele><time>2026-04-26T12:10:49.999Z</time></trkpt><trkpt lat="41.53973965888766" lon="12.726131381122265"><ele>39.0</ele><time>2026-04-26T12:10:50.999Z</time></trkpt><trkpt lat="41.53976820957243" lon="12.725938372644476"><ele>39.0</ele><time>2026-04-26T12:10:51.999Z</time></trkpt><trkpt lat="41.539805238187185" lon="12.725734882248457"><ele>39.0</ele><time>2026-04-26T12:10:52.999Z</time></trkpt><trkpt lat="41.53985818551148" lon="12.725529824587218"><ele>39.0</ele><time>2026-04-26T12:10:53.999Z</time></trkpt><trkpt lat="41.53992363811238" lon="12.725355404819153"><ele>39.0</ele><time>2026-04-26T12:10:54.999Z</time></trkpt><trkpt lat="41.54000539767779" lon="12.725201210889725"><ele>39.0</ele><time>2026-04-26T12:10:55.999Z</time></trkpt><trkpt lat="41.540097746503" lon="12.725043361369"><ele>39.0</ele><time>2026-04-26T12:10:56.999Z</time></trkpt><trkpt lat="41.540194461291144" lon="12.72489381663655"><ele>39.0</ele><time>2026-04-26T12:10:57.999Z</time></trkpt><trkpt lat="41.54028977547668" lon="12.72477360013295"><ele>39.0</ele><time>2026-04-26T12:10:58.999Z</time></trkpt><trkpt lat="41.54039007734869" lon="12.724671912855731"><ele>39.0</ele><time>2026-04-26T12:10:59.999Z</time></trkpt><trkpt lat="41.54049054834007" lon="12.724553484001097"><ele>39.0</ele><time>2026-04-26T12:11:00.999Z</time></trkpt><trkpt lat="41.540590650556695" lon="12.724433402886412"><ele>38.25</ele><time>2026-04-26T12:11:01.999Z</time></trkpt><trkpt lat="41.540688327767846" lon="12.724308886450789"><ele>37.5</ele><time>2026-04-26T12:11:02.999Z</time></trkpt><trkpt lat="41.54076687238307" lon="12.724157744821433"><ele>36.75</ele><time>2026-04-26T12:11:03.999Z</time></trkpt><trkpt lat="41.5408175222946" lon="12.723997016825802"><ele>36.0</ele><time>2026-04-26T12:11:04.999Z</time></trkpt><trkpt lat="41.540836471830836" lon="12.72382256910401"><ele>36.0</ele><time>2026-04-26T12:11:05.999Z</time></trkpt><trkpt lat="41.54084160267755" lon="12.723648988281814"><ele>36.0</ele><time>2026-04-26T12:11:06.999Z</time></trkpt><trkpt lat="41.540820939436" lon="12.723488644998408"><ele>36.0</ele><time>2026-04-26T12:11:07.999Z</time></trkpt><trkpt lat="41.54079744928829" lon="12.723351597603891"><ele>36.0</ele><time>2026-04-26T12:11:08.999Z</time></trkpt><trkpt lat="41.54080257814487" lon="12.723226128900324"><ele>36.0</ele><time>2026-04-26T12:11:09.999Z</time></trkpt><trkpt lat="41.540766816904345" lon="12.723123219163622"><ele>36.0</ele><time>2026-04-26T12:11:10.999Z</time></trkpt><trkpt lat="41.54076811856269" lon="12.723035023029903"><ele>36.0</ele><time>2026-04-26T12:11:11.999Z</time></trkpt><trkpt lat="41.5406368971029" lon="12.722981613844306"><ele>36.0</ele><time>2026-04-26T12:11:12.999Z</time></trkpt><trkpt lat="41.54053326426778" lon="12.722931456284343"><ele>36.0</ele><time>2026-04-26T12:11:13.999Z</time></trkpt><trkpt lat="41.54042221573888" lon="12.72286837323118"><ele>36.75</ele><time>2026-04-26T12:11:14.999Z</time></trkpt><trkpt lat="41.54030508959162" lon="12.722785593853343"><ele>37.5</ele><time>2026-04-26T12:11:15.999Z</time></trkpt><trkpt lat="41.5401975207113" lon="12.722686481321109"><ele>38.25</ele><time>2026-04-26T12:11:16.999Z</time></trkpt><trkpt lat="41.54008347129336" lon="12.722593193815893"><ele>39.0</ele><time>2026-04-26T12:11:17.999Z</time></trkpt><trkpt lat="41.53996267545651" lon="12.722492856101423"><ele>39.0</ele><time>2026-04-26T12:11:18.999Z</time></trkpt><trkpt lat="41.539862153509546" lon="12.722406078899311"><ele>39.0</ele><time>2026-04-26T12:11:19.999Z</time></trkpt><trkpt lat="41.53977811741725" lon="12.722331991415222"><ele>39.0</ele><time>2026-04-26T12:11:20.999Z</time></trkpt><trkpt lat="41.539707050094435" lon="12.722264003294107"><ele>39.0</ele><time>2026-04-26T12:11:21.998Z</time></trkpt><trkpt lat="41.53964721621406" lon="12.722190638196006"><ele>39.0</ele><time>2026-04-26T12:11:22.998Z</time></trkpt><trkpt lat="41.53961508570295" lon="12.72207788183979"><ele>39.0</ele><time>2026-04-26T12:11:23.998Z</time></trkpt><trkpt lat="41.53959810757954" lon="12.721943862387812"><ele>39.0</ele><time>2026-04-26T12:11:24.998Z</time></trkpt><trkpt lat="41.53970567585639" lon="12.721850766861746"><ele>39.0</ele><time>2026-04-26T12:11:25.998Z</time></trkpt><trkpt lat="41.539771565528156" lon="12.721727879732082"><ele>39.0</ele><time>2026-04-26T12:11:26.998Z</time></trkpt><trkpt lat="41.53984036470378" lon="12.721598446407137"><ele>39.4</ele><time>2026-04-26T12:11:27.998Z</time></trkpt><trkpt lat="41.539917920967" lon="12.721464806674392"><ele>39.8</ele><time>2026-04-26T12:11:28.998Z</time></trkpt><trkpt lat="41.53999283229774" lon="12.721368737782328"><ele>40.199999999999996</ele><time>2026-04-26T12:11:30Z</time></trkpt><trkpt lat="41.54007463838175" lon="12.721325291287444"><ele>40.599999999999994</ele><time>2026-04-26T12:11:31Z</time></trkpt><trkpt lat="41.54017192853029" lon="12.72131440303994"><ele>41.0</ele><time>2026-04-26T12:11:32Z</time></trkpt><trkpt lat="41.54027258781956" lon="12.721325381907432"><ele>41.0</ele><time>2026-04-26T12:11:33Z</time></trkpt><trkpt lat="41.54036168385922" lon="12.721399440584815"><ele>41.0</ele><time>2026-04-26T12:11:34Z</time></trkpt><trkpt lat="41.54043219691315" lon="12.721503720866027"><ele>41.0</ele><time>2026-04-26T12:11:35Z</time></trkpt><trkpt lat="41.54047487006339" lon="12.721648750453287"><ele>41.0</ele><time>2026-04-26T12:11:36Z</time></trkpt><trkpt lat="41.54048170813161" lon="12.721826663391726"><ele>40.5</ele><time>2026-04-26T12:11:37Z</time></trkpt><trkpt lat="41.54047208715147" lon="12.722015733842476"><ele>40.0</ele><time>2026-04-26T12:11:38Z</time></trkpt><trkpt lat="41.54044099983715" lon="12.722207597453192"><ele>39.5</ele><time>2026-04-26T12:11:39Z</time></trkpt><trkpt lat="41.540392406394766" lon="12.722403654303022"><ele>39.0</ele><time>2026-04-26T12:11:40Z</time></trkpt><trkpt lat="41.54032080114901" lon="12.722608026601174"><ele>39.333333333333336</ele><time>2026-04-26T12:11:41Z</time></trkpt><trkpt lat="41.54023562143171" lon="12.722796671523486"><ele>39.66666666666667</ele><time>2026-04-26T12:11:42Z</time></trkpt><trkpt lat="41.540145260175606" lon="12.722991201646595"><ele>40.0</ele><time>2026-04-26T12:11:43Z</time></trkpt><trkpt lat="41.5400476761066" lon="12.723210317549901"><ele>40.0</ele><time>2026-04-26T12:11:44Z</time></trkpt><trkpt lat="41.53994828848177" lon="12.723440628949724"><ele>40.0</ele><time>2026-04-26T12:11:45Z</time></trkpt><trkpt lat="41.53985522024556" lon="12.723664212121067"><ele>40.0</ele><time>2026-04-26T12:11:46Z</time></trkpt><trkpt lat="41.53975911868817" lon="12.7238823983891"><ele>40.0</ele><time>2026-04-26T12:11:47Z</time></trkpt><trkpt lat="41.53965249665928" lon="12.724114019359087"><ele>40.0</ele><time>2026-04-26T12:11:48Z</time></trkpt><trkpt lat="41.539541641886665" lon="12.72435898821843"><ele>40.0</ele><time>2026-04-26T12:11:49Z</time></trkpt><trkpt lat="41.53943381125128" lon="12.724591508067919"><ele>39.66666666666667</ele><time>2026-04-26T12:11:50Z</time></trkpt><trkpt lat="41.53933268049431" lon="12.724819087660137"><ele>39.333333333333336</ele><time>2026-04-26T12:11:51Z</time></trkpt><trkpt lat="41.539230083682" lon="12.725046968579445"><ele>39.0</ele><time>2026-04-26T12:11:52Z</time></trkpt><trkpt lat="41.5391233586051" lon="12.72527903333642"><ele>38.333333333333336</ele><time>2026-04-26T12:11:53Z</time></trkpt><trkpt lat="41.53901402628659" lon="12.725524293971548"><ele>37.66666666666667</ele><time>2026-04-26T12:11:54Z</time></trkpt><trkpt lat="41.53889974668318" lon="12.725773717626407"><ele>37.0</ele><time>2026-04-26T12:11:55Z</time></trkpt><trkpt lat="41.53878380874663" lon="12.726026120431062"><ele>36.5</ele><time>2026-04-26T12:11:56Z</time></trkpt><trkpt lat="41.538665035237514" lon="12.726280985181054"><ele>36.0</ele><time>2026-04-26T12:11:57Z</time></trkpt><trkpt lat="41.5385456775374" lon="12.726537529579932"><ele>36.0</ele><time>2026-04-26T12:11:58Z</time></trkpt><trkpt lat="41.5384367339946" lon="12.726803258218952"><ele>36.0</ele><time>2026-04-26T12:11:59Z</time></trkpt><trkpt lat="41.538318785844766" lon="12.72707179799773"><ele>36.333333333333336</ele><time>2026-04-26T12:12:00Z</time></trkpt><trkpt lat="41.538209605007765" lon="12.727322040842466"><ele>36.66666666666667</ele><time>2026-04-26T12:12:01Z</time></trkpt><trkpt lat="41.538093385261305" lon="12.727571095425166"><ele>37.0</ele><time>2026-04-26T12:12:02Z</time></trkpt><trkpt lat="41.537975581876736" lon="12.727825417433342"><ele>36.5</ele><time>2026-04-26T12:12:03Z</time></trkpt><trkpt lat="41.53785561162012" lon="12.728082071709958"><ele>36.0</ele><time>2026-04-26T12:12:04Z</time></trkpt><trkpt lat="41.5377359548542" lon="12.728342783158547"><ele>36.333333333333336</ele><time>2026-04-26T12:12:05Z</time></trkpt><trkpt lat="41.53762249965494" lon="12.728601743782574"><ele>36.66666666666667</ele><time>2026-04-26T12:12:06Z</time></trkpt><trkpt lat="41.53751206404237" lon="12.728856491934911"><ele>37.0</ele><time>2026-04-26T12:12:07Z</time></trkpt><trkpt lat="41.537409348915475" lon="12.72911295886686"><ele>37.0</ele><time>2026-04-26T12:12:08Z</time></trkpt><trkpt lat="41.53730834150954" lon="12.729379914239228"><ele>37.0</ele><time>2026-04-26T12:12:09Z</time></trkpt><trkpt lat="41.537218297326724" lon="12.729655885419096"><ele>37.0</ele><time>2026-04-26T12:12:10Z</time></trkpt><trkpt lat="41.537137423157525" lon="12.729942651749397"><ele>37.0</ele><time>2026-04-26T12:12:11Z</time></trkpt><trkpt lat="41.5370643928148" lon="12.730235517401034"><ele>37.0</ele><time>2026-04-26T12:12:12Z</time></trkpt><trkpt lat="41.53699694551913" lon="12.730538237295063"><ele>37.0</ele><time>2026-04-26T12:12:13Z</time></trkpt><trkpt lat="41.53693741706951" lon="12.73084667364363"><ele>37.0</ele><time>2026-04-26T12:12:14Z</time></trkpt><trkpt lat="41.53688260748663" lon="12.731155613503669"><ele>36.5</ele><time>2026-04-26T12:12:15Z</time></trkpt><trkpt lat="41.536833833664645" lon="12.731463821625102"><ele>36.0</ele><time>2026-04-26T12:12:16Z</time></trkpt><trkpt lat="41.5367997501482" lon="12.731776413737242"><ele>35.5</ele><time>2026-04-26T12:12:17Z</time></trkpt><trkpt lat="41.53677484281263" lon="12.732092801949893"><ele>35.0</ele><time>2026-04-26T12:12:18Z</time></trkpt><trkpt lat="41.53675488831931" lon="12.732413866618336"><ele>35.0</ele><time>2026-04-26T12:12:19Z</time></trkpt><trkpt lat="41.53674550267025" lon="12.732731821706533"><ele>35.0</ele><time>2026-04-26T12:12:20Z</time></trkpt><trkpt lat="41.53674792999937" lon="12.733041488917204"><ele>35.0</ele><time>2026-04-26T12:12:21Z</time></trkpt><trkpt lat="41.53676186181532" lon="12.733346566572678"><ele>35.0</ele><time>2026-04-26T12:12:22Z</time></trkpt><trkpt lat="41.53676263953236" lon="12.733656262972314"><ele>34.0</ele><time>2026-04-26T12:12:23Z</time></trkpt><trkpt lat="41.53676569039332" lon="12.733965723700717"><ele>33.0</ele><time>2026-04-26T12:12:24Z</time></trkpt><trkpt lat="41.53677150029636" lon="12.734279124706974"><ele>33.0</ele><time>2026-04-26T12:12:25Z</time></trkpt><trkpt lat="41.536770440851384" lon="12.734602686030572"><ele>33.0</ele><time>2026-04-26T12:12:26Z</time></trkpt><trkpt lat="41.536765217664986" lon="12.734921653388161"><ele>33.0</ele><time>2026-04-26T12:12:26.999Z</time></trkpt><trkpt lat="41.5367619054884" lon="12.735220335182934"><ele>33.0</ele><time>2026-04-26T12:12:27.999Z</time></trkpt><trkpt lat="41.53675878346646" lon="12.73551834139752"><ele>33.0</ele><time>2026-04-26T12:12:28.999Z</time></trkpt><trkpt lat="41.53675030039495" lon="12.735816528045866"><ele>34.0</ele><time>2026-04-26T12:12:29.999Z</time></trkpt><trkpt lat="41.536728781531984" lon="12.736118483030602"><ele>35.0</ele><time>2026-04-26T12:12:30.999Z</time></trkpt><trkpt lat="41.53669345437663" lon="12.736418235656345"><ele>35.0</ele><time>2026-04-26T12:12:31.999Z</time></trkpt><trkpt lat="41.53664906481537" lon="12.736716719352358"><ele>35.0</ele><time>2026-04-26T12:12:32.999Z</time></trkpt><trkpt lat="41.536593467036354" lon="12.737015004405015"><ele>35.5</ele><time>2026-04-26T12:12:33.999Z</time></trkpt><trkpt lat="41.536528061942015" lon="12.737316565450989"><ele>36.0</ele><time>2026-04-26T12:12:34.999Z</time></trkpt><trkpt lat="41.536458292247836" lon="12.73759877179865"><ele>35.666666666666664</ele><time>2026-04-26T12:12:35.999Z</time></trkpt><trkpt lat="41.53638070690581" lon="12.73787309880729"><ele>35.33333333333333</ele><time>2026-04-26T12:12:36.999Z</time></trkpt><trkpt lat="41.536293999557614" lon="12.738142810744055"><ele>35.0</ele><time>2026-04-26T12:12:37.999Z</time></trkpt><trkpt lat="41.53620125272756" lon="12.738412452286271"><ele>35.0</ele><time>2026-04-26T12:12:38.999Z</time></trkpt><trkpt lat="41.53609662003343" lon="12.738680332388565"><ele>35.0</ele><time>2026-04-26T12:12:39.999Z</time></trkpt><trkpt lat="41.535977636252525" lon="12.738944292329387"><ele>35.0</ele><time>2026-04-26T12:12:40.999Z</time></trkpt><trkpt lat="41.53585562940659" lon="12.739205944701833"><ele>35.0</ele><time>2026-04-26T12:12:41.999Z</time></trkpt><trkpt lat="41.5357350610585" lon="12.739474109733807"><ele>35.5</ele><time>2026-04-26T12:12:42.999Z</time></trkpt><trkpt lat="41.53561846872164" lon="12.739748275119807"><ele>36.0</ele><time>2026-04-26T12:12:43.999Z</time></trkpt><trkpt lat="41.53549251899477" lon="12.740024804546925"><ele>34.5</ele><time>2026-04-26T12:12:44.999Z</time></trkpt><trkpt lat="41.53536439125824" lon="12.740304623780544"><ele>33.0</ele><time>2026-04-26T12:12:45.999Z</time></trkpt><trkpt lat="41.53523590736209" lon="12.74058615636251"><ele>33.0</ele><time>2026-04-26T12:12:46.999Z</time></trkpt><trkpt lat="41.53510892352741" lon="12.74087885648974"><ele>33.0</ele><time>2026-04-26T12:12:47.999Z</time></trkpt><trkpt lat="41.53498990572429" lon="12.741158619455929"><ele>32.5</ele><time>2026-04-26T12:12:48.999Z</time></trkpt><trkpt lat="41.53486669704591" lon="12.741434324586967"><ele>32.0</ele><time>2026-04-26T12:12:49.999Z</time></trkpt><trkpt lat="41.53474427098841" lon="12.741719744348265"><ele>32.0</ele><time>2026-04-26T12:12:50.999Z</time></trkpt><trkpt lat="41.53462134567147" lon="12.742004055521251"><ele>32.0</ele><time>2026-04-26T12:12:51.999Z</time></trkpt><trkpt lat="41.53449386195015" lon="12.742286537328447"><ele>32.0</ele><time>2026-04-26T12:12:52.999Z</time></trkpt><trkpt lat="41.53436632804923" lon="12.742567590615312"><ele>32.0</ele><time>2026-04-26T12:12:53.999Z</time></trkpt><trkpt lat="41.53423460837164" lon="12.742858012685181"><ele>33.0</ele><time>2026-04-26T12:12:54.999Z</time></trkpt><trkpt lat="41.53410061764615" lon="12.743147348267243"><ele>34.0</ele><time>2026-04-26T12:12:55.999Z</time></trkpt><trkpt lat="41.533959039884" lon="12.743447585161775"><ele>33.0</ele><time>2026-04-26T12:12:56.999Z</time></trkpt><trkpt lat="41.53382119583322" lon="12.743747190074417"><ele>32.0</ele><time>2026-04-26T12:12:57.999Z</time></trkpt><trkpt lat="41.53369334242261" lon="12.744031525631257"><ele>32.0</ele><time>2026-04-26T12:12:58.999Z</time></trkpt><trkpt lat="41.533556186730564" lon="12.744310592750448"><ele>32.0</ele><time>2026-04-26T12:12:59.999Z</time></trkpt><trkpt lat="41.533411291351186" lon="12.744597039957394"><ele>31.0</ele><time>2026-04-26T12:13:00.999Z</time></trkpt><trkpt lat="41.53327360788302" lon="12.744876827275837"><ele>30.0</ele><time>2026-04-26T12:13:01.999Z</time></trkpt><trkpt lat="41.53314020985054" lon="12.745171918300928"><ele>30.0</ele><time>2026-04-26T12:13:02.999Z</time></trkpt><trkpt lat="41.53301331621463" lon="12.745467649981517"><ele>30.0</ele><time>2026-04-26T12:13:03.999Z</time></trkpt><trkpt lat="41.532887892694376" lon="12.745767096727246"><ele>29.5</ele><time>2026-04-26T12:13:04.999Z</time></trkpt><trkpt lat="41.53275382430702" lon="12.746075461543661"><ele>29.0</ele><time>2026-04-26T12:13:05.999Z</time></trkpt><trkpt lat="41.53261566619918" lon="12.746360320138926"><ele>29.0</ele><time>2026-04-26T12:13:06.999Z</time></trkpt><trkpt lat="41.53247283553778" lon="12.746632743579397"><ele>29.0</ele><time>2026-04-26T12:13:07.999Z</time></trkpt><trkpt lat="41.532329227142974" lon="12.746910317471285"><ele>28.5</ele><time>2026-04-26T12:13:08.999Z</time></trkpt><trkpt lat="41.532195317669284" lon="12.74719832200887"><ele>28.0</ele><time>2026-04-26T12:13:09.999Z</time></trkpt><trkpt lat="41.53207427222143" lon="12.747466862883433"><ele>28.0</ele><time>2026-04-26T12:13:10.999Z</time></trkpt><trkpt lat="41.53195556893404" lon="12.747728133626433"><ele>28.0</ele><time>2026-04-26T12:13:11.999Z</time></trkpt><trkpt lat="41.53183491698597" lon="12.747996049804998"><ele>28.0</ele><time>2026-04-26T12:13:12.999Z</time></trkpt><trkpt lat="41.53171178474303" lon="12.748269534409935"><ele>28.0</ele><time>2026-04-26T12:13:13.999Z</time></trkpt><trkpt lat="41.531586465027594" lon="12.748545483153887"><ele>28.5</ele><time>2026-04-26T12:13:14.999Z</time></trkpt><trkpt lat="41.531459887507026" lon="12.74882100407173"><ele>29.0</ele><time>2026-04-26T12:13:15.999Z</time></trkpt><trkpt lat="41.5313325683821" lon="12.74910162096776"><ele>29.0</ele><time>2026-04-26T12:13:16.999Z</time></trkpt><trkpt lat="41.531208892602656" lon="12.749372166088564"><ele>29.0</ele><time>2026-04-26T12:13:17.999Z</time></trkpt><trkpt lat="41.53108710725455" lon="12.74963801921308"><ele>29.0</ele><time>2026-04-26T12:13:18.998Z</time></trkpt><trkpt lat="41.53096189637409" lon="12.749912082187539"><ele>29.0</ele><time>2026-04-26T12:13:19.998Z</time></trkpt><trkpt lat="41.53083199144472" lon="12.750196855258187"><ele>30.0</ele><time>2026-04-26T12:13:20.998Z</time></trkpt><trkpt lat="41.53069665662834" lon="12.750485035907797"><ele>31.0</ele><time>2026-04-26T12:13:21.998Z</time></trkpt><trkpt lat="41.53056541108845" lon="12.750764807471086"><ele>31.0</ele><time>2026-04-26T12:13:22.998Z</time></trkpt><trkpt lat="41.53044414527353" lon="12.751021329454193"><ele>31.0</ele><time>2026-04-26T12:13:23.998Z</time></trkpt><trkpt lat="41.53032729890484" lon="12.75127449734904"><ele>30.0</ele><time>2026-04-26T12:13:24.998Z</time></trkpt><trkpt lat="41.530214160426915" lon="12.751531779613282"><ele>29.0</ele><time>2026-04-26T12:13:25.998Z</time></trkpt><trkpt lat="41.53009796985423" lon="12.751794369538413"><ele>28.5</ele><time>2026-04-26T12:13:26.998Z</time></trkpt><trkpt lat="41.52997962366769" lon="12.752059298622873"><ele>28.0</ele><time>2026-04-26T12:13:27.998Z</time></trkpt><trkpt lat="41.52986571746794" lon="12.75231528692466"><ele>28.0</ele><time>2026-04-26T12:13:28.998Z</time></trkpt><trkpt lat="41.5297574158434" lon="12.75255342257789"><ele>28.0</ele><time>2026-04-26T12:13:29.998Z</time></trkpt><trkpt lat="41.52964723349194" lon="12.75278264302708"><ele>28.0</ele><time>2026-04-26T12:13:30.998Z</time></trkpt><trkpt lat="41.52953552282832" lon="12.753011971636177"><ele>28.0</ele><time>2026-04-26T12:13:31.998Z</time></trkpt><trkpt lat="41.529433601766506" lon="12.753244140015639"><ele>28.0</ele><time>2026-04-26T12:13:32.998Z</time></trkpt><trkpt lat="41.529338470413684" lon="12.753470532262542"><ele>28.0</ele><time>2026-04-26T12:13:33.998Z</time></trkpt><trkpt lat="41.529245239911376" lon="12.753683090469895"><ele>28.0</ele><time>2026-04-26T12:13:35Z</time></trkpt><trkpt lat="41.529147317888366" lon="12.753884630800194"><ele>28.0</ele><time>2026-04-26T12:13:36Z</time></trkpt><trkpt lat="41.52904140401319" lon="12.754082504542101"><ele>28.0</ele><time>2026-04-26T12:13:37Z</time></trkpt><trkpt lat="41.52894031144696" lon="12.754302960940917"><ele>28.0</ele><time>2026-04-26T12:13:38Z</time></trkpt><trkpt lat="41.528837577170265" lon="12.754539563779876"><ele>28.0</ele><time>2026-04-26T12:13:39Z</time></trkpt><trkpt lat="41.52873772623246" lon="12.754774126603412"><ele>28.0</ele><time>2026-04-26T12:13:40Z</time></trkpt><trkpt lat="41.52863658004145" lon="12.755005953885691"><ele>28.0</ele><time>2026-04-26T12:13:41Z</time></trkpt><trkpt lat="41.52853546908542" lon="12.75522346278448"><ele>28.0</ele><time>2026-04-26T12:13:42Z</time></trkpt><trkpt lat="41.52843051685493" lon="12.755439339887772"><ele>28.0</ele><time>2026-04-26T12:13:43Z</time></trkpt><trkpt lat="41.528324859611196" lon="12.755663684375806"><ele>28.0</ele><time>2026-04-26T12:13:44Z</time></trkpt><trkpt lat="41.528220296943154" lon="12.755890296234345"><ele>28.0</ele><time>2026-04-26T12:13:45Z</time></trkpt><trkpt lat="41.52811893993468" lon="12.756109390373059"><ele>28.0</ele><time>2026-04-26T12:13:46Z</time></trkpt><trkpt lat="41.528015228526776" lon="12.756333336769218"><ele>27.666666666666668</ele><time>2026-04-26T12:13:47Z</time></trkpt><trkpt lat="41.52791231853583" lon="12.756558949379663"><ele>27.333333333333336</ele><time>2026-04-26T12:13:48Z</time></trkpt><trkpt lat="41.527810308314365" lon="12.75679371579617"><ele>27.0</ele><time>2026-04-26T12:13:49Z</time></trkpt><trkpt lat="41.52770706215049" lon="12.757030295642949"><ele>27.0</ele><time>2026-04-26T12:13:50Z</time></trkpt><trkpt lat="41.52759939176545" lon="12.757276777654415"><ele>27.0</ele><time>2026-04-26T12:13:51Z</time></trkpt><trkpt lat="41.527487761743146" lon="12.75752215489103"><ele>27.0</ele><time>2026-04-26T12:13:52Z</time></trkpt><trkpt lat="41.52737534801878" lon="12.757773180387295"><ele>27.333333333333336</ele><time>2026-04-26T12:13:53Z</time></trkpt><trkpt lat="41.52726883039147" lon="12.758011912150868"><ele>27.666666666666668</ele><time>2026-04-26T12:13:54Z</time></trkpt><trkpt lat="41.52716273519735" lon="12.758249983359882"><ele>28.0</ele><time>2026-04-26T12:13:55Z</time></trkpt><trkpt lat="41.52705068444927" lon="12.758487992765888"><ele>28.5</ele><time>2026-04-26T12:13:56Z</time></trkpt><trkpt lat="41.526932938277575" lon="12.758734342603935"><ele>29.0</ele><time>2026-04-26T12:13:57Z</time></trkpt><trkpt lat="41.52681152654382" lon="12.758999149065353"><ele>29.0</ele><time>2026-04-26T12:13:58Z</time></trkpt><trkpt lat="41.526699906233574" lon="12.759252623533996"><ele>29.0</ele><time>2026-04-26T12:13:59Z</time></trkpt><trkpt lat="41.526586927090335" lon="12.7595059403897"><ele>29.0</ele><time>2026-04-26T12:14:00Z</time></trkpt><trkpt lat="41.52647157579575" lon="12.759762006399741"><ele>29.666666666666664</ele><time>2026-04-26T12:14:01Z</time></trkpt><trkpt lat="41.526354930326" lon="12.760015534588916"><ele>30.333333333333336</ele><time>2026-04-26T12:14:02Z</time></trkpt><trkpt lat="41.52623128451705" lon="12.760269303855102"><ele>31.0</ele><time>2026-04-26T12:14:03Z</time></trkpt><trkpt lat="41.52612509714413" lon="12.760527558279135"><ele>31.333333333333336</ele><time>2026-04-26T12:14:04Z</time></trkpt><trkpt lat="41.526012979955176" lon="12.760781638005488"><ele>31.666666666666664</ele><time>2026-04-26T12:14:05Z</time></trkpt><trkpt lat="41.52590825800856" lon="12.761019960746223"><ele>32.0</ele><time>2026-04-26T12:14:06Z</time></trkpt><trkpt lat="41.52579841645626" lon="12.761253120925613"><ele>32.33333333333333</ele><time>2026-04-26T12:14:07Z</time></trkpt><trkpt lat="41.525685860741596" lon="12.76149131292547"><ele>32.666666666666664</ele><time>2026-04-26T12:14:08Z</time></trkpt><trkpt lat="41.525572838336515" lon="12.761735543517027"><ele>33.0</ele><time>2026-04-26T12:14:09Z</time></trkpt><trkpt lat="41.52545938128398" lon="12.761982767229165"><ele>33.333333333333336</ele><time>2026-04-26T12:14:10Z</time></trkpt><trkpt lat="41.525345698462644" lon="12.762233396099148"><ele>33.66666666666667</ele><time>2026-04-26T12:14:11Z</time></trkpt><trkpt lat="41.52523130934657" lon="12.76249604525725"><ele>34.0</ele><time>2026-04-26T12:14:12Z</time></trkpt><trkpt lat="41.52511097276948" lon="12.762764639873481"><ele>34.0</ele><time>2026-04-26T12:14:13Z</time></trkpt><trkpt lat="41.524987938183294" lon="12.763039126038793"><ele>34.0</ele><time>2026-04-26T12:14:14Z</time></trkpt><trkpt lat="41.524865381592555" lon="12.763310974515353"><ele>34.333333333333336</ele><time>2026-04-26T12:14:15Z</time></trkpt><trkpt lat="41.5247484480714" lon="12.763562295008274"><ele>34.666666666666664</ele><time>2026-04-26T12:14:16Z</time></trkpt><trkpt lat="41.52463373939421" lon="12.763813360268278"><ele>35.0</ele><time>2026-04-26T12:14:17Z</time></trkpt><trkpt lat="41.52451610532804" lon="12.764062817269865"><ele>37.0</ele><time>2026-04-26T12:14:18Z</time></trkpt><trkpt lat="41.52439830681584" lon="12.764317533060419"><ele>39.0</ele><time>2026-04-26T12:14:19Z</time></trkpt><trkpt lat="41.52427473807752" lon="12.764576408184492"><ele>39.0</ele><time>2026-04-26T12:14:20Z</time></trkpt><trkpt lat="41.52415383611822" lon="12.764840021524051"><ele>39.0</ele><time>2026-04-26T12:14:21Z</time></trkpt><trkpt lat="41.52403207303284" lon="12.765103438513597"><ele>38.5</ele><time>2026-04-26T12:14:22Z</time></trkpt><trkpt lat="41.52390664097821" lon="12.765373002819496"><ele>38.0</ele><time>2026-04-26T12:14:23Z</time></trkpt><trkpt lat="41.523784741516444" lon="12.765636159003256"><ele>36.666666666666664</ele><time>2026-04-26T12:14:24Z</time></trkpt><trkpt lat="41.52366843539764" lon="12.765887207932192"><ele>35.333333333333336</ele><time>2026-04-26T12:14:25Z</time></trkpt><trkpt lat="41.52355168201843" lon="12.766138671986335"><ele>34.0</ele><time>2026-04-26T12:14:26Z</time></trkpt><trkpt lat="41.52343465249389" lon="12.766400296900773"><ele>34.0</ele><time>2026-04-26T12:14:27Z</time></trkpt><trkpt lat="41.523315330634695" lon="12.766663225423224"><ele>34.0</ele><time>2026-04-26T12:14:28Z</time></trkpt><trkpt lat="41.523194990302216" lon="12.766927553151547"><ele>34.5</ele><time>2026-04-26T12:14:29Z</time></trkpt><trkpt lat="41.52307294332969" lon="12.767199403132643"><ele>35.0</ele><time>2026-04-26T12:14:30Z</time></trkpt><trkpt lat="41.5229503128976" lon="12.76746947047727"><ele>36.5</ele><time>2026-04-26T12:14:31Z</time></trkpt><trkpt lat="41.522825859052745" lon="12.767745947125443"><ele>38.0</ele><time>2026-04-26T12:14:31.999Z</time></trkpt><trkpt lat="41.52270343922092" lon="12.768009723531831"><ele>38.0</ele><time>2026-04-26T12:14:32.999Z</time></trkpt><trkpt lat="41.522580204581516" lon="12.768272583024466"><ele>38.0</ele><time>2026-04-26T12:14:33.999Z</time></trkpt><trkpt lat="41.5224581269669" lon="12.768548225986535"><ele>37.5</ele><time>2026-04-26T12:14:34.999Z</time></trkpt><trkpt lat="41.52233394424037" lon="12.768814838286849"><ele>37.0</ele><time>2026-04-26T12:14:35.999Z</time></trkpt><trkpt lat="41.52221392028967" lon="12.769082578755528"><ele>37.0</ele><time>2026-04-26T12:14:36.999Z</time></trkpt><trkpt lat="41.52209669989626" lon="12.769347515786558"><ele>37.0</ele><time>2026-04-26T12:14:37.999Z</time></trkpt><trkpt lat="41.5219775812049" lon="12.769610343074676"><ele>36.5</ele><time>2026-04-26T12:14:38.999Z</time></trkpt><trkpt lat="41.52186156895147" lon="12.7698716095041"><ele>36.0</ele><time>2026-04-26T12:14:39.999Z</time></trkpt><trkpt lat="41.52174000710329" lon="12.77013227155621"><ele>36.0</ele><time>2026-04-26T12:14:40.999Z</time></trkpt><trkpt lat="41.52162046858091" lon="12.7703930946836"><ele>36.0</ele><time>2026-04-26T12:14:41.999Z</time></trkpt><trkpt lat="41.521499178432336" lon="12.770654966620574"><ele>36.0</ele><time>2026-04-26T12:14:42.999Z</time></trkpt><trkpt lat="41.521376561010584" lon="12.770914168127138"><ele>36.0</ele><time>2026-04-26T12:14:43.999Z</time></trkpt><trkpt lat="41.52125577180309" lon="12.771179559538345"><ele>35.0</ele><time>2026-04-26T12:14:44.999Z</time></trkpt><trkpt lat="41.52113101200428" lon="12.771442185794614"><ele>34.0</ele><time>2026-04-26T12:14:45.999Z</time></trkpt><trkpt lat="41.521006006523784" lon="12.771702893993949"><ele>34.0</ele><time>2026-04-26T12:14:46.999Z</time></trkpt><trkpt lat="41.52088039736965" lon="12.771967749037492"><ele>34.0</ele><time>2026-04-26T12:14:47.999Z</time></trkpt><trkpt lat="41.520752321359666" lon="12.772241117056957"><ele>34.0</ele><time>2026-04-26T12:14:48.999Z</time></trkpt><trkpt lat="41.52062681771277" lon="12.772512772966481"><ele>34.0</ele><time>2026-04-26T12:14:49.999Z</time></trkpt><trkpt lat="41.52049446560688" lon="12.77279920141457"><ele>33.0</ele><time>2026-04-26T12:14:50.999Z</time></trkpt><trkpt lat="41.520372443129254" lon="12.773069945386165"><ele>32.0</ele><time>2026-04-26T12:14:51.999Z</time></trkpt><trkpt lat="41.52025490105338" lon="12.773342751221666"><ele>31.666666666666664</ele><time>2026-04-26T12:14:52.999Z</time></trkpt><trkpt lat="41.520147581880984" lon="12.773596732188699"><ele>31.333333333333336</ele><time>2026-04-26T12:14:53.999Z</time></trkpt><trkpt lat="41.52003538697171" lon="12.773837797645985"><ele>31.0</ele><time>2026-04-26T12:14:54.999Z</time></trkpt><trkpt lat="41.51991782316811" lon="12.774081234766163"><ele>31.0</ele><time>2026-04-26T12:14:55.999Z</time></trkpt><trkpt lat="41.51980641448778" lon="12.774330731099502"><ele>31.0</ele><time>2026-04-26T12:14:56.999Z</time></trkpt><trkpt lat="41.5196854360054" lon="12.774580362384924"><ele>31.0</ele><time>2026-04-26T12:14:57.999Z</time></trkpt><trkpt lat="41.519565160187234" lon="12.77483458779133"><ele>31.0</ele><time>2026-04-26T12:14:58.999Z</time></trkpt><trkpt lat="41.519444457894146" lon="12.775098410913452"><ele>31.0</ele><time>2026-04-26T12:14:59.999Z</time></trkpt><trkpt lat="41.5193222653165" lon="12.775371095656952"><ele>31.0</ele><time>2026-04-26T12:15:00.999Z</time></trkpt><trkpt lat="41.5191944064731" lon="12.775653681968404"><ele>31.0</ele><time>2026-04-26T12:15:01.999Z</time></trkpt><trkpt lat="41.519074909821356" lon="12.775918633497463"><ele>29.0</ele><time>2026-04-26T12:15:02.999Z</time></trkpt><trkpt lat="41.51895551032533" lon="12.776175358902112"><ele>27.0</ele><time>2026-04-26T12:15:03.999Z</time></trkpt><trkpt lat="41.51883262703289" lon="12.77644687553881"><ele>27.5</ele><time>2026-04-26T12:15:04.999Z</time></trkpt><trkpt lat="41.51870826540099" lon="12.776721016243373"><ele>28.0</ele><time>2026-04-26T12:15:05.999Z</time></trkpt><trkpt lat="41.51858190608952" lon="12.777000789630307"><ele>28.0</ele><time>2026-04-26T12:15:06.999Z</time></trkpt><trkpt lat="41.51845246469104" lon="12.777281098539767"><ele>28.0</ele><time>2026-04-26T12:15:07.999Z</time></trkpt><trkpt lat="41.51832826145139" lon="12.777547519595185"><ele>27.0</ele><time>2026-04-26T12:15:08.999Z</time></trkpt><trkpt lat="41.51820796128696" lon="12.777809970333474"><ele>26.0</ele><time>2026-04-26T12:15:09.999Z</time></trkpt><trkpt lat="41.518085685405396" lon="12.778078985755922"><ele>26.0</ele><time>2026-04-26T12:15:10.999Z</time></trkpt><trkpt lat="41.51795848401533" lon="12.778353815379958"><ele>26.0</ele><time>2026-04-26T12:15:11.999Z</time></trkpt><trkpt lat="41.51783447555354" lon="12.778618515866754"><ele>26.666666666666664</ele><time>2026-04-26T12:15:12.999Z</time></trkpt><trkpt lat="41.517720750442116" lon="12.778871137536258"><ele>27.333333333333336</ele><time>2026-04-26T12:15:13.999Z</time></trkpt><trkpt lat="41.51760125990307" lon="12.779122817319017"><ele>28.0</ele><time>2026-04-26T12:15:14.999Z</time></trkpt><trkpt lat="41.51748338729327" lon="12.77937914548047"><ele>28.5</ele><time>2026-04-26T12:15:15.999Z</time></trkpt><trkpt lat="41.517365440881534" lon="12.779641895523328"><ele>29.0</ele><time>2026-04-26T12:15:16.999Z</time></trkpt><trkpt lat="41.51724723553272" lon="12.77990328341084"><ele>29.0</ele><time>2026-04-26T12:15:17.999Z</time></trkpt><trkpt lat="41.51713607306706" lon="12.780153792257936"><ele>29.0</ele><time>2026-04-26T12:15:18.999Z</time></trkpt><trkpt lat="41.51702075890643" lon="12.780406047676124"><ele>29.0</ele><time>2026-04-26T12:15:19.999Z</time></trkpt><trkpt lat="41.51690281925172" lon="12.780658763915262"><ele>29.333333333333332</ele><time>2026-04-26T12:15:20.999Z</time></trkpt><trkpt lat="41.51678927410022" lon="12.780913462547135"><ele>29.666666666666664</ele><time>2026-04-26T12:15:21.999Z</time></trkpt><trkpt lat="41.51667337942936" lon="12.781168879775134"><ele>30.0</ele><time>2026-04-26T12:15:22.999Z</time></trkpt><trkpt lat="41.51655706683632" lon="12.781423604919969"><ele>30.0</ele><time>2026-04-26T12:15:23.999Z</time></trkpt><trkpt lat="41.516439491311615" lon="12.78168071332681"><ele>30.0</ele><time>2026-04-26T12:15:24.998Z</time></trkpt><trkpt lat="41.51632010020602" lon="12.781937276951155"><ele>30.0</ele><time>2026-04-26T12:15:25.998Z</time></trkpt><trkpt lat="41.51620168058171" lon="12.782196997927995"><ele>30.0</ele><time>2026-04-26T12:15:26.998Z</time></trkpt><trkpt lat="41.51608292660746" lon="12.782453874413179"><ele>30.5</ele><time>2026-04-26T12:15:27.998Z</time></trkpt><trkpt lat="41.51596203561082" lon="12.78271068901274"><ele>31.0</ele><time>2026-04-26T12:15:28.998Z</time></trkpt><trkpt lat="41.515842003857784" lon="12.782971080147808"><ele>31.0</ele><time>2026-04-26T12:15:29.998Z</time></trkpt><trkpt lat="41.51572106924063" lon="12.783236067109542"><ele>31.0</ele><time>2026-04-26T12:15:30.998Z</time></trkpt><trkpt lat="41.51560287535417" lon="12.7834902685244"><ele>32.0</ele><time>2026-04-26T12:15:31.998Z</time></trkpt><trkpt lat="41.51548600495122" lon="12.783749026206259"><ele>33.0</ele><time>2026-04-26T12:15:32.998Z</time></trkpt><trkpt lat="41.51536499956502" lon="12.784015490049768"><ele>30.5</ele><time>2026-04-26T12:15:33.998Z</time></trkpt><trkpt lat="41.515240473537645" lon="12.784288293639358"><ele>28.0</ele><time>2026-04-26T12:15:34.998Z</time></trkpt><trkpt lat="41.51512143952289" lon="12.784545609788404"><ele>28.0</ele><time>2026-04-26T12:15:35.998Z</time></trkpt><trkpt lat="41.515006015839" lon="12.78479742233192"><ele>28.0</ele><time>2026-04-26T12:15:36.998Z</time></trkpt><trkpt lat="41.51488957166622" lon="12.785056729431023"><ele>28.0</ele><time>2026-04-26T12:15:37.998Z</time></trkpt><trkpt lat="41.514775966697975" lon="12.785309410290985"><ele>28.0</ele><time>2026-04-26T12:15:38.998Z</time></trkpt><trkpt lat="41.51466029882903" lon="12.785564585236624"><ele>28.0</ele><time>2026-04-26T12:15:39.998Z</time></trkpt><trkpt lat="41.514544478991375" lon="12.785823044801003"><ele>28.0</ele><time>2026-04-26T12:15:41Z</time></trkpt><trkpt lat="41.51442636425852" lon="12.7860821149013"><ele>27.0</ele><time>2026-04-26T12:15:42Z</time></trkpt><trkpt lat="41.514305457333634" lon="12.78634239260899"><ele>26.0</ele><time>2026-04-26T12:15:43Z</time></trkpt><trkpt lat="41.514184535375094" lon="12.786608288245983"><ele>25.5</ele><time>2026-04-26T12:15:44Z</time></trkpt><trkpt lat="41.514065774744374" lon="12.786869378468602"><ele>25.0</ele><time>2026-04-26T12:15:45Z</time></trkpt><trkpt lat="41.51394842472757" lon="12.787129898842323"><ele>25.0</ele><time>2026-04-26T12:15:46Z</time></trkpt><trkpt lat="41.51382733356245" lon="12.787387989443506"><ele>25.0</ele><time>2026-04-26T12:15:47Z</time></trkpt><trkpt lat="41.5137071201293" lon="12.787653656522675"><ele>25.0</ele><time>2026-04-26T12:15:48Z</time></trkpt><trkpt lat="41.51358473226806" lon="12.787936615021277"><ele>25.0</ele><time>2026-04-26T12:15:49Z</time></trkpt><trkpt lat="41.51346099136355" lon="12.788227927005721"><ele>25.0</ele><time>2026-04-26T12:15:50Z</time></trkpt><trkpt lat="41.51334126112288" lon="12.788500927825227"><ele>25.0</ele><time>2026-04-26T12:15:51Z</time></trkpt><trkpt lat="41.51321635135158" lon="12.788775250867957"><ele>25.5</ele><time>2026-04-26T12:15:52Z</time></trkpt><trkpt lat="41.51308742361304" lon="12.789050751950702"><ele>26.0</ele><time>2026-04-26T12:15:53Z</time></trkpt><trkpt lat="41.51295511937908" lon="12.789327773637012"><ele>25.5</ele><time>2026-04-26T12:15:54Z</time></trkpt><trkpt lat="41.51282611113362" lon="12.789602045529623"><ele>25.0</ele><time>2026-04-26T12:15:55Z</time></trkpt><trkpt lat="41.51269029694781" lon="12.78986787966354"><ele>25.0</ele><time>2026-04-26T12:15:56Z</time></trkpt><trkpt lat="41.51255287030512" lon="12.79013149305683"><ele>25.0</ele><time>2026-04-26T12:15:57Z</time></trkpt><trkpt lat="41.512424864689585" lon="12.790401547772358"><ele>25.666666666666668</ele><time>2026-04-26T12:15:58Z</time></trkpt><trkpt lat="41.512305434897854" lon="12.79066117036981"><ele>26.333333333333336</ele><time>2026-04-26T12:15:59Z</time></trkpt><trkpt lat="41.51218983158652" lon="12.790908504771355"><ele>27.0</ele><time>2026-04-26T12:16:00Z</time></trkpt><trkpt lat="41.51207486883296" lon="12.791163490756231"><ele>26.0</ele><time>2026-04-26T12:16:01Z</time></trkpt><trkpt lat="41.511958174174964" lon="12.791430802674398"><ele>25.0</ele><time>2026-04-26T12:16:02Z</time></trkpt><trkpt lat="41.511837859877" lon="12.791701922004327"><ele>25.0</ele><time>2026-04-26T12:16:03Z</time></trkpt><trkpt lat="41.511711018254296" lon="12.7919780458691"><ele>25.0</ele><time>2026-04-26T12:16:04Z</time></trkpt><trkpt lat="41.51157948341131" lon="12.792263875213237"><ele>25.0</ele><time>2026-04-26T12:16:05Z</time></trkpt><trkpt lat="41.511450634541944" lon="12.792547218234365"><ele>25.0</ele><time>2026-04-26T12:16:06Z</time></trkpt><trkpt lat="41.511319207131116" lon="12.792838026345203"><ele>24.0</ele><time>2026-04-26T12:16:07Z</time></trkpt><trkpt lat="41.51118794105533" lon="12.793134098997205"><ele>23.0</ele><time>2026-04-26T12:16:08Z</time></trkpt><trkpt lat="41.51106650825661" lon="12.793407524072617"><ele>22.0</ele><time>2026-04-26T12:16:09Z</time></trkpt><trkpt lat="41.51094056818459" lon="12.793677130805206"><ele>21.0</ele><time>2026-04-26T12:16:10Z</time></trkpt><trkpt lat="41.5108134604845" lon="12.79394383203251"><ele>21.0</ele><time>2026-04-26T12:16:11Z</time></trkpt><trkpt lat="41.51069325446237" lon="12.79421498772574"><ele>21.0</ele><time>2026-04-26T12:16:12Z</time></trkpt><trkpt lat="41.51056689376159" lon="12.79448647382932"><ele>22.5</ele><time>2026-04-26T12:16:13Z</time></trkpt><trkpt lat="41.510446888627406" lon="12.794760710120071"><ele>24.0</ele><time>2026-04-26T12:16:14Z</time></trkpt><trkpt lat="41.51032668966109" lon="12.795039018725417"><ele>25.5</ele><time>2026-04-26T12:16:15Z</time></trkpt><trkpt lat="41.51019862323453" lon="12.795312210829454"><ele>27.0</ele><time>2026-04-26T12:16:16Z</time></trkpt><trkpt lat="41.51007155305605" lon="12.795589405547055"><ele>27.0</ele><time>2026-04-26T12:16:17Z</time></trkpt><trkpt lat="41.50994126038961" lon="12.795862611586035"><ele>27.0</ele><time>2026-04-26T12:16:18Z</time></trkpt><trkpt lat="41.5098122830525" lon="12.796131270284482"><ele>26.0</ele><time>2026-04-26T12:16:19Z</time></trkpt><trkpt lat="41.50968655422492" lon="12.796407346750506"><ele>25.0</ele><time>2026-04-26T12:16:20Z</time></trkpt><trkpt lat="41.50956489042722" lon="12.796665338087093"><ele>25.0</ele><time>2026-04-26T12:16:21Z</time></trkpt><trkpt lat="41.509450001279866" lon="12.796912430641674"><ele>25.0</ele><time>2026-04-26T12:16:22Z</time></trkpt><trkpt lat="41.50933345742204" lon="12.797170481939782"><ele>25.0</ele><time>2026-04-26T12:16:23Z</time></trkpt><trkpt lat="41.50921995147072" lon="12.797418170572195"><ele>25.0</ele><time>2026-04-26T12:16:24Z</time></trkpt><trkpt lat="41.5091113783797" lon="12.797663431013369"><ele>25.0</ele><time>2026-04-26T12:16:25Z</time></trkpt><trkpt lat="41.50898681427333" lon="12.79791824447205"><ele>25.0</ele><time>2026-04-26T12:16:26Z</time></trkpt><trkpt lat="41.508871510489776" lon="12.798169515051374"><ele>25.333333333333336</ele><time>2026-04-26T12:16:27Z</time></trkpt><trkpt lat="41.50875583779927" lon="12.798420140374976"><ele>25.666666666666664</ele><time>2026-04-26T12:16:28Z</time></trkpt><trkpt lat="41.50863843176744" lon="12.79866372548893"><ele>26.0</ele><time>2026-04-26T12:16:29Z</time></trkpt><trkpt lat="41.50852953551356" lon="12.798922737488914"><ele>26.0</ele><time>2026-04-26T12:16:30Z</time></trkpt><trkpt lat="41.50840537339364" lon="12.79917049354733"><ele>26.0</ele><time>2026-04-26T12:16:31Z</time></trkpt><trkpt lat="41.50828706156962" lon="12.799419248949496"><ele>26.0</ele><time>2026-04-26T12:16:32Z</time></trkpt><trkpt lat="41.5081647196602" lon="12.799671889486993"><ele>26.0</ele><time>2026-04-26T12:16:32.999Z</time></trkpt><trkpt lat="41.508042866771774" lon="12.799920839064871"><ele>26.0</ele><time>2026-04-26T12:16:33.999Z</time></trkpt><trkpt lat="41.50792268254487" lon="12.800175690702254"><ele>26.0</ele><time>2026-04-26T12:16:34.999Z</time></trkpt><trkpt lat="41.50779989003999" lon="12.800432776409261"><ele>26.5</ele><time>2026-04-26T12:16:35.999Z</time></trkpt><trkpt lat="41.507674440329154" lon="12.800693715529594"><ele>27.0</ele><time>2026-04-26T12:16:36.999Z</time></trkpt><trkpt lat="41.50754572158194" lon="12.800958274897257"><ele>26.0</ele><time>2026-04-26T12:16:37.999Z</time></trkpt><trkpt lat="41.50741442249467" lon="12.801233932593027"><ele>25.0</ele><time>2026-04-26T12:16:38.999Z</time></trkpt><trkpt lat="41.50728547985075" lon="12.801497190747252"><ele>25.0</ele><time>2026-04-26T12:16:39.999Z</time></trkpt><trkpt lat="41.50715856461997" lon="12.801760115021445"><ele>25.0</ele><time>2026-04-26T12:16:40.999Z</time></trkpt><trkpt lat="41.50703056792176" lon="12.802030600900526"><ele>26.0</ele><time>2026-04-26T12:16:41.999Z</time></trkpt><trkpt lat="41.50690022580158" lon="12.802304865632447"><ele>27.0</ele><time>2026-04-26T12:16:42.999Z</time></trkpt><trkpt lat="41.50676426203007" lon="12.80258262671477"><ele>27.5</ele><time>2026-04-26T12:16:43.999Z</time></trkpt><trkpt lat="41.506625399264074" lon="12.8028672629922"><ele>28.0</ele><time>2026-04-26T12:16:44.999Z</time></trkpt><trkpt lat="41.5064902594835" lon="12.803137104309696"><ele>28.0</ele><time>2026-04-26T12:16:45.999Z</time></trkpt><trkpt lat="41.50636628091564" lon="12.803394333476021"><ele>28.0</ele><time>2026-04-26T12:16:46.999Z</time></trkpt><trkpt lat="41.50624876690161" lon="12.803646854325445"><ele>27.5</ele><time>2026-04-26T12:16:47.999Z</time></trkpt><trkpt lat="41.506121374689734" lon="12.803894879070553"><ele>27.0</ele><time>2026-04-26T12:16:48.999Z</time></trkpt><trkpt lat="41.50599508948364" lon="12.804147484625762"><ele>29.0</ele><time>2026-04-26T12:16:49.999Z</time></trkpt><trkpt lat="41.505870996422765" lon="12.804405057268042"><ele>31.0</ele><time>2026-04-26T12:16:50.999Z</time></trkpt><trkpt lat="41.505748150331826" lon="12.804662035804967"><ele>31.0</ele><time>2026-04-26T12:16:51.999Z</time></trkpt><trkpt lat="41.50563022381326" lon="12.80490989181284"><ele>31.0</ele><time>2026-04-26T12:16:52.999Z</time></trkpt><trkpt lat="41.50551120560879" lon="12.805163389881034"><ele>31.0</ele><time>2026-04-26T12:16:53.999Z</time></trkpt><trkpt lat="41.50539261981057" lon="12.805432448616898"><ele>31.5</ele><time>2026-04-26T12:16:54.999Z</time></trkpt><trkpt lat="41.50526949552824" lon="12.805715208982825"><ele>32.0</ele><time>2026-04-26T12:16:55.999Z</time></trkpt><trkpt lat="41.50513562689462" lon="12.806001119762884"><ele>32.5</ele><time>2026-04-26T12:16:56.999Z</time></trkpt><trkpt lat="41.50498990171674" lon="12.806287888207532"><ele>33.0</ele><time>2026-04-26T12:16:57.999Z</time></trkpt><trkpt lat="41.504835939912184" lon="12.806578610712936"><ele>31.5</ele><time>2026-04-26T12:16:58.999Z</time></trkpt><trkpt lat="41.50469407733116" lon="12.806858677913857"><ele>30.0</ele><time>2026-04-26T12:16:59.999Z</time></trkpt><trkpt lat="41.50456035795997" lon="12.80713216993632"><ele>30.0</ele><time>2026-04-26T12:17:00.999Z</time></trkpt><trkpt lat="41.50442657483494" lon="12.80741345151001"><ele>30.0</ele><time>2026-04-26T12:17:01.999Z</time></trkpt><trkpt lat="41.504285165521516" lon="12.807694704487131"><ele>30.5</ele><time>2026-04-26T12:17:02.999Z</time></trkpt><trkpt lat="41.50414345087885" lon="12.80797754905896"><ele>31.0</ele><time>2026-04-26T12:17:03.999Z</time></trkpt><trkpt lat="41.50400322196908" lon="12.808266025434408"><ele>30.0</ele><time>2026-04-26T12:17:04.999Z</time></trkpt><trkpt lat="41.5038623271265" lon="12.808552784666123"><ele>29.0</ele><time>2026-04-26T12:17:05.999Z</time></trkpt><trkpt lat="41.503730607798346" lon="12.80882105863533"><ele>28.5</ele><time>2026-04-26T12:17:06.999Z</time></trkpt><trkpt lat="41.503603497304276" lon="12.809082730910731"><ele>28.0</ele><time>2026-04-26T12:17:07.999Z</time></trkpt><trkpt lat="41.503471876258345" lon="12.809345658595452"><ele>27.5</ele><time>2026-04-26T12:17:08.999Z</time></trkpt><trkpt lat="41.50334221172352" lon="12.809617471575613"><ele>27.0</ele><time>2026-04-26T12:17:09.999Z</time></trkpt><trkpt lat="41.50321202798088" lon="12.809890286485006"><ele>27.0</ele><time>2026-04-26T12:17:10.999Z</time></trkpt><trkpt lat="41.50308049576947" lon="12.810167912521685"><ele>27.0</ele><time>2026-04-26T12:17:11.999Z</time></trkpt><trkpt lat="41.50294819810087" lon="12.8104440941233"><ele>27.0</ele><time>2026-04-26T12:17:12.999Z</time></trkpt><trkpt lat="41.50281394852762" lon="12.810732708379591"><ele>27.0</ele><time>2026-04-26T12:17:13.999Z</time></trkpt><trkpt lat="41.502677721957205" lon="12.811024392037103"><ele>27.5</ele><time>2026-04-26T12:17:14.999Z</time></trkpt><trkpt lat="41.50253739575462" lon="12.811318398449899"><ele>28.0</ele><time>2026-04-26T12:17:15.999Z</time></trkpt><trkpt lat="41.50239451753653" lon="12.811611462323436"><ele>28.5</ele><time>2026-04-26T12:17:16.999Z</time></trkpt><trkpt lat="41.50225790478049" lon="12.811875899746688"><ele>29.0</ele><time>2026-04-26T12:17:17.999Z</time></trkpt><trkpt lat="41.50212183187469" lon="12.812121016593009"><ele>28.333333333333332</ele><time>2026-04-26T12:17:18.999Z</time></trkpt><trkpt lat="41.501986920479" lon="12.812356659303653"><ele>27.666666666666664</ele><time>2026-04-26T12:17:19.999Z</time></trkpt><trkpt lat="41.50185626295132" lon="12.812594307661314"><ele>27.0</ele><time>2026-04-26T12:17:20.999Z</time></trkpt><trkpt lat="41.501731062120285" lon="12.812841622333513"><ele>26.666666666666664</ele><time>2026-04-26T12:17:21.999Z</time></trkpt><trkpt lat="41.501610177794426" lon="12.813087468857983"><ele>26.333333333333332</ele><time>2026-04-26T12:17:22.999Z</time></trkpt><trkpt lat="41.50149841600421" lon="12.813337655443812"><ele>26.0</ele><time>2026-04-26T12:17:23.999Z</time></trkpt><trkpt lat="41.501383693915464" lon="12.813579540943003"><ele>25.666666666666664</ele><time>2026-04-26T12:17:24.999Z</time></trkpt><trkpt lat="41.50126472989214" lon="12.813826976385636"><ele>25.333333333333336</ele><time>2026-04-26T12:17:25.998Z</time></trkpt><trkpt lat="41.50114733710374" lon="12.814069460657574"><ele>25.0</ele><time>2026-04-26T12:17:26.998Z</time></trkpt><trkpt lat="41.50103724757237" lon="12.814288583326357"><ele>26.0</ele><time>2026-04-26T12:17:27.998Z</time></trkpt><trkpt lat="41.50093366398535" lon="12.814501339603064"><ele>27.0</ele><time>2026-04-26T12:17:28.998Z</time></trkpt><trkpt lat="41.50082929521912" lon="12.814715890012177"><ele>28.0</ele><time>2026-04-26T12:17:29.998Z</time></trkpt><trkpt lat="41.500723845029945" lon="12.814937226882535"><ele>28.0</ele><time>2026-04-26T12:17:30.998Z</time></trkpt><trkpt lat="41.50061521671119" lon="12.81516468942706"><ele>28.0</ele><time>2026-04-26T12:17:31.998Z</time></trkpt><trkpt lat="41.50050078843301" lon="12.815401701492323"><ele>28.0</ele><time>2026-04-26T12:17:32.998Z</time></trkpt><trkpt lat="41.500382562474734" lon="12.815648135321178"><ele>28.0</ele><time>2026-04-26T12:17:33.998Z</time></trkpt><trkpt lat="41.50027009051227" lon="12.815878055833458"><ele>28.0</ele><time>2026-04-26T12:17:34.998Z</time></trkpt><trkpt lat="41.50017484971266" lon="12.81607935902765"><ele>28.0</ele><time>2026-04-26T12:17:35.998Z</time></trkpt><trkpt lat="41.50008576102252" lon="12.816249755028032"><ele>28.0</ele><time>2026-04-26T12:17:36.998Z</time></trkpt><trkpt lat="41.49999363358813" lon="12.816426629906255"><ele>28.0</ele><time>2026-04-26T12:17:37.998Z</time></trkpt><trkpt lat="41.499915562329534" lon="12.816576273892755"><ele>28.0</ele><time>2026-04-26T12:17:38.998Z</time></trkpt><trkpt lat="41.499836814673806" lon="12.81674101128969"><ele>28.0</ele><time>2026-04-26T12:17:39.998Z</time></trkpt><trkpt lat="41.499780087103055" lon="12.81685511893563"><ele>27.833333333333336</ele><time>2026-04-26T12:17:40.998Z</time></trkpt><trkpt lat="41.499725908107884" lon="12.816943116293546"><ele>27.666666666666668</ele><time>2026-04-26T12:17:41.998Z</time></trkpt><trkpt lat="41.499671296596574" lon="12.817013570499558"><ele>27.5</ele><time>2026-04-26T12:17:42.998Z</time></trkpt><trkpt lat="41.499598360306464" lon="12.817063272820103"><ele>27.333333333333336</ele><time>2026-04-26T12:17:43.998Z</time></trkpt><trkpt lat="41.49950216219371" lon="12.817076087107262"><ele>27.166666666666668</ele><time>2026-04-26T12:17:44.998Z</time></trkpt><trkpt lat="41.499396544937724" lon="12.817058996019156"><ele>27.0</ele><time>2026-04-26T12:17:45.998Z</time></trkpt><trkpt lat="41.49929319377105" lon="12.817028916644622"><ele>27.0</ele><time>2026-04-26T12:17:47Z</time></trkpt><trkpt lat="41.49920069448362" lon="12.81690012411973"><ele>27.0</ele><time>2026-04-26T12:17:48Z</time></trkpt><trkpt lat="41.49913995749971" lon="12.816740237251103"><ele>27.0</ele><time>2026-04-26T12:17:49Z</time></trkpt><trkpt lat="41.49911166675925" lon="12.816549729754453"><ele>27.0</ele><time>2026-04-26T12:17:50Z</time></trkpt><trkpt lat="41.49909212678172" lon="12.816355538428041"><ele>27.6</ele><time>2026-04-26T12:17:51Z</time></trkpt><trkpt lat="41.499072869163136" lon="12.816204603627874"><ele>28.200000000000003</ele><time>2026-04-26T12:17:52Z</time></trkpt><trkpt lat="41.49908236336585" lon="12.816089274896903"><ele>28.8</ele><time>2026-04-26T12:17:53Z</time></trkpt><trkpt lat="41.499138652250814" lon="12.815997044008439"><ele>29.4</ele><time>2026-04-26T12:17:54Z</time></trkpt><trkpt lat="41.4991136757997" lon="12.81588657674214"><ele>30.0</ele><time>2026-04-26T12:17:55Z</time></trkpt><trkpt lat="41.49907393351816" lon="12.815744965344882"><ele>30.25</ele><time>2026-04-26T12:17:57Z</time></trkpt><trkpt lat="41.49900436793632" lon="12.815593563021341"><ele>30.5</ele><time>2026-04-26T12:17:59Z</time></trkpt><trkpt lat="41.49884779662818" lon="12.81558770593294"><ele>30.75</ele><time>2026-04-26T12:18:00Z</time></trkpt><trkpt lat="41.49869918151402" lon="12.815568794959654"><ele>31.0</ele><time>2026-04-26T12:18:01Z</time></trkpt><trkpt lat="41.498531106394374" lon="12.815552549536587"><ele>30.333333333333336</ele><time>2026-04-26T12:18:02Z</time></trkpt><trkpt lat="41.49836389841918" lon="12.815527638104134"><ele>29.666666666666664</ele><time>2026-04-26T12:18:03Z</time></trkpt><trkpt lat="41.498162227056014" lon="12.815486809456374"><ele>29.0</ele><time>2026-04-26T12:18:04Z</time></trkpt><trkpt lat="41.49797300250528" lon="12.815448186783955"><ele>29.0</ele><time>2026-04-26T12:18:05Z</time></trkpt><trkpt lat="41.49778118558102" lon="12.815397036267665"><ele>29.0</ele><time>2026-04-26T12:18:06Z</time></trkpt><trkpt lat="41.49760655781686" lon="12.815352006014106"><ele>29.0</ele><time>2026-04-26T12:18:07Z</time></trkpt><trkpt lat="41.497430587201464" lon="12.815313901194266"><ele>29.0</ele><time>2026-04-26T12:18:08Z</time></trkpt><trkpt lat="41.49725575419414" lon="12.81527208165542"><ele>29.0</ele><time>2026-04-26T12:18:09Z</time></trkpt><trkpt lat="41.49707171920294" lon="12.815219796576041"><ele>29.0</ele><time>2026-04-26T12:18:10Z</time></trkpt><trkpt lat="41.49688054746531" lon="12.81517719498142"><ele>29.333333333333332</ele><time>2026-04-26T12:18:11Z</time></trkpt><trkpt lat="41.49671155714887" lon="12.81513740702643"><ele>29.666666666666664</ele><time>2026-04-26T12:18:12Z</time></trkpt><trkpt lat="41.496560619532104" lon="12.815103816779898"><ele>30.0</ele><time>2026-04-26T12:18:13Z</time></trkpt><trkpt lat="41.49641837859662" lon="12.815076119163333"><ele>30.0</ele><time>2026-04-26T12:18:14Z</time></trkpt><trkpt lat="41.49628897593646" lon="12.81504955454922"><ele>30.0</ele><time>2026-04-26T12:18:15Z</time></trkpt><trkpt lat="41.49616103336881" lon="12.815026466058436"><ele>30.0</ele><time>2026-04-26T12:18:16Z</time></trkpt><trkpt lat="41.49601617060658" lon="12.81499749225734"><ele>30.0</ele><time>2026-04-26T12:18:17Z</time></trkpt><trkpt lat="41.49586687068251" lon="12.814959429466112"><ele>30.333333333333336</ele><time>2026-04-26T12:18:18Z</time></trkpt><trkpt lat="41.49567926206729" lon="12.814923381641298"><ele>30.666666666666668</ele><time>2026-04-26T12:18:19Z</time></trkpt><trkpt lat="41.49548688332268" lon="12.814887506689635"><ele>31.0</ele><time>2026-04-26T12:18:20Z</time></trkpt><trkpt lat="41.49529620084672" lon="12.814843353422694"><ele>31.0</ele><time>2026-04-26T12:18:21Z</time></trkpt><trkpt lat="41.495117275320744" lon="12.81480203143636"><ele>31.0</ele><time>2026-04-26T12:18:22Z</time></trkpt><trkpt lat="41.49492731800259" lon="12.814764367733545"><ele>31.0</ele><time>2026-04-26T12:18:23Z</time></trkpt><trkpt lat="41.494734364396095" lon="12.814727816301673"><ele>30.333333333333336</ele><time>2026-04-26T12:18:24Z</time></trkpt><trkpt lat="41.49453756385793" lon="12.814685128995226"><ele>29.666666666666664</ele><time>2026-04-26T12:18:25Z</time></trkpt><trkpt lat="41.49432530486843" lon="12.814639407250183"><ele>29.0</ele><time>2026-04-26T12:18:26Z</time></trkpt><trkpt lat="41.49410966732885" lon="12.81459031596137"><ele>29.0</ele><time>2026-04-26T12:18:27Z</time></trkpt><trkpt lat="41.493892870811436" lon="12.814542907737708"><ele>29.0</ele><time>2026-04-26T12:18:28Z</time></trkpt><trkpt lat="41.49369187239228" lon="12.814497806857853"><ele>29.0</ele><time>2026-04-26T12:18:29Z</time></trkpt><trkpt lat="41.49348795352043" lon="12.814453368321555"><ele>29.333333333333332</ele><time>2026-04-26T12:18:30Z</time></trkpt><trkpt lat="41.49328972740181" lon="12.814410439068725"><ele>29.666666666666664</ele><time>2026-04-26T12:18:31Z</time></trkpt><trkpt lat="41.49310100659657" lon="12.814373224930124"><ele>30.0</ele><time>2026-04-26T12:18:32Z</time></trkpt><trkpt lat="41.492907939103326" lon="12.81432624055781"><ele>31.0</ele><time>2026-04-26T12:18:33Z</time></trkpt><trkpt lat="41.49271342321824" lon="12.814296554523766"><ele>32.0</ele><time>2026-04-26T12:18:33.999Z</time></trkpt><trkpt lat="41.49251719561849" lon="12.814254870624277"><ele>33.0</ele><time>2026-04-26T12:18:34.999Z</time></trkpt><trkpt lat="41.49231681810739" lon="12.81420715291934"><ele>33.0</ele><time>2026-04-26T12:18:35.999Z</time></trkpt><trkpt lat="41.49211805053551" lon="12.814164010948563"><ele>33.0</ele><time>2026-04-26T12:18:36.999Z</time></trkpt><trkpt lat="41.491932025506415" lon="12.814126595706055"><ele>33.0</ele><time>2026-04-26T12:18:37.999Z</time></trkpt><trkpt lat="41.49174878110671" lon="12.814088522910335"><ele>33.0</ele><time>2026-04-26T12:18:38.999Z</time></trkpt><trkpt lat="41.491556208085754" lon="12.814051365221511"><ele>33.0</ele><time>2026-04-26T12:18:39.999Z</time></trkpt><trkpt lat="41.49135299308816" lon="12.814010291173219"><ele>33.0</ele><time>2026-04-26T12:18:40.999Z</time></trkpt><trkpt lat="41.49114389236817" lon="12.813969615261419"><ele>32.333333333333336</ele><time>2026-04-26T12:18:41.999Z</time></trkpt><trkpt lat="41.490935096417516" lon="12.813924777325278"><ele>31.666666666666668</ele><time>2026-04-26T12:18:42.999Z</time></trkpt><trkpt lat="41.490731992795126" lon="12.813877773826023"><ele>31.0</ele><time>2026-04-26T12:18:43.999Z</time></trkpt><trkpt lat="41.49054109938994" lon="12.813834924758085"><ele>30.333333333333336</ele><time>2026-04-26T12:18:44.999Z</time></trkpt><trkpt lat="41.4903515666109" lon="12.813794709634022"><ele>29.666666666666664</ele><time>2026-04-26T12:18:45.999Z</time></trkpt><trkpt lat="41.49016136505213" lon="12.813756200850797"><ele>29.0</ele><time>2026-04-26T12:18:46.999Z</time></trkpt><trkpt lat="41.48996325042252" lon="12.813717396022254"><ele>29.0</ele><time>2026-04-26T12:18:47.999Z</time></trkpt><trkpt lat="41.48975033252615" lon="12.813675881749402"><ele>29.0</ele><time>2026-04-26T12:18:48.999Z</time></trkpt><trkpt lat="41.48953228814611" lon="12.813627913786837"><ele>29.0</ele><time>2026-04-26T12:18:49.999Z</time></trkpt><trkpt lat="41.48930683760741" lon="12.813576692212132"><ele>29.333333333333332</ele><time>2026-04-26T12:18:50.999Z</time></trkpt><trkpt lat="41.489086437536464" lon="12.81352559849217"><ele>29.666666666666664</ele><time>2026-04-26T12:18:51.999Z</time></trkpt><trkpt lat="41.48887617993397" lon="12.813477675629192"><ele>30.0</ele><time>2026-04-26T12:18:52.999Z</time></trkpt><trkpt lat="41.488662012207364" lon="12.81343541375719"><ele>30.0</ele><time>2026-04-26T12:18:53.999Z</time></trkpt><trkpt lat="41.48844961511699" lon="12.813393324052123"><ele>30.0</ele><time>2026-04-26T12:18:54.999Z</time></trkpt><trkpt lat="41.48822863118958" lon="12.81334832935613"><ele>30.0</ele><time>2026-04-26T12:18:55.999Z</time></trkpt><trkpt lat="41.48802301916949" lon="12.813304200002738"><ele>29.333333333333336</ele><time>2026-04-26T12:18:56.999Z</time></trkpt><trkpt lat="41.48782400573064" lon="12.813257853154255"><ele>28.666666666666668</ele><time>2026-04-26T12:18:57.999Z</time></trkpt><trkpt lat="41.4876186085974" lon="12.813214756209778"><ele>28.0</ele><time>2026-04-26T12:18:58.999Z</time></trkpt><trkpt lat="41.48740852000724" lon="12.813176543361276"><ele>28.0</ele><time>2026-04-26T12:18:59.999Z</time></trkpt><trkpt lat="41.48721137183369" lon="12.813132143644065"><ele>28.0</ele><time>2026-04-26T12:19:00.999Z</time></trkpt><trkpt lat="41.48702422031955" lon="12.813087320692844"><ele>28.0</ele><time>2026-04-26T12:19:01.999Z</time></trkpt><trkpt lat="41.48682775092511" lon="12.813044205179269"><ele>28.333333333333336</ele><time>2026-04-26T12:19:02.999Z</time></trkpt><trkpt lat="41.486620680382586" lon="12.812997676660961"><ele>28.666666666666664</ele><time>2026-04-26T12:19:03.999Z</time></trkpt><trkpt lat="41.4864082562703" lon="12.812951446335024"><ele>29.0</ele><time>2026-04-26T12:19:04.999Z</time></trkpt><trkpt lat="41.48618614426661" lon="12.812904834356617"><ele>29.0</ele><time>2026-04-26T12:19:05.999Z</time></trkpt><trkpt lat="41.48595517990094" lon="12.812862201801249"><ele>29.0</ele><time>2026-04-26T12:19:06.999Z</time></trkpt><trkpt lat="41.485730456232915" lon="12.812819491310782"><ele>29.0</ele><time>2026-04-26T12:19:07.999Z</time></trkpt><trkpt lat="41.48552491818994" lon="12.812776686493477"><ele>29.0</ele><time>2026-04-26T12:19:08.999Z</time></trkpt><trkpt lat="41.48532035856609" lon="12.81272522741676"><ele>29.0</ele><time>2026-04-26T12:19:09.999Z</time></trkpt><trkpt lat="41.4851125990945" lon="12.81267873546035"><ele>29.0</ele><time>2026-04-26T12:19:10.999Z</time></trkpt><trkpt lat="41.4849038116677" lon="12.812636754426517"><ele>29.0</ele><time>2026-04-26T12:19:11.999Z</time></trkpt><trkpt lat="41.48469488165139" lon="12.812585689023699"><ele>29.0</ele><time>2026-04-26T12:19:12.999Z</time></trkpt><trkpt lat="41.48448442089435" lon="12.812550372733241"><ele>28.666666666666664</ele><time>2026-04-26T12:19:13.999Z</time></trkpt><trkpt lat="41.48426876505519" lon="12.812511885766517"><ele>28.333333333333336</ele><time>2026-04-26T12:19:14.999Z</time></trkpt><trkpt lat="41.48405063493957" lon="12.81247009308491"><ele>28.0</ele><time>2026-04-26T12:19:15.999Z</time></trkpt><trkpt lat="41.48384080435029" lon="12.812424447371352"><ele>27.0</ele><time>2026-04-26T12:19:16.999Z</time></trkpt><trkpt lat="41.48364583840048" lon="12.812378526961417"><ele>26.0</ele><time>2026-04-26T12:19:17.999Z</time></trkpt><trkpt lat="41.48346442249812" lon="12.81233501844585"><ele>25.0</ele><time>2026-04-26T12:19:18.999Z</time></trkpt><trkpt lat="41.483295677559276" lon="12.812299077836814"><ele>25.0</ele><time>2026-04-26T12:19:19.999Z</time></trkpt><trkpt lat="41.4831409473868" lon="12.812263832524371"><ele>25.0</ele><time>2026-04-26T12:19:20.999Z</time></trkpt><trkpt lat="41.482992077309575" lon="12.812229118421714"><ele>25.0</ele><time>2026-04-26T12:19:21.999Z</time></trkpt><trkpt lat="41.48283388288586" lon="12.812194060970238"><ele>24.333333333333336</ele><time>2026-04-26T12:19:22.999Z</time></trkpt><trkpt lat="41.48266590583223" lon="12.812161243576345"><ele>23.666666666666668</ele><time>2026-04-26T12:19:23.999Z</time></trkpt><trkpt lat="41.48249059077817" lon="12.812126728246513"><ele>23.0</ele><time>2026-04-26T12:19:24.999Z</time></trkpt><trkpt lat="41.48231546467706" lon="12.81208852396522"><ele>23.0</ele><time>2026-04-26T12:19:25.999Z</time></trkpt><trkpt lat="41.482148680187905" lon="12.812050779797948"><ele>23.0</ele><time>2026-04-26T12:19:26.998Z</time></trkpt><trkpt lat="41.481976860233246" lon="12.812010318629591"><ele>23.0</ele><time>2026-04-26T12:19:27.998Z</time></trkpt><trkpt lat="41.48178752221336" lon="12.81196784632314"><ele>24.0</ele><time>2026-04-26T12:19:28.998Z</time></trkpt><trkpt lat="41.48158387778456" lon="12.811927656651607"><ele>25.0</ele><time>2026-04-26T12:19:29.998Z</time></trkpt><trkpt lat="41.48137998033068" lon="12.811885534498597"><ele>26.0</ele><time>2026-04-26T12:19:30.998Z</time></trkpt><trkpt lat="41.48120057103934" lon="12.811847838104791"><ele>26.0</ele><time>2026-04-26T12:19:31.998Z</time></trkpt><trkpt lat="41.48102721556452" lon="12.81181486816808"><ele>26.0</ele><time>2026-04-26T12:19:32.998Z</time></trkpt><trkpt lat="41.48085160329312" lon="12.811782553676958"><ele>26.0</ele><time>2026-04-26T12:19:33.998Z</time></trkpt><trkpt lat="41.480667622365615" lon="12.811749424513739"><ele>26.0</ele><time>2026-04-26T12:19:34.998Z</time></trkpt><trkpt lat="41.48048121123494" lon="12.811710681981763"><ele>26.0</ele><time>2026-04-26T12:19:35.998Z</time></trkpt><trkpt lat="41.480300807346424" lon="12.811669286761623"><ele>26.0</ele><time>2026-04-26T12:19:36.998Z</time></trkpt><trkpt lat="41.480119497939135" lon="12.811628164007749"><ele>26.333333333333332</ele><time>2026-04-26T12:19:37.998Z</time></trkpt><trkpt lat="41.47993655506508" lon="12.81159057678506"><ele>26.666666666666664</ele><time>2026-04-26T12:19:38.998Z</time></trkpt><trkpt lat="41.479750484606726" lon="12.811559601557551"><ele>27.0</ele><time>2026-04-26T12:19:39.998Z</time></trkpt><trkpt lat="41.47957464964259" lon="12.811522368352364"><ele>27.0</ele><time>2026-04-26T12:19:40.998Z</time></trkpt><trkpt lat="41.47939609384098" lon="12.81148676724058"><ele>27.0</ele><time>2026-04-26T12:19:41.998Z</time></trkpt><trkpt lat="41.47921505135224" lon="12.811451881637108"><ele>27.0</ele><time>2026-04-26T12:19:42.998Z</time></trkpt><trkpt lat="41.479030369853795" lon="12.811410910122543"><ele>27.0</ele><time>2026-04-26T12:19:43.998Z</time></trkpt><trkpt lat="41.47883991859041" lon="12.811368807201053"><ele>27.0</ele><time>2026-04-26T12:19:44.998Z</time></trkpt><trkpt lat="41.478644862073395" lon="12.811325694832943"><ele>27.0</ele><time>2026-04-26T12:19:45.998Z</time></trkpt><trkpt lat="41.478452683769014" lon="12.811282761566336"><ele>26.666666666666664</ele><time>2026-04-26T12:19:46.998Z</time></trkpt><trkpt lat="41.478275571834814" lon="12.811243243520517"><ele>26.333333333333332</ele><time>2026-04-26T12:19:47.998Z</time></trkpt><trkpt lat="41.47810307826112" lon="12.811204938491574"><ele>26.0</ele><time>2026-04-26T12:19:48.998Z</time></trkpt><trkpt lat="41.47793177919892" lon="12.81116709910876"><ele>27.0</ele><time>2026-04-26T12:19:49.998Z</time></trkpt><trkpt lat="41.47776177673896" lon="12.811125614686954"><ele>28.0</ele><time>2026-04-26T12:19:50.998Z</time></trkpt><trkpt lat="41.47759362837799" lon="12.811085844337448"><ele>29.0</ele><time>2026-04-26T12:19:51.998Z</time></trkpt><trkpt lat="41.477419497992514" lon="12.811055931141947"><ele>29.0</ele><time>2026-04-26T12:19:53Z</time></trkpt><trkpt lat="41.47723879561493" lon="12.811022889618492"><ele>29.0</ele><time>2026-04-26T12:19:54Z</time></trkpt><trkpt lat="41.47705903948642" lon="12.810986542325578"><ele>29.0</ele><time>2026-04-26T12:19:55Z</time></trkpt><trkpt lat="41.47688494045837" lon="12.810948827705396"><ele>28.666666666666664</ele><time>2026-04-26T12:19:56Z</time></trkpt><trkpt lat="41.47670749511055" lon="12.810912452450733"><ele>28.333333333333336</ele><time>2026-04-26T12:19:57Z</time></trkpt><trkpt lat="41.476529163026285" lon="12.810872147863565"><ele>28.0</ele><time>2026-04-26T12:19:58Z</time></trkpt><trkpt lat="41.47634763279158" lon="12.810836922256323"><ele>28.333333333333336</ele><time>2026-04-26T12:19:59Z</time></trkpt><trkpt lat="41.47616131975398" lon="12.810796483251018"><ele>28.666666666666664</ele><time>2026-04-26T12:20:00Z</time></trkpt><trkpt lat="41.47596567744367" lon="12.810753068484953"><ele>29.0</ele><time>2026-04-26T12:20:01Z</time></trkpt><trkpt lat="41.47577813475563" lon="12.81070833325127"><ele>29.0</ele><time>2026-04-26T12:20:02Z</time></trkpt><trkpt lat="41.47559945078979" lon="12.81066651901066"><ele>29.0</ele><time>2026-04-26T12:20:03Z</time></trkpt><trkpt lat="41.47541464391862" lon="12.810628540275307"><ele>29.0</ele><time>2026-04-26T12:20:04Z</time></trkpt><trkpt lat="41.47522561971953" lon="12.810593097819929"><ele>28.666666666666664</ele><time>2026-04-26T12:20:05Z</time></trkpt><trkpt lat="41.4750364689957" lon="12.810551950326795"><ele>28.333333333333336</ele><time>2026-04-26T12:20:06Z</time></trkpt><trkpt lat="41.474837765660865" lon="12.81051522909695"><ele>28.0</ele><time>2026-04-26T12:20:07Z</time></trkpt><trkpt lat="41.47463906594984" lon="12.81048084425597"><ele>27.666666666666668</ele><time>2026-04-26T12:20:08Z</time></trkpt><trkpt lat="41.474457155878646" lon="12.81044042595073"><ele>27.333333333333336</ele><time>2026-04-26T12:20:09Z</time></trkpt><trkpt lat="41.47427855365063" lon="12.810394038801203"><ele>27.0</ele><time>2026-04-26T12:20:10Z</time></trkpt><trkpt lat="41.47409623225091" lon="12.810348048703052"><ele>27.0</ele><time>2026-04-26T12:20:11Z</time></trkpt><trkpt lat="41.47392083849338" lon="12.810309572452498"><ele>27.0</ele><time>2026-04-26T12:20:12Z</time></trkpt><trkpt lat="41.47374253724474" lon="12.810272401846957"><ele>27.0</ele><time>2026-04-26T12:20:13Z</time></trkpt><trkpt lat="41.47358674971812" lon="12.810240087443177"><ele>26.5</ele><time>2026-04-26T12:20:14Z</time></trkpt><trkpt lat="41.47345425373764" lon="12.810214426210532"><ele>26.0</ele><time>2026-04-26T12:20:15Z</time></trkpt><trkpt lat="41.47332949570642" lon="12.810193665198774"><ele>25.5</ele><time>2026-04-26T12:20:16Z</time></trkpt><trkpt lat="41.473193375911436" lon="12.810169753781016"><ele>25.0</ele><time>2026-04-26T12:20:17Z</time></trkpt><trkpt lat="41.47306436086089" lon="12.810139703146964"><ele>24.5</ele><time>2026-04-26T12:20:18Z</time></trkpt><trkpt lat="41.47293240284712" lon="12.810102062954007"><ele>24.0</ele><time>2026-04-26T12:20:19Z</time></trkpt><trkpt lat="41.47280497567916" lon="12.810072163182252"><ele>23.5</ele><time>2026-04-26T12:20:20Z</time></trkpt><trkpt lat="41.47269180676919" lon="12.810054741934499"><ele>23.0</ele><time>2026-04-26T12:20:21Z</time></trkpt><trkpt lat="41.47259493913178" lon="12.810037375544217"><ele>23.0</ele><time>2026-04-26T12:20:22Z</time></trkpt><trkpt lat="41.472514603145015" lon="12.810024907114958"><ele>23.0</ele><time>2026-04-26T12:20:23Z</time></trkpt><trkpt lat="41.472438632632034" lon="12.810014533324159"><ele>23.0</ele><time>2026-04-26T12:20:24Z</time></trkpt><trkpt lat="41.47236981192055" lon="12.810001564783203"><ele>23.0</ele><time>2026-04-26T12:20:25Z</time></trkpt><trkpt lat="41.47226747038993" lon="12.80996980270297"><ele>23.0</ele><time>2026-04-26T12:20:27Z</time></trkpt><trkpt lat="41.47219368250977" lon="12.810096360773933"><ele>23.4</ele><time>2026-04-26T12:20:31Z</time></trkpt><trkpt lat="41.47218920206657" lon="12.810202221679216"><ele>23.799999999999997</ele><time>2026-04-26T12:20:33Z</time></trkpt><trkpt lat="41.472181568855305" lon="12.81033094917486"><ele>24.2</ele><time>2026-04-26T12:20:35Z</time></trkpt><trkpt lat="41.47216577822445" lon="12.810454669248573"><ele>24.6</ele><time>2026-04-26T12:20:37Z</time></trkpt><trkpt lat="41.4721549405153" lon="12.810597123363127"><ele>25.0</ele><time>2026-04-26T12:20:38.999Z</time></trkpt><trkpt lat="41.47213829493609" lon="12.810745359163795"><ele>25.0</ele><time>2026-04-26T12:20:40.999Z</time></trkpt><trkpt lat="41.47212514806545" lon="12.810902991803081"><ele>25.0</ele><time>2026-04-26T12:20:42.999Z</time></trkpt><trkpt lat="41.47209895593354" lon="12.811030003069622"><ele>25.0</ele><time>2026-04-26T12:20:44.999Z</time></trkpt><trkpt lat="41.472102161732195" lon="12.811168091209444"><ele>25.0</ele><time>2026-04-26T12:20:46.999Z</time></trkpt><trkpt lat="41.47208117819356" lon="12.81128445519838"><ele>25.0</ele><time>2026-04-26T12:20:48.999Z</time></trkpt><trkpt lat="41.472067593968" lon="12.8114196740079"><ele>25.0</ele><time>2026-04-26T12:20:50.999Z</time></trkpt><trkpt lat="41.47206293179739" lon="12.811561500574179"><ele>25.0</ele><time>2026-04-26T12:20:52.999Z</time></trkpt><trkpt lat="41.47205545240071" lon="12.811691487984412"><ele>25.0</ele><time>2026-04-26T12:20:54.999Z</time></trkpt><trkpt lat="41.47204708897961" lon="12.811796912255147"><ele>25.0</ele><time>2026-04-26T12:20:56.999Z</time></trkpt><trkpt lat="41.47203457641785" lon="12.811919264843834"><ele>25.0</ele><time>2026-04-26T12:20:58.999Z</time></trkpt><trkpt lat="41.47202779447081" lon="12.812030414650998"><ele>25.333333333333336</ele><time>2026-04-26T12:21:00.999Z</time></trkpt><trkpt lat="41.472015369819616" lon="12.812134683107363"><ele>25.666666666666668</ele><time>2026-04-26T12:21:02.999Z</time></trkpt><trkpt lat="41.472004217544246" lon="12.812240943521829"><ele>26.0</ele><time>2026-04-26T12:21:04.999Z</time></trkpt><trkpt lat="41.471985640016285" lon="12.812328937990442"><ele>26.333333333333336</ele><time>2026-04-26T12:21:06.999Z</time></trkpt><trkpt lat="41.471928097983735" lon="12.812410541281189"><ele>26.666666666666668</ele><time>2026-04-26T12:21:09.999Z</time></trkpt><trkpt lat="41.47183972405669" lon="12.812428921064713"><ele>27.0</ele><time>2026-04-26T12:21:12.999Z</time></trkpt><trkpt lat="41.47174045793424" lon="12.812416310476282"><ele>27.0</ele><time>2026-04-26T12:21:15.999Z</time></trkpt><trkpt lat="41.47167687270159" lon="12.812394434640085"><ele>27.0</ele><time>2026-04-26T12:21:17.999Z</time></trkpt><trkpt lat="41.471594001214896" lon="12.812370413414136"><ele>27.0</ele><time>2026-04-26T12:21:20.999Z</time></trkpt><trkpt lat="41.471529396666625" lon="12.812375791715063"><ele>27.0</ele><time>2026-04-26T12:21:22.999Z</time></trkpt><trkpt lat="41.471449249217564" lon="12.812392174659395"><ele>27.0</ele><time>2026-04-26T12:21:24.999Z</time></trkpt><trkpt lat="41.471368662922764" lon="12.81242142550309"><ele>27.0</ele><time>2026-04-26T12:21:27.999Z</time></trkpt><trkpt lat="41.47130429126258" lon="12.812482602506647"><ele>26.57142857142857</ele><time>2026-04-26T12:21:30.999Z</time></trkpt><trkpt lat="41.47125241420715" lon="12.81253414348304"><ele>26.142857142857142</ele><time>2026-04-26T12:21:32.998Z</time></trkpt><trkpt lat="41.471187503400316" lon="12.812574434191955"><ele>25.714285714285715</ele><time>2026-04-26T12:21:44.998Z</time></trkpt><trkpt lat="41.471104140066814" lon="12.812587113884154"><ele>25.285714285714285</ele><time>2026-04-26T12:21:47.998Z</time></trkpt><trkpt lat="41.47102970018442" lon="12.812639360521002"><ele>24.857142857142858</ele><time>2026-04-26T12:21:50.998Z</time></trkpt><trkpt lat="41.47096836432692" lon="12.812683050627317"><ele>24.428571428571427</ele><time>2026-04-26T12:21:52.998Z</time></trkpt><trkpt lat="41.47091458241855" lon="12.81272879091856"><ele>24.0</ele><time>2026-04-26T12:21:55.998Z</time></trkpt><trkpt lat="41.47085918263928" lon="12.812771966533859"><ele>24.0</ele><time>2026-04-26T12:22:01Z</time></trkpt><trkpt lat="41.4709463629797" lon="12.812717217641188"><ele>24.0</ele><time>2026-04-26T12:22:47.999Z</time></trkpt><trkpt lat="41.47100858045432" lon="12.812667826679595"><ele>24.0</ele><time>2026-04-26T12:22:49.999Z</time></trkpt><trkpt lat="41.47107153565826" lon="12.81261490401686"><ele>24.0</ele><time>2026-04-26T12:22:51.999Z</time></trkpt><trkpt lat="41.47113617041205" lon="12.812559677288512"><ele>24.0</ele><time>2026-04-26T12:22:53.999Z</time></trkpt><trkpt lat="41.47122073540237" lon="12.812533518423379"><ele>24.0</ele><time>2026-04-26T12:22:56.999Z</time></trkpt><trkpt lat="41.47129511430937" lon="12.812476415150599"><ele>24.5</ele><time>2026-04-26T12:22:58.999Z</time></trkpt><trkpt lat="41.47137038016097" lon="12.81241553553867"><ele>25.0</ele><time>2026-04-26T12:23:00.999Z</time></trkpt><trkpt lat="41.471453478540724" lon="12.81237592926773"><ele>25.5</ele><time>2026-04-26T12:23:02.999Z</time></trkpt><trkpt lat="41.471523382409366" lon="12.812352398920385"><ele>26.0</ele><time>2026-04-26T12:23:04.999Z</time></trkpt><trkpt lat="41.47159932179258" lon="12.812343707502489"><ele>26.5</ele><time>2026-04-26T12:23:06.999Z</time></trkpt><trkpt lat="41.47166398764023" lon="12.812366665479914"><ele>27.0</ele><time>2026-04-26T12:23:08.999Z</time></trkpt><trkpt lat="41.47174042030327" lon="12.81239929872364"><ele>27.0</ele><time>2026-04-26T12:23:10.999Z</time></trkpt><trkpt lat="41.471817108102535" lon="12.812400879991946"><ele>27.0</ele><time>2026-04-26T12:23:12.999Z</time></trkpt><trkpt lat="41.471895497234655" lon="12.812411556506424"><ele>27.0</ele><time>2026-04-26T12:23:14.999Z</time></trkpt><trkpt lat="41.47195545697862" lon="12.812446834724684"><ele>27.0</ele><time>2026-04-26T12:23:16.999Z</time></trkpt><trkpt lat="41.47201575786993" lon="12.812528968922983"><ele>27.0</ele><time>2026-04-26T12:23:19.999Z</time></trkpt><trkpt lat="41.47209125733095" lon="12.81248012387501"><ele>27.0</ele><time>2026-04-26T12:23:22.999Z</time></trkpt><trkpt lat="41.47210683955888" lon="12.812379976248991"><ele>27.0</ele><time>2026-04-26T12:23:24.999Z</time></trkpt><trkpt lat="41.47212482149104" lon="12.812262919403299"><ele>27.0</ele><time>2026-04-26T12:23:26.999Z</time></trkpt><trkpt lat="41.47214796240502" lon="12.81213539279535"><ele>27.0</ele><time>2026-04-26T12:23:28.999Z</time></trkpt><trkpt lat="41.472165628717974" lon="12.812000596986623"><ele>27.0</ele><time>2026-04-26T12:23:30.999Z</time></trkpt><trkpt lat="41.472047639888125" lon="12.81185513514043"><ele>26.666666666666668</ele><time>2026-04-26T12:23:32.999Z</time></trkpt><trkpt lat="41.47205997679545" lon="12.81174584074033"><ele>26.333333333333336</ele><time>2026-04-26T12:23:34.999Z</time></trkpt><trkpt lat="41.47207205935532" lon="12.81163020592961"><ele>26.0</ele><time>2026-04-26T12:23:36.998Z</time></trkpt><trkpt lat="41.4720844974194" lon="12.811511168825257"><ele>25.666666666666668</ele><time>2026-04-26T12:23:38.998Z</time></trkpt><trkpt lat="41.47209447311173" lon="12.81141569757841"><ele>25.333333333333336</ele><time>2026-04-26T12:23:40.998Z</time></trkpt><trkpt lat="41.47210417030586" lon="12.811322123738638"><ele>25.0</ele><time>2026-04-26T12:23:43.998Z</time></trkpt><trkpt lat="41.47211163559016" lon="12.811236508729106"><ele>25.000000000000004</ele><time>2026-04-26T12:23:46.998Z</time></trkpt><trkpt lat="41.47212285740718" lon="12.811129750954555"><ele>25.0</ele><time>2026-04-26T12:23:49.998Z</time></trkpt><trkpt lat="41.472134876207484" lon="12.811006024422591"><ele>25.0</ele><time>2026-04-26T12:23:51.998Z</time></trkpt><trkpt lat="41.47213685308881" lon="12.810878484334419"><ele>25.0</ele><time>2026-04-26T12:23:53.998Z</time></trkpt><trkpt lat="41.47214769208414" lon="12.810775484418528"><ele>25.000000000000004</ele><time>2026-04-26T12:23:55.998Z</time></trkpt><trkpt lat="41.47215677543905" lon="12.810692234296729"><ele>25.0</ele><time>2026-04-26T12:23:58.998Z</time></trkpt><trkpt lat="41.472115737279786" lon="12.810809865706785"><ele>25.0</ele><time>2026-04-26T12:26:02.998Z</time></trkpt><trkpt lat="41.472114979496546" lon="12.810958138459734"><ele>25.0</ele><time>2026-04-26T12:26:04.998Z</time></trkpt><trkpt lat="41.47210261704578" lon="12.811082748670975"><ele>25.0</ele><time>2026-04-26T12:26:06.998Z</time></trkpt><trkpt lat="41.472081010273726" lon="12.811214743170035"><ele>25.0</ele><time>2026-04-26T12:26:08.998Z</time></trkpt><trkpt lat="41.47207047520089" lon="12.811323195599547"><ele>25.0</ele><time>2026-04-26T12:26:11Z</time></trkpt><trkpt lat="41.472072990016535" lon="12.811444445924856"><ele>25.000000000000004</ele><time>2026-04-26T12:26:13Z</time></trkpt><trkpt lat="41.47206020241426" lon="12.811554437020726"><ele>25.0</ele><time>2026-04-26T12:26:15Z</time></trkpt><trkpt lat="41.472069425718466" lon="12.811658514043977"><ele>25.0</ele><time>2026-04-26T12:26:18Z</time></trkpt><trkpt lat="41.47204864711805" lon="12.811795615187155"><ele>25.0</ele><time>2026-04-26T12:26:20Z</time></trkpt><trkpt lat="41.47203517761563" lon="12.811892923624626"><ele>25.000000000000004</ele><time>2026-04-26T12:26:22Z</time></trkpt><trkpt lat="41.47202796372357" lon="12.812001112240516"><ele>25.0</ele><time>2026-04-26T12:26:24Z</time></trkpt><trkpt lat="41.472015627859385" lon="12.812122892804542"><ele>25.28571428571429</ele><time>2026-04-26T12:26:27Z</time></trkpt><trkpt lat="41.47200490359417" lon="12.812237404351407"><ele>25.571428571428573</ele><time>2026-04-26T12:26:30Z</time></trkpt><trkpt lat="41.47198787422417" lon="12.812327098596597"><ele>25.857142857142858</ele><time>2026-04-26T12:26:32.999Z</time></trkpt><trkpt lat="41.471938525917714" lon="12.812394982213059"><ele>26.142857142857146</ele><time>2026-04-26T12:26:37.999Z</time></trkpt><trkpt lat="41.471875032535856" lon="12.812392658644924"><ele>26.428571428571427</ele><time>2026-04-26T12:28:06.998Z</time></trkpt><trkpt lat="41.47191447375087" lon="12.812464144034363"><ele>26.714285714285715</ele><time>2026-04-26T12:28:19.999Z</time></trkpt><trkpt lat="41.47197042422016" lon="12.812507445008087"><ele>27.0</ele><time>2026-04-26T12:28:27.999Z</time></trkpt><trkpt lat="41.471969602694294" lon="12.812600806962704"><ele>27.0</ele><time>2026-04-26T12:28:35.999Z</time></trkpt><trkpt lat="41.47196778093754" lon="12.812505820119112"><ele>27.0</ele><time>2026-04-26T12:28:41.999Z</time></trkpt><trkpt lat="41.47194969773877" lon="12.812422610697388"><ele>27.0</ele><time>2026-04-26T12:28:47.999Z</time></trkpt><trkpt lat="41.471926009188394" lon="12.81234439160842"><ele>27.0</ele><time>2026-04-26T12:28:53.999Z</time></trkpt><trkpt lat="41.471960067084794" lon="12.812434231727934"><ele>27.0</ele><time>2026-04-26T12:29:24.999Z</time></trkpt><trkpt lat="41.47196172525036" lon="12.81253770529003"><ele>27.0</ele><time>2026-04-26T12:29:26.999Z</time></trkpt><trkpt lat="41.471943720177045" lon="12.812645642239191"><ele>27.0</ele><time>2026-04-26T12:29:28.999Z</time></trkpt><trkpt lat="41.47188449782903" lon="12.812711873646187"><ele>26.5</ele><time>2026-04-26T12:29:31.998Z</time></trkpt><trkpt lat="41.47181138869042" lon="12.812770732074647"><ele>26.0</ele><time>2026-04-26T12:29:33.998Z</time></trkpt><trkpt lat="41.47174431938977" lon="12.812795166731892"><ele>25.5</ele><time>2026-04-26T12:29:35.998Z</time></trkpt><trkpt lat="41.47168508739392" lon="12.812841403614811"><ele>25.0</ele><time>2026-04-26T12:31:17.999Z</time></trkpt><trkpt lat="41.47174018294518" lon="12.812786049528125"><ele>24.5</ele><time>2026-04-26T12:31:58.998Z</time></trkpt><trkpt lat="41.47176072898156" lon="12.812690093707479"><ele>24.0</ele><time>2026-04-26T12:32:37Z</time></trkpt><trkpt lat="41.47168234238256" lon="12.81278359485553"><ele>23.999999999999996</ele><time>2026-04-26T12:34:02.998Z</time></trkpt><trkpt lat="41.47161645095935" lon="12.812811297209533"><ele>24.0</ele><time>2026-04-26T12:34:09.998Z</time></trkpt><trkpt lat="41.47155257363845" lon="12.812863994090884"><ele>24.0</ele><time>2026-04-26T12:34:15.998Z</time></trkpt><trkpt lat="41.47151225413275" lon="12.812937184223738"><ele>24.0</ele><time>2026-04-26T12:34:23.998Z</time></trkpt><trkpt lat="41.47145361193065" lon="12.812979040998082"><ele>24.0</ele><time>2026-04-26T12:34:29.998Z</time></trkpt><trkpt lat="41.47138014433478" lon="12.812980263552024"><ele>23.999999999999996</ele><time>2026-04-26T12:34:36Z</time></trkpt><trkpt lat="41.47131528901519" lon="12.812963640196225"><ele>24.0</ele><time>2026-04-26T12:34:42.999Z</time></trkpt><trkpt lat="41.471248242131736" lon="12.812958269146156"><ele>23.857142857142854</ele><time>2026-04-26T12:34:49.999Z</time></trkpt><trkpt lat="41.471172769884134" lon="12.812949883720183"><ele>23.714285714285715</ele><time>2026-04-26T12:34:56.999Z</time></trkpt><trkpt lat="41.47110385520828" lon="12.812937042700185"><ele>23.57142857142857</ele><time>2026-04-26T12:35:01.999Z</time></trkpt><trkpt lat="41.47103976099578" lon="12.812954293187067"><ele>23.428571428571427</ele><time>2026-04-26T12:35:06.999Z</time></trkpt><trkpt lat="41.470971542456994" lon="12.812979990849021"><ele>23.285714285714285</ele><time>2026-04-26T12:35:12.999Z</time></trkpt><trkpt lat="41.470927539945905" lon="12.81291877786084"><ele>23.142857142857142</ele><time>2026-04-26T12:35:21.999Z</time></trkpt><trkpt lat="41.47091335637808" lon="12.81283569090061"><ele>23.0</ele><time>2026-04-26T12:35:27.999Z</time></trkpt><trkpt lat="41.47085064632235" lon="12.812786580958702"><ele>23.0</ele><time>2026-04-26T12:35:33.999Z</time></trkpt><trkpt lat="41.4707905685993" lon="12.81282122466936"><ele>23.0</ele><time>2026-04-26T12:35:37.999Z</time></trkpt><trkpt lat="41.47071458683427" lon="12.81285915596647"><ele>23.0</ele><time>2026-04-26T12:35:44.999Z</time></trkpt><trkpt lat="41.47065260882301" lon="12.81283441219436"><ele>23.0</ele><time>2026-04-26T12:35:49.998Z</time></trkpt><trkpt lat="41.47065470880041" lon="12.812735067676517"><ele>23.0</ele><time>2026-04-26T12:35:57.998Z</time></trkpt><trkpt lat="41.47068905645857" lon="12.812655190915102"><ele>23.0</ele><time>2026-04-26T12:36:02.998Z</time></trkpt><trkpt lat="41.47070332130413" lon="12.812571662174056"><ele>23.0</ele><time>2026-04-26T12:36:09.998Z</time></trkpt><trkpt lat="41.4706866049832" lon="12.812481348471062"><ele>23.142857142857142</ele><time>2026-04-26T12:36:14.998Z</time></trkpt><trkpt lat="41.47068509298319" lon="12.812382275665447"><ele>23.285714285714285</ele><time>2026-04-26T12:36:20.998Z</time></trkpt><trkpt lat="41.47062947933865" lon="12.812324949324166"><ele>23.428571428571427</ele><time>2026-04-26T12:36:24.998Z</time></trkpt><trkpt lat="41.47062757843448" lon="12.812238693186982"><ele>23.57142857142857</ele><time>2026-04-26T12:36:30.998Z</time></trkpt><trkpt lat="41.47069234289269" lon="12.812251705457841"><ele>23.714285714285715</ele><time>2026-04-26T12:36:39.999Z</time></trkpt><trkpt lat="41.47075269594355" lon="12.812294289405267"><ele>23.857142857142854</ele><time>2026-04-26T12:36:43.999Z</time></trkpt><trkpt lat="41.47082007030039" lon="12.812301875081905"><ele>24.0</ele><time>2026-04-26T12:36:50.999Z</time></trkpt><trkpt lat="41.47087830782446" lon="12.81226499022065"><ele>23.999999999999996</ele><time>2026-04-26T12:36:57.999Z</time></trkpt><trkpt lat="41.47091789034304" lon="12.812198776847024"><ele>24.0</ele><time>2026-04-26T12:37:06.999Z</time></trkpt><trkpt lat="41.47096910699569" lon="12.812138650399532"><ele>24.0</ele><time>2026-04-26T12:37:12.999Z</time></trkpt><trkpt lat="41.4710429849654" lon="12.812143748372877"><ele>24.0</ele><time>2026-04-26T12:37:31.999Z</time></trkpt><trkpt lat="41.47111705258927" lon="12.81217533660524"><ele>24.0</ele><time>2026-04-26T12:37:38.998Z</time></trkpt><trkpt lat="41.471176085445244" lon="12.812140696395712"><ele>23.999999999999996</ele><time>2026-04-26T12:37:44.998Z</time></trkpt><trkpt lat="41.47121829738363" lon="12.812078105819074"><ele>24.0</ele><time>2026-04-26T12:37:49.998Z</time></trkpt><trkpt lat="41.4712198394213" lon="12.811978081078147"><ele>23.999999999999996</ele><time>2026-04-26T12:37:54.999Z</time></trkpt><trkpt lat="41.4711792045957" lon="12.811911155769266"><ele>24.0</ele><time>2026-04-26T12:38:01.999Z</time></trkpt><trkpt lat="41.471129138273824" lon="12.811859844729115"><ele>24.0</ele><time>2026-04-26T12:38:05.999Z</time></trkpt><trkpt lat="41.471117524436615" lon="12.811769559018334"><ele>24.0</ele><time>2026-04-26T12:38:14.999Z</time></trkpt><trkpt lat="41.47110844559584" lon="12.811866742731402"><ele>24.0</ele><time>2026-04-26T12:40:31.999Z</time></trkpt><trkpt lat="41.47111899694851" lon="12.81178150552099"><ele>23.999999999999996</ele><time>2026-04-26T12:40:56.999Z</time></trkpt><trkpt lat="41.47111061273739" lon="12.811868430078437"><ele>24.0</ele><time>2026-04-26T12:41:01.999Z</time></trkpt><trkpt lat="41.47117550698501" lon="12.811898874968156"><ele>23.999999999999996</ele><time>2026-04-26T12:42:06.999Z</time></trkpt><trkpt lat="41.4712039928314" lon="12.811988569033613"><ele>24.0</ele><time>2026-04-26T12:42:15.999Z</time></trkpt><trkpt lat="41.47120731325235" lon="12.81207449766151"><ele>24.0</ele><time>2026-04-26T12:42:20.999Z</time></trkpt><trkpt lat="41.471197853471836" lon="12.81217074633428"><ele>24.0</ele><time>2026-04-26T12:42:27.999Z</time></trkpt><trkpt lat="41.471199696286035" lon="12.812258016643227"><ele>24.0</ele><time>2026-04-26T12:42:35.999Z</time></trkpt><trkpt lat="41.4711588308644" lon="12.812338032064025"><ele>23.999999999999996</ele><time>2026-04-26T12:42:44.998Z</time></trkpt><trkpt lat="41.47109957278582" lon="12.812378107396485"><ele>24.0</ele><time>2026-04-26T12:42:50.998Z</time></trkpt><trkpt lat="41.47104008066057" lon="12.812417380233242"><ele>23.999999999999996</ele><time>2026-04-26T12:43:01.999Z</time></trkpt><trkpt lat="41.47097785385473" lon="12.812446745709359"><ele>24.0</ele><time>2026-04-26T12:43:08.999Z</time></trkpt><trkpt lat="41.470917314416226" lon="12.812478447492762"><ele>24.0</ele><time>2026-04-26T12:43:15.999Z</time></trkpt><trkpt lat="41.47085419370283" lon="12.812523904969654"><ele>24.0</ele><time>2026-04-26T12:43:22.999Z</time></trkpt><trkpt lat="41.47079953877314" lon="12.812569904666026"><ele>24.0</ele><time>2026-04-26T12:43:28.999Z</time></trkpt><trkpt lat="41.47074858175791" lon="12.812635135703184"><ele>23.999999999999996</ele><time>2026-04-26T12:43:34.999Z</time></trkpt><trkpt lat="41.47074337773423" lon="12.812726343019921"><ele>24.0</ele><time>2026-04-26T12:43:39.999Z</time></trkpt><trkpt lat="41.47079131811031" lon="12.81279893413207"><ele>23.999999999999996</ele><time>2026-04-26T12:43:46.999Z</time></trkpt><trkpt lat="41.4708564474621" lon="12.812795651091996"><ele>24.0</ele><time>2026-04-26T12:43:52.999Z</time></trkpt><trkpt lat="41.47089278731615" lon="12.812725686633069"><ele>24.0</ele><time>2026-04-26T12:43:59.999Z</time></trkpt><trkpt lat="41.47095417592647" lon="12.812682142684888"><ele>24.0</ele><time>2026-04-26T12:44:05.999Z</time></trkpt><trkpt lat="41.47101422794926" lon="12.81264696537411"><ele>24.0</ele><time>2026-04-26T12:44:11.999Z</time></trkpt><trkpt lat="41.47097280806122" lon="12.812712872892178"><ele>23.999999999999996</ele><time>2026-04-26T12:45:50Z</time></trkpt><trkpt lat="41.47092104649141" lon="12.812780267034224"><ele>24.0</ele><time>2026-04-26T12:45:56.999Z</time></trkpt><trkpt lat="41.47086429218944" lon="12.812832321951975"><ele>23.857142857142854</ele><time>2026-04-26T12:46:02.999Z</time></trkpt><trkpt lat="41.47091094492392" lon="12.812904776599844"><ele>23.714285714285715</ele><time>2026-04-26T12:46:10.999Z</time></trkpt><trkpt lat="41.47093132791657" lon="12.812989285119095"><ele>23.57142857142857</ele><time>2026-04-26T12:46:16.999Z</time></trkpt><trkpt lat="41.470997474287316" lon="12.813003996120749"><ele>23.428571428571427</ele><time>2026-04-26T12:46:24.999Z</time></trkpt><trkpt lat="41.47105382992378" lon="12.812949256467869"><ele>23.285714285714285</ele><time>2026-04-26T12:46:33.999Z</time></trkpt><trkpt lat="41.471124041326725" lon="12.81291714674154"><ele>23.142857142857142</ele><time>2026-04-26T12:46:41.999Z</time></trkpt><trkpt lat="41.47119009970278" lon="12.812919242372379"><ele>23.0</ele><time>2026-04-26T12:46:47.999Z</time></trkpt><trkpt lat="41.471255372802986" lon="12.812950810545491"><ele>23.0</ele><time>2026-04-26T12:46:55.999Z</time></trkpt><trkpt lat="41.471290493834886" lon="12.813025352135346"><ele>23.0</ele><time>2026-04-26T12:47:00.999Z</time></trkpt><trkpt lat="41.47125141060953" lon="12.813103122442277"><ele>23.0</ele><time>2026-04-26T12:47:15.999Z</time></trkpt><trkpt lat="41.47131111540999" lon="12.813064994596582"><ele>23.0</ele><time>2026-04-26T12:48:23.999Z</time></trkpt><trkpt lat="41.47137202926849" lon="12.813021994483199"><ele>23.0</ele><time>2026-04-26T12:48:30.999Z</time></trkpt><trkpt lat="41.47143171020441" lon="12.812992855983314"><ele>23.0</ele><time>2026-04-26T12:48:37.999Z</time></trkpt><trkpt lat="41.47149533581792" lon="12.812955668926904"><ele>23.0</ele><time>2026-04-26T12:48:45.999Z</time></trkpt><trkpt lat="41.471510427676655" lon="12.812870198945168"><ele>23.142857142857142</ele><time>2026-04-26T12:48:57.999Z</time></trkpt><trkpt lat="41.47151344961189" lon="12.812780630817688"><ele>23.285714285714285</ele><time>2026-04-26T12:49:04.999Z</time></trkpt><trkpt lat="41.471456234889516" lon="12.812708412575102"><ele>23.428571428571427</ele><time>2026-04-26T12:49:34.999Z</time></trkpt><trkpt lat="41.47140768122719" lon="12.812765008527101"><ele>23.57142857142857</ele><time>2026-04-26T12:49:47.999Z</time></trkpt><trkpt lat="41.47136904354364" lon="12.812834243366664"><ele>23.714285714285715</ele><time>2026-04-26T12:49:54.999Z</time></trkpt><trkpt lat="41.471303951917406" lon="12.812820639698945"><ele>23.857142857142854</ele><time>2026-04-26T12:50:01.999Z</time></trkpt><trkpt lat="41.471376088936914" lon="12.812813540225493"><ele>24.0</ele><time>2026-04-26T12:50:18.999Z</time></trkpt><trkpt lat="41.471490446366424" lon="12.812802393429925"><ele>23.999999999999996</ele><time>2026-04-26T12:50:30.999Z</time></trkpt><trkpt lat="41.471560739011274" lon="12.812732556314343"><ele>24.0</ele><time>2026-04-26T12:50:57.999Z</time></trkpt><trkpt lat="41.47151069439711" lon="12.812796852538739"><ele>24.0</ele><time>2026-04-26T13:04:07.001Z</time></trkpt><trkpt lat="41.47149995029757" lon="12.812881693081579"><ele>24.0</ele><time>2026-04-26T13:04:13Z</time></trkpt><trkpt lat="41.47147196464936" lon="12.812963200472488"><ele>24.0</ele><time>2026-04-26T13:04:23Z</time></trkpt><trkpt lat="41.47140625454468" lon="12.812990522614705"><ele>23.999999999999996</ele><time>2026-04-26T13:04:31Z</time></trkpt><trkpt lat="41.47133883190225" lon="12.81297813266257"><ele>24.0</ele><time>2026-04-26T13:04:37Z</time></trkpt><trkpt lat="41.471271283096556" lon="12.81295967490473"><ele>23.857142857142854</ele><time>2026-04-26T13:04:45Z</time></trkpt><trkpt lat="41.47120652761802" lon="12.812955890833582"><ele>23.714285714285715</ele><time>2026-04-26T13:04:52Z</time></trkpt><trkpt lat="41.471132750740885" lon="12.812947569091959"><ele>23.57142857142857</ele><time>2026-04-26T13:04:59Z</time></trkpt><trkpt lat="41.471065110951656" lon="12.81296564802569"><ele>23.428571428571427</ele><time>2026-04-26T13:05:05.999Z</time></trkpt><trkpt lat="41.471002805147826" lon="12.812984843080777"><ele>23.285714285714285</ele><time>2026-04-26T13:05:10.999Z</time></trkpt><trkpt lat="41.47093632799026" lon="12.812983414484549"><ele>23.142857142857142</ele><time>2026-04-26T13:05:18.999Z</time></trkpt><trkpt lat="41.47089784787562" lon="12.812913716784069"><ele>23.0</ele><time>2026-04-26T13:05:25.999Z</time></trkpt><trkpt lat="41.47085874562813" lon="12.812837546113466"><ele>23.0</ele><time>2026-04-26T13:05:32.999Z</time></trkpt><trkpt lat="41.47089549919488" lon="12.812757334072884"><ele>23.0</ele><time>2026-04-26T13:05:43.999Z</time></trkpt><trkpt lat="41.47089927899475" lon="12.812669057722083"><ele>23.0</ele><time>2026-04-26T13:05:50.999Z</time></trkpt><trkpt lat="41.47088802332443" lon="12.812577041117041"><ele>23.0</ele><time>2026-04-26T13:06:00Z</time></trkpt><trkpt lat="41.470851107329715" lon="12.812502625285587"><ele>23.0</ele><time>2026-04-26T13:06:09Z</time></trkpt><trkpt lat="41.47087221576544" lon="12.81241624376766"><ele>23.0</ele><time>2026-04-26T13:06:17Z</time></trkpt><trkpt lat="41.4708470468016" lon="12.812338743792083"><ele>23.0</ele><time>2026-04-26T13:06:26Z</time></trkpt><trkpt lat="41.47088248539418" lon="12.812265647000109"><ele>23.0</ele><time>2026-04-26T13:12:36Z</time></trkpt><trkpt lat="41.470929791910955" lon="12.812199695124363"><ele>23.0</ele><time>2026-04-26T13:13:26.999Z</time></trkpt><trkpt lat="41.470873319368884" lon="12.812258361472644"><ele>23.0</ele><time>2026-04-26T13:16:27Z</time></trkpt><trkpt lat="41.47083502442958" lon="12.812330596888971"><ele>23.0</ele><time>2026-04-26T13:16:35Z</time></trkpt><trkpt lat="41.47079177777631" lon="12.812401500815174"><ele>23.0</ele><time>2026-04-26T13:17:53.999Z</time></trkpt><trkpt lat="41.470768326192584" lon="12.812489221503577"><ele>23.0</ele><time>2026-04-26T13:17:59.999Z</time></trkpt><trkpt lat="41.4707822241864" lon="12.812576397046573"><ele>23.0</ele><time>2026-04-26T13:18:06.999Z</time></trkpt><trkpt lat="41.4708664941227" lon="12.812678989620983"><ele>23.0</ele><time>2026-04-26T13:18:48Z</time></trkpt><trkpt lat="41.47087034905402" lon="12.812769725374679"><ele>23.0</ele><time>2026-04-26T13:18:56Z</time></trkpt><trkpt lat="41.470843247409746" lon="12.812850153875011"><ele>23.0</ele><time>2026-04-26T13:19:03Z</time></trkpt><trkpt lat="41.47086991770113" lon="12.81293050631295"><ele>23.0</ele><time>2026-04-26T13:19:09Z</time></trkpt><trkpt lat="41.47090399342484" lon="12.813011583310972"><ele>23.0</ele><time>2026-04-26T13:19:14Z</time></trkpt><trkpt lat="41.47095766660747" lon="12.813057082288323"><ele>23.0</ele><time>2026-04-26T13:19:20Z</time></trkpt><trkpt lat="41.47102866781342" lon="12.813042749245847"><ele>23.0</ele><time>2026-04-26T13:19:27Z</time></trkpt><trkpt lat="41.471099391508524" lon="12.813033274134757"><ele>23.0</ele><time>2026-04-26T13:19:33.999Z</time></trkpt><trkpt lat="41.47116523544956" lon="12.813037278495706"><ele>23.0</ele><time>2026-04-26T13:19:39.999Z</time></trkpt><trkpt lat="41.47123841270628" lon="12.81305327188522"><ele>23.0</ele><time>2026-04-26T13:19:46.999Z</time></trkpt><trkpt lat="41.471307735384" lon="12.813037771876434"><ele>23.0</ele><time>2026-04-26T13:19:53.999Z</time></trkpt><trkpt lat="41.47134360773632" lon="12.812967354489107"><ele>23.0</ele><time>2026-04-26T13:19:57.999Z</time></trkpt><trkpt lat="41.47138855332459" lon="12.81290562554249"><ele>23.0</ele><time>2026-04-26T13:20:02.999Z</time></trkpt><trkpt lat="41.47145021540504" lon="12.812880650266457"><ele>23.0</ele><time>2026-04-26T13:20:09.999Z</time></trkpt><trkpt lat="41.471502006389635" lon="12.812822654926943"><ele>23.0</ele><time>2026-04-26T13:20:15.999Z</time></trkpt><trkpt lat="41.47156326484458" lon="12.81285507629475"><ele>23.0</ele><time>2026-04-26T13:38:12.999Z</time></trkpt><trkpt lat="41.471507969084314" lon="12.81289597396909"><ele>23.0</ele><time>2026-04-26T13:38:27.999Z</time></trkpt><trkpt lat="41.47146242580526" lon="12.812974698949732"><ele>23.0</ele><time>2026-04-26T13:38:36.999Z</time></trkpt><trkpt lat="41.47139900626114" lon="12.812993182243142"><ele>23.0</ele><time>2026-04-26T13:38:44.999Z</time></trkpt><trkpt lat="41.47133560132256" lon="12.813000178805124"><ele>23.0</ele><time>2026-04-26T13:38:51.999Z</time></trkpt><trkpt lat="41.471275150533764" lon="12.81302836013206"><ele>23.0</ele><time>2026-04-26T13:39:10.999Z</time></trkpt><trkpt lat="41.4712169746161" lon="12.812982704799392"><ele>23.0</ele><time>2026-04-26T13:39:17.999Z</time></trkpt><trkpt lat="41.47115091851002" lon="12.812961978387353"><ele>23.0</ele><time>2026-04-26T13:39:23.999Z</time></trkpt><trkpt lat="41.47108327173999" lon="12.812963683217822"><ele>23.0</ele><time>2026-04-26T13:39:29.998Z</time></trkpt><trkpt lat="41.471014639009454" lon="12.812966107779948"><ele>23.0</ele><time>2026-04-26T13:39:35Z</time></trkpt><trkpt lat="41.47095262751782" lon="12.812992704872817"><ele>23.0</ele><time>2026-04-26T13:39:41Z</time></trkpt><trkpt lat="41.47089119173301" lon="12.812959258419054"><ele>23.0</ele><time>2026-04-26T13:39:49Z</time></trkpt><trkpt lat="41.470888364158554" lon="12.812875204692837"><ele>23.0</ele><time>2026-04-26T13:39:54Z</time></trkpt><trkpt lat="41.470890384469115" lon="12.812787112393798"><ele>23.0</ele><time>2026-04-26T13:40:03Z</time></trkpt><trkpt lat="41.47092565710896" lon="12.81270045666627"><ele>23.0</ele><time>2026-04-26T13:40:11Z</time></trkpt><trkpt lat="41.470915869999736" lon="12.812612392136865"><ele>23.0</ele><time>2026-04-26T13:40:17Z</time></trkpt><trkpt lat="41.47090218288349" lon="12.812522977296794"><ele>23.0</ele><time>2026-04-26T13:40:22.999Z</time></trkpt><trkpt lat="41.470902872454346" lon="12.812438348181212"><ele>23.0</ele><time>2026-04-26T13:40:29.999Z</time></trkpt><trkpt lat="41.47085356451904" lon="12.812366951893113"><ele>23.0</ele><time>2026-04-26T13:40:37.999Z</time></trkpt><trkpt lat="41.470899566123535" lon="12.81230162114323"><ele>23.0</ele><time>2026-04-26T13:40:53.999Z</time></trkpt><trkpt lat="41.47095769546534" lon="12.812257690752004"><ele>23.142857142857142</ele><time>2026-04-26T13:40:59.999Z</time></trkpt><trkpt lat="41.47102646048835" lon="12.812238795696949"><ele>23.285714285714285</ele><time>2026-04-26T13:41:05.999Z</time></trkpt><trkpt lat="41.471094155542936" lon="12.812214525136707"><ele>23.428571428571427</ele><time>2026-04-26T13:41:12.999Z</time></trkpt><trkpt lat="41.47115710090021" lon="12.812173026329186"><ele>23.57142857142857</ele><time>2026-04-26T13:41:18.999Z</time></trkpt><trkpt lat="41.471185269341255" lon="12.812082056811649"><ele>23.714285714285715</ele><time>2026-04-26T13:41:23.999Z</time></trkpt><trkpt lat="41.471185998407385" lon="12.811980960592148"><ele>23.857142857142854</ele><time>2026-04-26T13:41:30.999Z</time></trkpt><trkpt lat="41.471145741902774" lon="12.811896505214213"><ele>24.0</ele><time>2026-04-26T13:41:40Z</time></trkpt><trkpt lat="41.47112793100679" lon="12.811814521887747"><ele>23.999999999999996</ele><time>2026-04-26T13:41:48Z</time></trkpt><trkpt lat="41.471112447729816" lon="12.811897366992318"><ele>24.0</ele><time>2026-04-26T13:46:11.001Z</time></trkpt><trkpt lat="41.471165340279434" lon="12.811948986775043"><ele>24.0</ele><time>2026-04-26T13:46:25Z</time></trkpt><trkpt lat="41.47118096212947" lon="12.812035111597456"><ele>24.0</ele><time>2026-04-26T13:46:35Z</time></trkpt><trkpt lat="41.471194930526956" lon="12.81213065745342"><ele>24.0</ele><time>2026-04-26T13:46:43Z</time></trkpt><trkpt lat="41.47120114329324" lon="12.81221867349272"><ele>23.999999999999996</ele><time>2026-04-26T13:46:49Z</time></trkpt><trkpt lat="41.47121499294884" lon="12.812309516350638"><ele>24.0</ele><time>2026-04-26T13:46:55Z</time></trkpt><trkpt lat="41.47123277852954" lon="12.812398743194478"><ele>23.999999999999996</ele><time>2026-04-26T13:47:02Z</time></trkpt><trkpt lat="41.471241855158766" lon="12.812482706781413"><ele>24.0</ele><time>2026-04-26T13:47:11Z</time></trkpt><trkpt lat="41.471187320687726" lon="12.812537110266312"><ele>24.0</ele><time>2026-04-26T13:47:18.999Z</time></trkpt><trkpt lat="41.47112116326116" lon="12.812554456647455"><ele>24.0</ele><time>2026-04-26T13:47:27.999Z</time></trkpt><trkpt lat="41.47106553965868" lon="12.81260852621404"><ele>24.0</ele><time>2026-04-26T13:47:35.999Z</time></trkpt><trkpt lat="41.471030782829935" lon="12.812683798450564"><ele>23.999999999999996</ele><time>2026-04-26T13:48:06Z</time></trkpt><trkpt lat="41.4709661164373" lon="12.812695523586862"><ele>24.0</ele><time>2026-04-26T13:50:06Z</time></trkpt><trkpt lat="41.470910545958965" lon="12.81273898462501"><ele>23.857142857142854</ele><time>2026-04-26T13:50:12Z</time></trkpt><trkpt lat="41.470857670865584" lon="12.812804733645134"><ele>23.714285714285715</ele><time>2026-04-26T13:50:19Z</time></trkpt><trkpt lat="41.470875670638904" lon="12.812899983756818"><ele>23.57142857142857</ele><time>2026-04-26T13:50:25Z</time></trkpt><trkpt lat="41.47090122255585" lon="12.81298293349631"><ele>23.428571428571427</ele><time>2026-04-26T13:50:30Z</time></trkpt><trkpt lat="41.47094438039612" lon="12.813052752579676"><ele>23.285714285714285</ele><time>2026-04-26T13:50:37Z</time></trkpt><trkpt lat="41.47100855629769" lon="12.813052447290296"><ele>23.142857142857142</ele><time>2026-04-26T13:50:45Z</time></trkpt><trkpt lat="41.471070160776215" lon="12.813019576171115"><ele>23.0</ele><time>2026-04-26T13:50:51Z</time></trkpt><trkpt lat="41.47113674590341" lon="12.81301936947552"><ele>23.0</ele><time>2026-04-26T13:50:58Z</time></trkpt><trkpt lat="41.47120663438972" lon="12.813006581493704"><ele>23.0</ele><time>2026-04-26T13:51:04.999Z</time></trkpt><trkpt lat="41.47126921020871" lon="12.81303139863429"><ele>23.0</ele><time>2026-04-26T13:51:12.999Z</time></trkpt><trkpt lat="41.47133010962804" lon="12.812995699370198"><ele>23.0</ele><time>2026-04-26T13:51:20.999Z</time></trkpt><trkpt lat="41.47135610521225" lon="12.812917570671662"><ele>23.0</ele><time>2026-04-26T13:51:29.999Z</time></trkpt><trkpt lat="41.471380568165074" lon="12.812839571756045"><ele>23.0</ele><time>2026-04-26T13:51:39.999Z</time></trkpt><trkpt lat="41.47147053281648" lon="12.81279827313183"><ele>23.0</ele><time>2026-04-26T13:53:26.999Z</time></trkpt><trkpt lat="41.4715021484572" lon="12.812872437736878"><ele>23.0</ele><time>2026-04-26T14:09:06.999Z</time></trkpt><trkpt lat="41.47148123422768" lon="12.812952387119397"><ele>23.0</ele><time>2026-04-26T14:09:14.999Z</time></trkpt><trkpt lat="41.47141370629591" lon="12.812999774411649"><ele>23.0</ele><time>2026-04-26T14:09:22.999Z</time></trkpt><trkpt lat="41.47134768127377" lon="12.81300510597144"><ele>23.0</ele><time>2026-04-26T14:09:29.999Z</time></trkpt><trkpt lat="41.4712792001405" lon="12.813029147981933"><ele>23.0</ele><time>2026-04-26T14:09:37.999Z</time></trkpt><trkpt lat="41.471215666596656" lon="12.812989951033783"><ele>23.0</ele><time>2026-04-26T14:09:45.999Z</time></trkpt><trkpt lat="41.47115870370936" lon="12.812950156105455"><ele>23.0</ele><time>2026-04-26T14:09:50.999Z</time></trkpt><trkpt lat="41.471092904606834" lon="12.81294596590935"><ele>23.0</ele><time>2026-04-26T14:09:56.999Z</time></trkpt><trkpt lat="41.47102536566554" lon="12.812969197627156"><ele>23.0</ele><time>2026-04-26T14:10:02.999Z</time></trkpt><trkpt lat="41.47095713639761" lon="12.812992114337423"><ele>23.0</ele><time>2026-04-26T14:10:09.998Z</time></trkpt><trkpt lat="41.47090807454415" lon="12.812938395072141"><ele>23.0</ele><time>2026-04-26T14:10:17.998Z</time></trkpt><trkpt lat="41.470880221965366" lon="12.812855064870712"><ele>23.0</ele><time>2026-04-26T14:10:24.998Z</time></trkpt><trkpt lat="41.47085359529853" lon="12.812777916811104"><ele>23.0</ele><time>2026-04-26T14:10:33.998Z</time></trkpt><trkpt lat="41.47089801927767" lon="12.812711804820962"><ele>23.0</ele><time>2026-04-26T14:10:41.998Z</time></trkpt><trkpt lat="41.47093376438318" lon="12.812641253196858"><ele>23.142857142857142</ele><time>2026-04-26T14:10:49.998Z</time></trkpt><trkpt lat="41.470896964904405" lon="12.812552635795523"><ele>23.285714285714285</ele><time>2026-04-26T14:10:58.999Z</time></trkpt><trkpt lat="41.470932426012595" lon="12.81247471546878"><ele>23.428571428571427</ele><time>2026-04-26T14:11:05.999Z</time></trkpt><trkpt lat="41.47095813430508" lon="12.812392713285963"><ele>23.57142857142857</ele><time>2026-04-26T14:11:13.999Z</time></trkpt><trkpt lat="41.471023370752384" lon="12.812361426165703"><ele>23.714285714285715</ele><time>2026-04-26T14:11:20.999Z</time></trkpt><trkpt lat="41.4710483048973" lon="12.812279333511146"><ele>23.857142857142854</ele><time>2026-04-26T14:11:26.999Z</time></trkpt><trkpt lat="41.47109529510987" lon="12.812221445996574"><ele>24.0</ele><time>2026-04-26T14:11:34.999Z</time></trkpt><trkpt lat="41.47115646052847" lon="12.81218110193371"><ele>23.999999999999996</ele><time>2026-04-26T14:11:41.999Z</time></trkpt><trkpt lat="41.4711972839413" lon="12.812098407655576"><ele>24.0</ele><time>2026-04-26T14:11:47.999Z</time></trkpt><trkpt lat="41.47120379684577" lon="12.812012580064849"><ele>24.0</ele><time>2026-04-26T14:11:53.999Z</time></trkpt><trkpt lat="41.47117936226077" lon="12.811926534753512"><ele>24.0</ele><time>2026-04-26T14:12:02.999Z</time></trkpt><trkpt lat="41.47112809194902" lon="12.81187736366411"><ele>24.0</ele><time>2026-04-26T14:12:08.999Z</time></trkpt><trkpt lat="41.471137520617404" lon="12.811784204986825"><ele>23.999999999999996</ele><time>2026-04-26T14:12:18.998Z</time></trkpt><trkpt lat="41.47110660757627" lon="12.811859842621391"><ele>24.0</ele><time>2026-04-26T14:14:35.999Z</time></trkpt><trkpt lat="41.471153275747376" lon="12.811929101043269"><ele>23.999999999999996</ele><time>2026-04-26T14:15:06.999Z</time></trkpt><trkpt lat="41.471181025344436" lon="12.812007051018684"><ele>24.0</ele><time>2026-04-26T14:15:17.001Z</time></trkpt><trkpt lat="41.47117641773379" lon="12.812100065200521"><ele>24.0</ele><time>2026-04-26T14:15:24.001Z</time></trkpt><trkpt lat="41.471126709714376" lon="12.812161255021158"><ele>24.0</ele><time>2026-04-26T14:15:35Z</time></trkpt><trkpt lat="41.47105993119942" lon="12.812187986483538"><ele>24.0</ele><time>2026-04-26T14:15:45Z</time></trkpt><trkpt lat="41.470993072244944" lon="12.812228126610965"><ele>23.999999999999996</ele><time>2026-04-26T14:15:53Z</time></trkpt><trkpt lat="41.47094309028891" lon="12.812284207425424"><ele>24.0</ele><time>2026-04-26T14:17:02.999Z</time></trkpt><trkpt lat="41.4709043724647" lon="12.812374143710938"><ele>23.999999999999996</ele><time>2026-04-26T14:17:10.999Z</time></trkpt><trkpt lat="41.47087013410914" lon="12.812446791401689"><ele>24.0</ele><time>2026-04-26T14:17:21.001Z</time></trkpt><trkpt lat="41.470830781596305" lon="12.812512716563385"><ele>24.0</ele><time>2026-04-26T14:17:38Z</time></trkpt><trkpt lat="41.47077573671232" lon="12.812578872859955"><ele>24.0</ele><time>2026-04-26T14:17:48Z</time></trkpt><trkpt lat="41.47072140335811" lon="12.812634035259"><ele>24.0</ele><time>2026-04-26T14:17:58Z</time></trkpt><trkpt lat="41.47068047676017" lon="12.812705934713522"><ele>23.999999999999996</ele><time>2026-04-26T14:18:06Z</time></trkpt><trkpt lat="41.47068620982346" lon="12.812801366061727"><ele>24.0</ele><time>2026-04-26T14:18:13Z</time></trkpt><trkpt lat="41.4707447221815" lon="12.81283765423221"><ele>23.857142857142854</ele><time>2026-04-26T14:18:20Z</time></trkpt><trkpt lat="41.47081681443501" lon="12.812835644284693"><ele>23.714285714285715</ele><time>2026-04-26T14:18:27.999Z</time></trkpt><trkpt lat="41.47086876871246" lon="12.812891069673254"><ele>23.57142857142857</ele><time>2026-04-26T14:18:40.999Z</time></trkpt><trkpt lat="41.470898960635694" lon="12.81297730305278"><ele>23.428571428571427</ele><time>2026-04-26T14:18:47.999Z</time></trkpt><trkpt lat="41.470961719265695" lon="12.813031975961707"><ele>23.285714285714285</ele><time>2026-04-26T14:18:55.999Z</time></trkpt><trkpt lat="41.47103430328366" lon="12.81302670436622"><ele>23.142857142857142</ele><time>2026-04-26T14:19:02.999Z</time></trkpt><trkpt lat="41.47109828285622" lon="12.813006257456692"><ele>23.0</ele><time>2026-04-26T14:19:07.999Z</time></trkpt><trkpt lat="41.471169493129054" lon="12.813012026470933"><ele>23.0</ele><time>2026-04-26T14:19:13.999Z</time></trkpt><trkpt lat="41.47123390427853" lon="12.813035730058923"><ele>23.0</ele><time>2026-04-26T14:19:19.999Z</time></trkpt><trkpt lat="41.471301094446595" lon="12.813043281045264"><ele>23.0</ele><time>2026-04-26T14:19:26Z</time></trkpt><trkpt lat="41.47136426069812" lon="12.813038929150663"><ele>23.0</ele><time>2026-04-26T14:19:33Z</time></trkpt><trkpt lat="41.471429809108955" lon="12.813037757553854"><ele>23.0</ele><time>2026-04-26T14:19:40Z</time></trkpt><trkpt lat="41.471487305265214" lon="12.813000427989499"><ele>23.0</ele><time>2026-04-26T14:19:46Z</time></trkpt><trkpt lat="41.4715334685843" lon="12.81293391314075"><ele>23.0</ele><time>2026-04-26T14:19:52Z</time></trkpt><trkpt lat="41.47158621400934" lon="12.812868404091912"><ele>23.142857142857142</ele><time>2026-04-26T14:19:58Z</time></trkpt><trkpt lat="41.471653785071524" lon="12.812855489475831"><ele>23.285714285714285</ele><time>2026-04-26T14:20:05Z</time></trkpt><trkpt lat="41.47171689904231" lon="12.81285634864433"><ele>23.428571428571427</ele><time>2026-04-26T14:20:15Z</time></trkpt><trkpt lat="41.47180492457498" lon="12.812818471231104"><ele>23.57142857142857</ele><time>2026-04-26T14:25:29.998Z</time></trkpt><trkpt lat="41.471871245649204" lon="12.812767338953813"><ele>23.714285714285715</ele><time>2026-04-26T14:25:31.998Z</time></trkpt><trkpt lat="41.47194037006316" lon="12.812709538667876"><ele>23.857142857142854</ele><time>2026-04-26T14:25:34.998Z</time></trkpt><trkpt lat="41.47196085783002" lon="12.812629604704972"><ele>24.0</ele><time>2026-04-26T14:25:37.998Z</time></trkpt><trkpt lat="41.47197934082456" lon="12.812532430629359"><ele>24.6</ele><time>2026-04-26T14:25:41Z</time></trkpt><trkpt lat="41.471976522391344" lon="12.81242245085262"><ele>25.2</ele><time>2026-04-26T14:25:43Z</time></trkpt><trkpt lat="41.47199000282932" lon="12.812312795137688"><ele>25.800000000000004</ele><time>2026-04-26T14:25:45Z</time></trkpt><trkpt lat="41.472013013613896" lon="12.812176838284937"><ele>26.400000000000002</ele><time>2026-04-26T14:26:10Z</time></trkpt><trkpt lat="41.47203668971019" lon="12.812035958916042"><ele>27.0</ele><time>2026-04-26T14:26:12Z</time></trkpt><trkpt lat="41.47205023822156" lon="12.81192717625736"><ele>27.0</ele><time>2026-04-26T14:26:14Z</time></trkpt><trkpt lat="41.47206599785402" lon="12.811776475027512"><ele>25.0</ele><time>2026-04-26T14:26:16Z</time></trkpt><trkpt lat="41.47207395109128" lon="12.811652188155476"><ele>25.0</ele><time>2026-04-26T14:26:18Z</time></trkpt><trkpt lat="41.47209013035784" lon="12.811540037600585"><ele>25.0</ele><time>2026-04-26T14:26:22Z</time></trkpt></trkseg></trk></gpx>